LiveATC.Net - Listen to live air traffic control over the Internet!
Airport/ARTCC Code
Frequency Search
(e.g., 124.400, 128.75)
Site-wide search
 


Browse Feeds
Top 50 Feeds
HF Oceanic Feeds
Coverage Map
Bad Weather Areas

LiveATC FAQ
Offer LiveATC feed
Contact LiveATC.net
Press Inquiries

LiveATC on iPhone
LiveATC on Android

Windows Phone
Windows 8/10

LiveATC Mobile
(Mobile browser)

ATC Audio Archives
Interesting Recordings

LiveATC Forums

Home Page
About LiveATC.net
Make a Donation
Terms of Use
Privacy Policy

Canadian Air Freqs

AIRMETs/SIGMETs

FAA Airport Status
NAS Status
Arrival Demand


Server Software By:
Icecast.org
Liquidsoap

Select an area of interest:
U.S. Feeds: Class B Airports | Class C Airports | Class D/Other Airports | ARTCC (Centers)
International Feeds: Canada | Europe | Oceania | Asia | South America | North/Central America | Africa
Misc Feeds: HF Feeds
Search by ICAO/IATA airport code:   (e.g., kbos, kjfk, lax, eham, etc.)


Currently Available Live Feeds: 2973
Status Updated: Sun Oct 24 2021 14:49:21 UTC


NOTICE

Unauthorized use prohibited. See LiveATC.net Terms of Service

U.S. Class C Airport Feeds

 

KABQ App/Dep (Main) (Archives)
Albuquerque, New Mexico, United States

Feed Status: UP
Listen in your browser - HTML5 player(in browser, HTML5)
Click here to listen with your own player(launches your MP3 player)

KABQ 241352Z 13005KT 10SM FEW120 FEW180 09/M02 A3003 RMK AO2 SLP120 T00891022

KABQ Airport Info (Airnav.com)

KABQ Flight Activity (Flightaware)

Listeners: 0 out of 1298 total

Albuquerque Approach/Departure (S of V12): 123.900

KABQ App/Dep (Other) (Archives)
Albuquerque, New Mexico, United States

Feed Status: UP
Listen in your browser - HTML5 player(in browser, HTML5)
Click here to listen with your own player(launches your MP3 player)

KABQ 241352Z 13005KT 10SM FEW120 FEW180 09/M02 A3003 RMK AO2 SLP120 T00891022

KABQ Airport Info (Airnav.com)

KABQ Flight Activity (Flightaware)

Listeners: 0 out of 1298 total

Albuquerque Approach/Departure (N of V12): 127.400

KABQ Del/Gnd (Archives)
Albuquerque, New Mexico, United States

Feed Status: UP
Listen in your browser - HTML5 player(in browser, HTML5)
Click here to listen with your own player(launches your MP3 player)

KABQ 241352Z 13005KT 10SM FEW120 FEW180 09/M02 A3003 RMK AO2 SLP120 T00891022

KABQ Airport Info (Airnav.com)

KABQ Flight Activity (Flightaware)

Listeners: 0 out of 1298 total

Albuquerque Clearance Delivery: 119.200
Albuquerque Ground: 121.900

KABQ Tower (Archives)
Albuquerque, New Mexico, United States

Feed Status: UP
Listen in your browser - HTML5 player(in browser, HTML5)
Click here to listen with your own player(launches your MP3 player)

KABQ 241352Z 13005KT 10SM FEW120 FEW180 09/M02 A3003 RMK AO2 SLP120 T00891022

KABQ Airport Info (Airnav.com)

KABQ Flight Activity (Flightaware)

Listeners: 0 out of 1298 total

Albuquerque Tower: 120.300

KABQ Tower #2 (Archives)
Albuquerque, New Mexico, United States

Feed Status: UP
Listen in your browser - HTML5 player(in browser, HTML5)
Click here to listen with your own player(launches your MP3 player)

KABQ 241352Z 13005KT 10SM FEW120 FEW180 09/M02 A3003 RMK AO2 SLP120 T00891022

KABQ Airport Info (Airnav.com)

KABQ Flight Activity (Flightaware)

Listeners: 0 out of 1298 total

Albuquerque Tower: 120.300

KABQ Twr/App/ZAB (Archives)
Albuquerque, New Mexico, United States

Feed Status: UP
Listen in your browser - HTML5 player(in browser, HTML5)
Click here to listen with your own player(launches your MP3 player)

KABQ 241352Z 13005KT 10SM FEW120 FEW180 09/M02 A3003 RMK AO2 SLP120 T00891022

KABQ Airport Info (Airnav.com)

KABQ Flight Activity (Flightaware)

Listeners: 2 out of 1298 total

Albuquerque Approach (South): 126.300
Albuquerque Approach/Departure (N of V12): 127.400
Albuquerque Approach/Departure (S of V12): 123.900
Albuquerque Clearance Delivery: 119.200
Albuquerque Tower: 120.300
Albuquerque Tower (South): 123.775
Albuquerque UNICOM: 122.950
ZAB Albuquerque Center Sector 16 SAN-L: 132.800
ZAB Albuquerque Center Sector 17 LAVA-L: 124.325
ZAB Albuquerque Center Sector 94 CNX-LH: 133.650

KACY App/Dep (Archives)
Atlantic City, New Jersey, United States

Feed Status: UP
Listen in your browser - HTML5 player(in browser, HTML5)
Click here to listen with your own player(launches your MP3 player)

KACY 241354Z 00000KT 10SM OVC075 11/08 A3022 RMK AO2 SLP232 T01110078 $

KACY Airport Info (Airnav.com)

KACY Flight Activity (Flightaware)

Listeners: 0 out of 1298 total

Atlantic City Approach/Departure: 124.600
Atlantic City Approach/Departure: 134.250
Atlantic City Approach/Departure: 385.500
Atlantic City Approach/Departure: 327.125

KACY ATIS (Archives)
Atlantic City, New Jersey, United States

Feed Status: UP
Listen in your browser - HTML5 player(in browser, HTML5)
Click here to listen with your own player(launches your MP3 player)

KACY 241354Z 00000KT 10SM OVC075 11/08 A3022 RMK AO2 SLP232 T01110078 $

KACY Airport Info (Airnav.com)

KACY Flight Activity (Flightaware)

Listeners: 0 out of 1298 total

Atlantic City ATIS: 125.725

KACY Clearance Delivery (Archives)
Atlantic City, New Jersey, United States

Feed Status: UP
Listen in your browser - HTML5 player(in browser, HTML5)
Click here to listen with your own player(launches your MP3 player)

KACY 241354Z 00000KT 10SM OVC075 11/08 A3022 RMK AO2 SLP232 T01110078 $

KACY Airport Info (Airnav.com)

KACY Flight Activity (Flightaware)

Listeners: 0 out of 1298 total

Atlantic City Clearance: 127.850

KACY GIANT KILLER (Archives)
Atlantic City, New Jersey, United States

Feed Status: UP
Listen in your browser - HTML5 player(in browser, HTML5)
Click here to listen with your own player(launches your MP3 player)

KACY 241354Z 00000KT 10SM OVC075 11/08 A3022 RMK AO2 SLP232 T01110078 $

KACY Airport Info (Airnav.com)

KACY Flight Activity (Flightaware)

Listeners: 0 out of 1298 total

GIANT KILLER Common Area (Air-Air): 337.225
GIANT KILLER W-105/W-106 Check In/Out: 135.225
GIANT KILLER W-105/W-106 Check In/Out: 338.100
GIANT KILLER W-105/W-106 Common Area: 305.250
GIANT KILLER W-107 Check In/Out: 135.725
GIANT KILLER W-107 Check In/Out: 255.000
GIANT KILLER W-107 Common Area: 339.725
GIANT KILLER W-386 Common Area (A through F): 312.200
GIANT KILLER W-386 Common Area (G through J): 350.050
GIANT KILLER W-386 Common Area (K) and W-387 Common Area (All): 346.600
GIANT KILLER W-386/W-387 Check In/Out: 118.125
GIANT KILLER W-386/W-387 Check In/Out (Primary): 238.100
GIANT KILLER W-386/W-387 Check In/Out (Secondary): 249.800

KACY Ground (Archives)
Atlantic City, New Jersey, United States

Feed Status: UP
Listen in your browser - HTML5 player(in browser, HTML5)
Click here to listen with your own player(launches your MP3 player)

KACY 241354Z 00000KT 10SM OVC075 11/08 A3022 RMK AO2 SLP232 T01110078 $

KACY Airport Info (Airnav.com)

KACY Flight Activity (Flightaware)

Listeners: 0 out of 1298 total

Atlantic City Ground: 121.900

KACY Tower (Archives)
Atlantic City, New Jersey, United States

Feed Status: UP
Listen in your browser - HTML5 player(in browser, HTML5)
Click here to listen with your own player(launches your MP3 player)

KACY 241354Z 00000KT 10SM OVC075 11/08 A3022 RMK AO2 SLP232 T01110078 $

KACY Airport Info (Airnav.com)

KACY Flight Activity (Flightaware)

Listeners: 0 out of 1298 total

Atlantic City Tower: 120.300

KALB Approach/Departure (Archives)
Albany, New York, United States

Feed Status: UP
Listen in your browser - HTML5 player(in browser, HTML5)
Click here to listen with your own player(launches your MP3 player)

KALB 241351Z 00000KT 10SM CLR 08/03 A3017 RMK AO2 SLP219 T00780033

KALB Airport Info (Airnav.com)

KALB Flight Activity (Flightaware)

Listeners: 0 out of 1298 total

Albany Approach/Departure: 132.825
Albany Approach/Departure: 118.050

KALB ATIS (Archives)
Albany, New York, United States

Feed Status: UP
Listen in your browser - HTML5 player(in browser, HTML5)
Click here to listen with your own player(launches your MP3 player)

KALB 241351Z 00000KT 10SM CLR 08/03 A3017 RMK AO2 SLP219 T00780033

KALB Airport Info (Airnav.com)

KALB Flight Activity (Flightaware)

Listeners: 0 out of 1298 total

Albany ATIS: 120.450

KALB Ground (Archives)
Albany, New York, United States

Feed Status: UP
Listen in your browser - HTML5 player(in browser, HTML5)
Click here to listen with your own player(launches your MP3 player)

KALB 241351Z 00000KT 10SM CLR 08/03 A3017 RMK AO2 SLP219 T00780033

KALB Airport Info (Airnav.com)

KALB Flight Activity (Flightaware)

Listeners: 0 out of 1298 total

Albany Ground: 121.700

KALB Ground/Tower (Archives)
Albany, New York, United States

Feed Status: UP
Listen in your browser - HTML5 player(in browser, HTML5)
Click here to listen with your own player(launches your MP3 player)

KALB 241351Z 00000KT 10SM CLR 08/03 A3017 RMK AO2 SLP219 T00780033

KALB Airport Info (Airnav.com)

KALB Flight Activity (Flightaware)

Listeners: 0 out of 1298 total

Albany Ground: 121.700
Albany Tower: 119.500

KALB Tower (Archives)
Albany, New York, United States

Feed Status: UP
Listen in your browser - HTML5 player(in browser, HTML5)
Click here to listen with your own player(launches your MP3 player)

KALB 241351Z 00000KT 10SM CLR 08/03 A3017 RMK AO2 SLP219 T00780033

KALB Airport Info (Airnav.com)

KALB Flight Activity (Flightaware)

Listeners: 1 out of 1298 total

Albany Tower: 119.500

KAUG App/Center (Archives)
Augusta, Maine, United States

Feed Status: UP
Listen in your browser - HTML5 player(in browser, HTML5)
Click here to listen with your own player(launches your MP3 player)

KAUG 241353Z AUTO 30008G18KT 10SM CLR 08/M03 A3003 RMK AO2 SLP171 T00781033

KAUG Airport Info (Airnav.com)

KAUG Flight Activity (Flightaware)

Listeners: 0 out of 1298 total

Boston Center (Sector 02 Augusta High): 134.950
Emergency/Guard: 121.500
Portland Approach (Augusta): 128.350

KAUS App/Dep #1 (Archives)
Austin, Texas, United States

Feed Status: UP
Listen in your browser - HTML5 player(in browser, HTML5)
Click here to listen with your own player(launches your MP3 player)

KAUS 241353Z 14003KT 3SM BR OVC004 22/21 A2987 RMK AO2 DZE52 SLP106 P0000 T02170211 $

KAUS Airport Info (Airnav.com)

KAUS Flight Activity (Flightaware)

Listeners: 0 out of 1298 total

Austin Approach (Final): 125.325
Austin Approach/Departure (East): 127.225
Austin Approach/Departure (South): 120.875
Austin Approach/Depature (West): 119.000

KAUS App/Dep #2 (Archives)
Austin, Texas, United States

Feed Status: UP
Listen in your browser - HTML5 player(in browser, HTML5)
Click here to listen with your own player(launches your MP3 player)

KAUS 241353Z 14003KT 3SM BR OVC004 22/21 A2987 RMK AO2 DZE52 SLP106 P0000 T02170211 $

KAUS Airport Info (Airnav.com)

KAUS Flight Activity (Flightaware)

Listeners: 0 out of 1298 total

Austin Approach (Final): 125.325
Austin Approach (West): 119.000
Austin Approach/Departure (East): 127.225
Austin Approach/Departure (South): 120.875

KAUS App/Dep #3 (Archives)
Austin, Texas, United States

Feed Status: UP
Listen in your browser - HTML5 player(in browser, HTML5)
Click here to listen with your own player(launches your MP3 player)

KAUS 241353Z 14003KT 3SM BR OVC004 22/21 A2987 RMK AO2 DZE52 SLP106 P0000 T02170211 $

KAUS Airport Info (Airnav.com)

KAUS Flight Activity (Flightaware)

Listeners: 0 out of 1298 total

Austin Approach (Final): 125.325
Austin Approach (West): 119.000
Austin Approach/Departure (East): 127.225
Austin Approach/Departure (SE): 118.150
Austin Approach/Departure (South): 120.875

KAUS App/Dep (East) #1 (Archives)
Austin, Texas, United States

Feed Status: UP
Listen in your browser - HTML5 player(in browser, HTML5)
Click here to listen with your own player(launches your MP3 player)

KAUS 241353Z 14003KT 3SM BR OVC004 22/21 A2987 RMK AO2 DZE52 SLP106 P0000 T02170211 $

KAUS Airport Info (Airnav.com)

KAUS Flight Activity (Flightaware)

Listeners: 0 out of 1298 total

Austin Approach/Departure (East): 127.225

KAUS App/Dep (East) #2 (Archives)
Austin, Texas, United States

Feed Status: UP
Listen in your browser - HTML5 player(in browser, HTML5)
Click here to listen with your own player(launches your MP3 player)

KAUS 241353Z 14003KT 3SM BR OVC004 22/21 A2987 RMK AO2 DZE52 SLP106 P0000 T02170211 $

KAUS Airport Info (Airnav.com)

KAUS Flight Activity (Flightaware)

Listeners: 0 out of 1298 total

Austin Approach/Departure (East): 127.225

KAUS App/Dep (SE) (Archives)
Austin, Texas, United States

Feed Status: UP
Listen in your browser - HTML5 player(in browser, HTML5)
Click here to listen with your own player(launches your MP3 player)

KAUS 241353Z 14003KT 3SM BR OVC004 22/21 A2987 RMK AO2 DZE52 SLP106 P0000 T02170211 $

KAUS Airport Info (Airnav.com)

KAUS Flight Activity (Flightaware)

Listeners: 0 out of 1298 total

Austin Approach/Departure (SE): 118.150

KAUS App/Dep (South) #1 (Archives)
Austin, Texas, United States

Feed Status: UP
Listen in your browser - HTML5 player(in browser, HTML5)
Click here to listen with your own player(launches your MP3 player)

KAUS 241353Z 14003KT 3SM BR OVC004 22/21 A2987 RMK AO2 DZE52 SLP106 P0000 T02170211 $

KAUS Airport Info (Airnav.com)

KAUS Flight Activity (Flightaware)

Listeners: 0 out of 1298 total

Austin Approach/Departure (South): 120.875

KAUS App/Dep (South) #2 (Archives)
Austin, Texas, United States

Feed Status: UP
Listen in your browser - HTML5 player(in browser, HTML5)
Click here to listen with your own player(launches your MP3 player)

KAUS 241353Z 14003KT 3SM BR OVC004 22/21 A2987 RMK AO2 DZE52 SLP106 P0000 T02170211 $

KAUS Airport Info (Airnav.com)

KAUS Flight Activity (Flightaware)

Listeners: 0 out of 1298 total

Austin Approach/Departure (South): 120.875

KAUS App/Dep (West) #1 (Archives)
Austin, Texas, United States

Feed Status: UP
Listen in your browser - HTML5 player(in browser, HTML5)
Click here to listen with your own player(launches your MP3 player)

KAUS 241353Z 14003KT 3SM BR OVC004 22/21 A2987 RMK AO2 DZE52 SLP106 P0000 T02170211 $

KAUS Airport Info (Airnav.com)

KAUS Flight Activity (Flightaware)

Listeners: 0 out of 1298 total

Austin Approach (West): 119.000

KAUS App/Dep (West) #2 (Archives)
Austin, Texas, United States

Feed Status: UP
Listen in your browser - HTML5 player(in browser, HTML5)
Click here to listen with your own player(launches your MP3 player)

KAUS 241353Z 14003KT 3SM BR OVC004 22/21 A2987 RMK AO2 DZE52 SLP106 P0000 T02170211 $

KAUS Airport Info (Airnav.com)

KAUS Flight Activity (Flightaware)

Listeners: 0 out of 1298 total

Austin Approach (West): 119.000

KAUS Approach (Final) #2 (Archives)
Austin, Texas, United States

Feed Status: UP
Listen in your browser - HTML5 player(in browser, HTML5)
Click here to listen with your own player(launches your MP3 player)

KAUS 241353Z 14003KT 3SM BR OVC004 22/21 A2987 RMK AO2 DZE52 SLP106 P0000 T02170211 $

KAUS Airport Info (Airnav.com)

KAUS Flight Activity (Flightaware)

Listeners: 0 out of 1298 total

Austin Approach (Final): 125.325

KAUS ATIS (Archives)
Austin, Texas, United States

Feed Status: UP
Listen in your browser - HTML5 player(in browser, HTML5)
Click here to listen with your own player(launches your MP3 player)

KAUS 241353Z 14003KT 3SM BR OVC004 22/21 A2987 RMK AO2 DZE52 SLP106 P0000 T02170211 $

KAUS Airport Info (Airnav.com)

KAUS Flight Activity (Flightaware)

Listeners: 0 out of 1298 total

Austin ATIS: 124.400

KAUS Clearance Delivery #1 (Archives)
Austin, Texas, United States

Feed Status: UP
Listen in your browser - HTML5 player(in browser, HTML5)
Click here to listen with your own player(launches your MP3 player)

KAUS 241353Z 14003KT 3SM BR OVC004 22/21 A2987 RMK AO2 DZE52 SLP106 P0000 T02170211 $

KAUS Airport Info (Airnav.com)

KAUS Flight Activity (Flightaware)

Listeners: 0 out of 1298 total

Austin Clearance Delivery: 125.500

KAUS Clearance Delivery #2 (Archives)
Austin, Texas, United States

Feed Status: UP
Listen in your browser - HTML5 player(in browser, HTML5)
Click here to listen with your own player(launches your MP3 player)

KAUS 241353Z 14003KT 3SM BR OVC004 22/21 A2987 RMK AO2 DZE52 SLP106 P0000 T02170211 $

KAUS Airport Info (Airnav.com)

KAUS Flight Activity (Flightaware)

Listeners: 0 out of 1298 total

Austin Clearance Delivery: 125.500

KAUS Ground #1 (Archives)
Austin, Texas, United States

Feed Status: UP
Listen in your browser - HTML5 player(in browser, HTML5)
Click here to listen with your own player(launches your MP3 player)

KAUS 241353Z 14003KT 3SM BR OVC004 22/21 A2987 RMK AO2 DZE52 SLP106 P0000 T02170211 $

KAUS Airport Info (Airnav.com)

KAUS Flight Activity (Flightaware)

Listeners: 0 out of 1298 total

Austin Ground: 121.900

KAUS Ground #2 (Archives)
Austin, Texas, United States

Feed Status: UP
Listen in your browser - HTML5 player(in browser, HTML5)
Click here to listen with your own player(launches your MP3 player)

KAUS 241353Z 14003KT 3SM BR OVC004 22/21 A2987 RMK AO2 DZE52 SLP106 P0000 T02170211 $

KAUS Airport Info (Airnav.com)

KAUS Flight Activity (Flightaware)

Listeners: 0 out of 1298 total

Austin Ground: 121.900
Austin Ground (Backup): 121.700

KAUS Ground (Primary) #2 (Archives)
Austin, Texas, United States

Feed Status: UP
Listen in your browser - HTML5 player(in browser, HTML5)
Click here to listen with your own player(launches your MP3 player)

KAUS 241353Z 14003KT 3SM BR OVC004 22/21 A2987 RMK AO2 DZE52 SLP106 P0000 T02170211 $

KAUS Airport Info (Airnav.com)

KAUS Flight Activity (Flightaware)

Listeners: 0 out of 1298 total

Austin Ground: 121.900

KAUS Ground (Secondary) #2 (Archives)
Austin, Texas, United States

Feed Status: UP
Listen in your browser - HTML5 player(in browser, HTML5)
Click here to listen with your own player(launches your MP3 player)

KAUS 241353Z 14003KT 3SM BR OVC004 22/21 A2987 RMK AO2 DZE52 SLP106 P0000 T02170211 $

KAUS Airport Info (Airnav.com)

KAUS Flight Activity (Flightaware)

Listeners: 0 out of 1298 total

Austin Ground (Backup): 121.700

KAUS Tower #1 (Archives)
Austin, Texas, United States

Feed Status: UP
Listen in your browser - HTML5 player(in browser, HTML5)
Click here to listen with your own player(launches your MP3 player)

KAUS 241353Z 14003KT 3SM BR OVC004 22/21 A2987 RMK AO2 DZE52 SLP106 P0000 T02170211 $

KAUS Airport Info (Airnav.com)

KAUS Flight Activity (Flightaware)

Listeners: 1 out of 1298 total

Austin Tower: 121.000

KAUS Tower #2 (Archives)
Austin, Texas, United States

Feed Status: UP
Listen in your browser - HTML5 player(in browser, HTML5)
Click here to listen with your own player(launches your MP3 player)

KAUS 241353Z 14003KT 3SM BR OVC004 22/21 A2987 RMK AO2 DZE52 SLP106 P0000 T02170211 $

KAUS Airport Info (Airnav.com)

KAUS Flight Activity (Flightaware)

Listeners: 0 out of 1298 total

Austin Tower: 121.000
Austin Tower: 118.225

KAUS Tower #3 (Archives)
Austin, Texas, United States

Feed Status: UP
Listen in your browser - HTML5 player(in browser, HTML5)
Click here to listen with your own player(launches your MP3 player)

KAUS 241353Z 14003KT 3SM BR OVC004 22/21 A2987 RMK AO2 DZE52 SLP106 P0000 T02170211 $

KAUS Airport Info (Airnav.com)

KAUS Flight Activity (Flightaware)

Listeners: 0 out of 1298 total

Austin Tower: 121.000

KAUS Tower (Main) #2 (Archives)
Austin, Texas, United States

Feed Status: UP
Listen in your browser - HTML5 player(in browser, HTML5)
Click here to listen with your own player(launches your MP3 player)

KAUS 241353Z 14003KT 3SM BR OVC004 22/21 A2987 RMK AO2 DZE52 SLP106 P0000 T02170211 $

KAUS Airport Info (Airnav.com)

KAUS Flight Activity (Flightaware)

Listeners: 0 out of 1298 total

Austin Tower: 121.000

KAUS Tower (Secondary) #2 (Archives)
Austin, Texas, United States

Feed Status: UP
Listen in your browser - HTML5 player(in browser, HTML5)
Click here to listen with your own player(launches your MP3 player)

KAUS 241353Z 14003KT 3SM BR OVC004 22/21 A2987 RMK AO2 DZE52 SLP106 P0000 T02170211 $

KAUS Airport Info (Airnav.com)

KAUS Flight Activity (Flightaware)

Listeners: 0 out of 1298 total

Austin Tower: 118.225

KAVL Gnd/Twr/App (Archives)
Asheville, North Carolina, United States

Feed Status: UP
Listen in your browser - HTML5 player(in browser, HTML5)
Click here to listen with your own player(launches your MP3 player)

KAVL 241354Z 00000KT 10SM SCT001 09/08 A3019 RMK AO2 SLP218 T00890078

KAVL Airport Info (Airnav.com)

KAVL Flight Activity (Flightaware)

Listeners: 0 out of 1298 total

Asheville Approach/Departure: 124.650
Asheville Approach/Departure: 125.800
Asheville Ground: 121.900
Asheville Tower/CTAF: 121.100
Asheville UNICOM: 122.950
Emergency (Guard): 121.500
Landmark Aviation (FBO): 130.275
RDU Radio: 122.100

KBTL/KAZO Gnd/Twr/App (Archives)
Kalamazoo, Michigan, United States

Feed Status: UP
Listen in your browser - HTML5 player(in browser, HTML5)
Click here to listen with your own player(launches your MP3 player)

KBTL Airport Info (Airnav.com)

KBTL Flight Activity (Flightaware)

Listeners: 0 out of 1298 total

Battle Creek Ground: 121.700
Battle Creek Tower: 126.825
Kalamazoo Approach/Departure: 119.200
Kalamazoo Ground: 121.900
Kalamazoo Tower: 118.300

KBDL Approach/ANG (Archives)
Windsor Locks, Connecticut, United States

Feed Status: UP
Listen in your browser - HTML5 player(in browser, HTML5)
Click here to listen with your own player(launches your MP3 player)

KBDL 241351Z VRB03KT 10SM FEW080 FEW250 09/03 A3017 RMK AO2 SLP218 T00940028

KBDL Airport Info (Airnav.com)

KBDL Flight Activity (Flightaware)

Listeners: 1 out of 1298 total

Bradley Approach (South): 127.800
Bradley Approach (South): 269.325
Bradley Approach (Spare): 127.225
Bradley Approach/Departure (North): 125.350
Bradley Approach/Departure (North): 281.500
Bradley Approach/Departure (West): 123.950
Bradley Approach/Departure (West): 290.550
Bradley Departure (South): 327.100
Bradley Departure (South): 323.200
CT ANG FURY Ops: 41.900
CT ANG FURY Ops: 139.200
CT ANG FURY Ops: 139.400
CT ANG FURY Ops: 243.900
CT ANG FURY Ops: 265.600
CT ANG SHARK Ops: 138.550
CT ANG SHARK Ops: 349.700
Emergency/Guard: 121.500
Emergency/Guard: 243.000

KBDL ATIS (Archives)
Windsor Locks, Connecticut, United States

Feed Status: UP
Listen in your browser - HTML5 player(in browser, HTML5)
Click here to listen with your own player(launches your MP3 player)

KBDL 241351Z VRB03KT 10SM FEW080 FEW250 09/03 A3017 RMK AO2 SLP218 T00940028

KBDL Airport Info (Airnav.com)

KBDL Flight Activity (Flightaware)

Listeners: 0 out of 1298 total

Bradley ATIS: 118.150

KBDL Del/Gnd (Archives)
Windsor Locks, Connecticut, United States

Feed Status: UP
Listen in your browser - HTML5 player(in browser, HTML5)
Click here to listen with your own player(launches your MP3 player)

KBDL 241351Z VRB03KT 10SM FEW080 FEW250 09/03 A3017 RMK AO2 SLP218 T00940028

KBDL Airport Info (Airnav.com)

KBDL Flight Activity (Flightaware)

Listeners: 0 out of 1298 total

Bradley Clearance Delivery: 121.750
Bradley Ground: 121.900
Emergency/Guard: 121.500

KBDL Tower (Archives)
Windsor Locks, Connecticut, United States

Feed Status: UP
Listen in your browser - HTML5 player(in browser, HTML5)
Click here to listen with your own player(launches your MP3 player)

KBDL 241351Z VRB03KT 10SM FEW080 FEW250 09/03 A3017 RMK AO2 SLP218 T00940028

KBDL Airport Info (Airnav.com)

KBDL Flight Activity (Flightaware)

Listeners: 1 out of 1298 total

Bradley Tower: 120.300

KBDL Twr/App (Archives)
Windsor Locks, Connecticut, United States

Feed Status: UP
Listen in your browser - HTML5 player(in browser, HTML5)
Click here to listen with your own player(launches your MP3 player)

KBDL 241351Z VRB03KT 10SM FEW080 FEW250 09/03 A3017 RMK AO2 SLP218 T00940028

KBDL Airport Info (Airnav.com)

KBDL Flight Activity (Flightaware)

Listeners: 0 out of 1298 total

Bradley Approach (South): 127.800
Bradley Approach (South): 269.325
Bradley Approach (Spare): 127.225
Bradley Approach/Departure (North): 125.350
Bradley Approach/Departure (North): 281.500
Bradley Approach/Departure (West): 290.550
Bradley Approach/Departure (West): 123.950
Bradley Tower: 120.300
CT ANG FURY Ops: 41.900
CT ANG FURY Ops: 265.600
CT ANG FURY Ops: 243.900
CT ANG FURY Ops: 139.400
CT ANG FURY Ops: 139.200
CT ANG SHARK Ops: 349.700
CT ANG SHARK Ops: 138.550
Emergency/Guard: 243.000
Emergency/Guard: 121.500

KBFM ATIS (Archives)
Mobile, Alabama, United States

Feed Status: UP
Listen in your browser - HTML5 player(in browser, HTML5)
Click here to listen with your own player(launches your MP3 player)

KBFM 241353Z 09010KT 10SM CLR 22/18 A3005 RMK AO2 SLP174 T02220178 $

KBFM Airport Info (Airnav.com)

KBFM Flight Activity (Flightaware)

Listeners: 0 out of 1298 total

Mobile Downtown ATIS: 135.575

KBGR App/Dep (Archives)
Bangor, Maine, United States

Feed Status: UP
Listen in your browser - HTML5 player(in browser, HTML5)
Click here to listen with your own player(launches your MP3 player)

KBGR 241353Z 27010G17KT 10SM FEW100 07/M02 A2999 RMK AO2 SLP155 T00671017

KBGR Airport Info (Airnav.com)

KBGR Flight Activity (Flightaware)

Listeners: 1 out of 1298 total

Bangor Approach: 118.925
Bangor Approach: 124.500
Bangor Approach: 133.600
Bangor Approach: 239.300

KBGR ATIS (Archives)
Bangor, Maine, United States

Feed Status: UP
Listen in your browser - HTML5 player(in browser, HTML5)
Click here to listen with your own player(launches your MP3 player)

KBGR 241353Z 27010G17KT 10SM FEW100 07/M02 A2999 RMK AO2 SLP155 T00671017

KBGR Airport Info (Airnav.com)

KBGR Flight Activity (Flightaware)

Listeners: 0 out of 1298 total

Bangor ATIS: 127.750

KBGR Del/Gnd/Twr (Archives)
Bangor, Maine, United States

Feed Status: UP
Listen in your browser - HTML5 player(in browser, HTML5)
Click here to listen with your own player(launches your MP3 player)

KBGR 241353Z 27010G17KT 10SM FEW100 07/M02 A2999 RMK AO2 SLP155 T00671017

KBGR Airport Info (Airnav.com)

KBGR Flight Activity (Flightaware)

Listeners: 0 out of 1298 total

Bangor Clearance Delivery: 135.900
Bangor Ground: 121.900
Bangor Tower: 120.700

KBHM Gnd/Twr/App (Archives)
Birmingham, Alabama, United States

Feed Status: UP
Listen in your browser - HTML5 player(in browser, HTML5)
Click here to listen with your own player(launches your MP3 player)

KBHM 241353Z 09003KT 10SM BKN250 19/11 A3009 RMK AO2 SLP175 T01940111 $

KBHM Airport Info (Airnav.com)

KBHM Flight Activity (Flightaware)

Listeners: 1 out of 1298 total

Birmingham Approach/Departure: 127.675
Birmingham Approach/Departure: 123.800
Birmingham Ground: 121.700
Birmingham Tower: 118.250
Birmingham Tower: 119.900

KBIL Approach (West) (Archives)
Billings, Montana, United States

Feed Status: UP
Listen in your browser - HTML5 player(in browser, HTML5)
Click here to listen with your own player(launches your MP3 player)

KBIL 241353Z 24010KT 10SM FEW100 04/01 A2979 RMK AO2 SLP091 T00440011

KBIL Airport Info (Airnav.com)

KBIL Flight Activity (Flightaware)

Listeners: 0 out of 1298 total

Billing Approach (West): 120.500

KBIL Ground (Archives)
Billings, Montana, United States

Feed Status: UP
Listen in your browser - HTML5 player(in browser, HTML5)
Click here to listen with your own player(launches your MP3 player)

KBIL 241353Z 24010KT 10SM FEW100 04/01 A2979 RMK AO2 SLP091 T00440011

KBIL Airport Info (Airnav.com)

KBIL Flight Activity (Flightaware)

Listeners: 0 out of 1298 total

Billings Ground: 121.900

KBIL Tower (Archives)
Billings, Montana, United States

Feed Status: UP
Listen in your browser - HTML5 player(in browser, HTML5)
Click here to listen with your own player(launches your MP3 player)

KBIL 241353Z 24010KT 10SM FEW100 04/01 A2979 RMK AO2 SLP091 T00440011

KBIL Airport Info (Airnav.com)

KBIL Flight Activity (Flightaware)

Listeners: 0 out of 1298 total

Billings Tower: 127.200

KBNA App/Dep (Archives)
Nashville, Tennessee, United States

Feed Status: UP
Listen in your browser - HTML5 player(in browser, HTML5)
Click here to listen with your own player(launches your MP3 player)

KBNA 241353Z 18008KT 10SM SCT043 BKN065 BKN200 19/11 A3005 RMK AO2 SLP173 T01890106

KBNA Airport Info (Airnav.com)

KBNA Flight Activity (Flightaware)

Listeners: 0 out of 1298 total

Nashville App/Dep (East): 118.400
Nashville App/Dep (West): 119.350
Nashville Approach (Final): 124.750

KBNA App/Dep (East) (Archives)
Nashville, Tennessee, United States

Feed Status: UP
Listen in your browser - HTML5 player(in browser, HTML5)
Click here to listen with your own player(launches your MP3 player)

KBNA 241353Z 18008KT 10SM SCT043 BKN065 BKN200 19/11 A3005 RMK AO2 SLP173 T01890106

KBNA Airport Info (Airnav.com)

KBNA Flight Activity (Flightaware)

Listeners: 0 out of 1298 total

Nashville App/Dep (East): 118.400

KBNA Gnd/Twr (Archives)
Nashville, Tennessee, United States

Feed Status: UP
Listen in your browser - HTML5 player(in browser, HTML5)
Click here to listen with your own player(launches your MP3 player)

KBNA 241353Z 18008KT 10SM SCT043 BKN065 BKN200 19/11 A3005 RMK AO2 SLP173 T01890106

KBNA Airport Info (Airnav.com)

KBNA Flight Activity (Flightaware)

Listeners: 1 out of 1298 total

Nashville Ground: 121.900
Nashville Tower: 118.600

KBOI Del/Gnd (Archives)
Boise, Idaho, United States

Feed Status: UP
Listen in your browser - HTML5 player(in browser, HTML5)
Click here to listen with your own player(launches your MP3 player)

KBOI 241353Z 12015G21KT 10SM OVC075 11/04 A2966 RMK AO2 SLP035 T01060044

KBOI Airport Info (Airnav.com)

KBOI Flight Activity (Flightaware)

Listeners: 0 out of 1298 total

Boise Clearance Delivery: 125.900
Boise Ground: 121.700

KBOI Twr/App (Archives)
Boise, Idaho, United States

Feed Status: UP
Listen in your browser - HTML5 player(in browser, HTML5)
Click here to listen with your own player(launches your MP3 player)

KBOI 241353Z 12015G21KT 10SM OVC075 11/04 A2966 RMK AO2 SLP035 T01060044

KBOI Airport Info (Airnav.com)

KBOI Flight Activity (Flightaware)

Listeners: 1 out of 1298 total

Boise Approach/Departure (North): 126.900
Boise Approach/Departure (South): 119.600
Boise Tower: 118.100

KBTL/KAZO Gnd/Twr/App (Archives)
Battle Creek, Michigan, United States

Feed Status: UP
Listen in your browser - HTML5 player(in browser, HTML5)
Click here to listen with your own player(launches your MP3 player)

KBTL Airport Info (Airnav.com)

KBTL Flight Activity (Flightaware)

Listeners: 0 out of 1298 total

Battle Creek Ground: 121.700
Battle Creek Tower: 126.825
Kalamazoo Approach/Departure: 119.200
Kalamazoo Ground: 121.900
Kalamazoo Tower: 118.300

KBTR/KHZR/L38 Del/Gnd/Twr/App/CTAF (Archives)
Baton Rouge, Louisiana, United States

Feed Status: UP
Listen in your browser - HTML5 player(in browser, HTML5)
Click here to listen with your own player(launches your MP3 player)

KBTR 241353Z 10007KT 10SM CLR 23/22 A2995 RMK AO2 SLP142 T02280217

KBTR Airport Info (Airnav.com)

KBTR Flight Activity (Flightaware)

Listeners: 0 out of 1298 total

Baton Rouge Approach/Departure (East): 126.500
Baton Rouge Approach/Departure (Military): 278.300
Baton Rouge Approach/Departure (West): 120.300
Baton Rouge Clearance Delivery: 119.400
Baton Rouge Ground: 121.900
Baton Rouge Tower (Military): 257.800
Baton Rouge Tower/CTAF: 118.450
Baton Rouge UNICOM: 122.950
Houston Center (App/Dep when Approach closed): 338.250
Houston Center (App/Dep when Approach closed): 126.350
Louisiana Regional L38 CTAF: 123.000
United Airlines: 129.925

KBTV App/Dep (Archives)
Burlington, Vermont, United States

Feed Status: UP
Listen in your browser - HTML5 player(in browser, HTML5)
Click here to listen with your own player(launches your MP3 player)

KBTV 241354Z 18008KT 10SM CLR 06/00 A3015 RMK AO2 SLP213 T00610000 $

KBTV Airport Info (Airnav.com)

KBTV Flight Activity (Flightaware)

Listeners: 0 out of 1298 total

Burlington Approach/Departure: 278.800
Burlington Approach/Departure: 121.100

KBTV ATIS (Archives)
Burlington, Vermont, United States

Feed Status: UP
Listen in your browser - HTML5 player(in browser, HTML5)
Click here to listen with your own player(launches your MP3 player)

KBTV 241354Z 18008KT 10SM CLR 06/00 A3015 RMK AO2 SLP213 T00610000 $

KBTV Airport Info (Airnav.com)

KBTV Flight Activity (Flightaware)

Listeners: 0 out of 1298 total

Burlington ATIS: 123.800

KBTV Del/Gnd/Twr (Archives)
Burlington, Vermont, United States

Feed Status: UP
Listen in your browser - HTML5 player(in browser, HTML5)
Click here to listen with your own player(launches your MP3 player)

KBTV 241354Z 18008KT 10SM CLR 06/00 A3015 RMK AO2 SLP213 T00610000 $

KBTV Airport Info (Airnav.com)

KBTV Flight Activity (Flightaware)

Listeners: 0 out of 1298 total

Burlington Clearance Delivery: 119.150
Burlington Ground: 126.300
Burlington Ground: 348.600
Burlington Tower: 118.300
Burlington Tower: 257.800

KBTV Del/Gnd/Twr/App (Archives)
Burlington, Vermont, United States

Feed Status: UP
Listen in your browser - HTML5 player(in browser, HTML5)
Click here to listen with your own player(launches your MP3 player)

KBTV 241354Z 18008KT 10SM CLR 06/00 A3015 RMK AO2 SLP213 T00610000 $

KBTV Airport Info (Airnav.com)

KBTV Flight Activity (Flightaware)

Listeners: 0 out of 1298 total

Burlington Approach/Departure: 278.800
Burlington Approach/Departure: 121.100
Burlington Clearance Delivery: 119.150
Burlington Ground: 126.300
Burlington Ground: 348.600
Burlington Tower: 257.800
Burlington Tower: 118.300

KBTV Twr/App (Archives)
Burlington, Vermont, United States

Feed Status: UP
Listen in your browser - HTML5 player(in browser, HTML5)
Click here to listen with your own player(launches your MP3 player)

KBTV 241354Z 18008KT 10SM CLR 06/00 A3015 RMK AO2 SLP213 T00610000 $

KBTV Airport Info (Airnav.com)

KBTV Flight Activity (Flightaware)

Listeners: 0 out of 1298 total

Burlington Approach/Departure: 121.100
Burlington Tower: 118.300

KBUF Twr/App/Dep (Archives)
Buffalo, New York, United States

Feed Status: UP
Listen in your browser - HTML5 player(in browser, HTML5)
Click here to listen with your own player(launches your MP3 player)

KBUF 241354Z 20005KT 10SM FEW030 BKN042 BKN060 BKN220 09/06 A3008 RMK AO2 SLP190 T00940056 $

KBUF Airport Info (Airnav.com)

KBUF Flight Activity (Flightaware)

Listeners: 2 out of 1298 total

Buffalo Approach: 126.150
Buffalo Approach: 126.500
Buffalo Flight Service: 122.200
Buffalo Tower: 120.500
Emergency/Guard: 121.500

KBUR Gnd/Twr/App (Archives)
Burbank, California, United States

Feed Status: UP
Listen in your browser - HTML5 player(in browser, HTML5)
Click here to listen with your own player(launches your MP3 player)

KBUR 241412Z 00000KT 10SM OVC009 14/12 A2991 RMK AO2 T01440117 $

KBUR Airport Info (Airnav.com)

KBUR Flight Activity (Flightaware)

Listeners: 1 out of 1298 total

KBUR Ground: 123.900
KBUR Tower: 118.700
SOCAL Approach (Moorpark Sector): 128.750
SOCAL Approach (Valley Sector): 124.600
SOCAL Approach (Woodland Sector): 134.200

KBUR Ground/Tower
Burbank, California, United States

Feed Status: DOWN
Offline since: 2021-03-04 03:54:22 UTC

KBUR 241412Z 00000KT 10SM OVC009 14/12 A2991 RMK AO2 T01440117 $

KBUR Airport Info (Airnav.com)

KBUR Ground: 123.900
KBUR Tower: 118.700

KCAE Gnd/Twr/App (Archives)
Columbia, South Carolina, United States

Feed Status: UP
Listen in your browser - HTML5 player(in browser, HTML5)
Click here to listen with your own player(launches your MP3 player)

KCAE 241356Z 00000KT 10SM SCT200 SCT250 16/12 A3015 RMK AO2 SLP209 T01610117

KCAE Airport Info (Airnav.com)

KCAE Flight Activity (Flightaware)

Listeners: 0 out of 1298 total

Columbia Approach/Departure: 338.200
Columbia Approach/Departure: 285.600
Columbia Approach/Departure: 124.150
Columbia Approach/Departure: 133.400
Columbia Clearance Delivery: 119.750
Columbia Ground: 348.600
Columbia Ground: 121.900
Columbia Tower: 257.800
Columbia Tower: 119.500
Emergency/Guard: 121.500
Emergency/Guard: 243.000

KCAK App/Dep (Archives)
Akron, Ohio, United States

Feed Status: UP
Listen in your browser - HTML5 player(in browser, HTML5)
Click here to listen with your own player(launches your MP3 player)

KCAK 241351Z 16007KT 10SM OVC024 11/08 A3006 RMK AO2 SLP181 T01060078

KCAK Airport Info (Airnav.com)

KCAK Flight Activity (Flightaware)

Listeners: 0 out of 1298 total

Akron-Canton Approach (Final): 126.400
Akron-Canton Approach/Departure: 118.600
Akron-Canton Approach/Departure: 125.500
Akron-Canton Approach/Departure (backup): 127.050

KCAK Del/Gnd/Twr (Archives)
Akron, Ohio, United States

Feed Status: UP
Listen in your browser - HTML5 player(in browser, HTML5)
Click here to listen with your own player(launches your MP3 player)

KCAK 241351Z 16007KT 10SM OVC024 11/08 A3006 RMK AO2 SLP181 T01060078

KCAK Airport Info (Airnav.com)

KCAK Flight Activity (Flightaware)

Listeners: 0 out of 1298 total

Akron-Canton Clearance: 132.050
Akron-Canton Ground: 121.700
Akron-Canton Tower: 134.750
Emergency/Guard: 121.500

KCAK Del/Gnd/Twr/App (Archives)
Akron, Ohio, United States

Feed Status: UP
Listen in your browser - HTML5 player(in browser, HTML5)
Click here to listen with your own player(launches your MP3 player)

KCAK 241351Z 16007KT 10SM OVC024 11/08 A3006 RMK AO2 SLP181 T01060078

KCAK Airport Info (Airnav.com)

KCAK Flight Activity (Flightaware)

Listeners: 0 out of 1298 total

Akron-Canton Approach: 118.600
Akron-Canton Approach: 125.500
Akron-Canton Clearance: 132.050
Akron-Canton Departure: 126.400
Akron-Canton Ground: 121.700
Akron-Canton Tower: 134.750
Emergency/Guard: 121.500

KCHA Twr/App (Archives)
Chattanooga, Tennessee, United States

Feed Status: UP
Listen in your browser - HTML5 player(in browser, HTML5)
Click here to listen with your own player(launches your MP3 player)

KCHA 241419Z 00000KT 1/2SM FG BR VV002 12/11 A3014 RMK AO2 TWR VIS 3/4 FG VV002 T01170111 RVRNO

KCHA Airport Info (Airnav.com)

KCHA Flight Activity (Flightaware)

Listeners: 2 out of 1298 total

Chattanooga Approach/Departure: 119.200
Chattanooga Approach/Departure: 125.100
Chattanooga Tower: 118.300

KCHS Gnd/Twr/App (Archives)
Charleston, South Carolina, United States

Feed Status: UP
Listen in your browser - HTML5 player(in browser, HTML5)
Click here to listen with your own player(launches your MP3 player)

KCHS 241356Z 06007KT 10SM FEW200 SCT250 21/17 A3014 RMK AO2 SLP206 T02110167

KCHS Airport Info (Airnav.com)

KCHS Flight Activity (Flightaware)

Listeners: 0 out of 1298 total

Charleston Approach/Departure: 306.925
Charleston Approach/Departure: 120.700
Charleston Approach/Departure: 379.925
Charleston Approach/Departure: 119.300
Charleston Ground: 121.900
Charleston Ground: 348.600
Charleston Tower: 239.000
Charleston Tower: 126.000
Emergency/Guard: 121.500
Emergency/Guard: 243.000

KCID Del/Gnd/Twr/App
Cedar Rapids, Iowa, United States

Feed Status: DOWN
Offline since: 2021-07-12 14:52:05 UTC

KCID 241414Z 07014KT 4SM -RA BR OVC013 06/05 A2984 RMK AO2 P0001 T00560050

KCID Airport Info (Airnav.com)

Cedar Rapids Approach (North): 134.050
Cedar Rapids Approach (South): 119.700
Cedar Rapids Clearance Delivery: 125.450
Cedar Rapids Ground: 121.600
Cedar Rapids Tower: 118.700

KCID Gnd/Twr/App/KIOW (Archives)
Cedar Rapids, Iowa, United States

Feed Status: UP
Listen in your browser - HTML5 player(in browser, HTML5)
Click here to listen with your own player(launches your MP3 player)

KCID 241414Z 07014KT 4SM -RA BR OVC013 06/05 A2984 RMK AO2 P0001 T00560050

KCID Airport Info (Airnav.com)

KCID Flight Activity (Flightaware)

Listeners: 0 out of 1298 total

Cedar Rapids Approach (091-269): 119.700
Cedar Rapids Approach (270-090): 134.050
Cedar Rapids Clearance Delivery: 125.450
Cedar Rapids Ground (0500-2330): 121.600
Cedar Rapids Tower (0500-2330): 118.700
UNICOM C17 (Marion) and surrounding area: 122.700
UNICOM IA24 Green Castle: 122.900
UNICOM KIOW (Iowa City) and surrounding area: 122.800

KCMH App/Dep (Archives)
Columbus, Ohio, United States

Feed Status: UP
Listen in your browser - HTML5 player(in browser, HTML5)
Click here to listen with your own player(launches your MP3 player)

KCMH 241421Z 14005KT 10SM OVC008 12/11 A3004 RMK AO2 T01220106

KCMH Airport Info (Airnav.com)

KCMH Flight Activity (Flightaware)

Listeners: 2 out of 1298 total

Columbus Approach: 125.950
Columbus Approach: 134.000
Columbus Approach (Backup): 119.650
Columbus Approach (Backup): 118.200
Columbus Approach (Backup): 118.000
Columbus Approach (Backup): 132.300
Columbus Approach/Departure (North): 125.950

KCMH Ground (Archives)
Columbus, Ohio, United States

Feed Status: UP
Listen in your browser - HTML5 player(in browser, HTML5)
Click here to listen with your own player(launches your MP3 player)

KCMH 241421Z 14005KT 10SM OVC008 12/11 A3004 RMK AO2 T01220106

KCMH Airport Info (Airnav.com)

KCMH Flight Activity (Flightaware)

Listeners: 0 out of 1298 total

Columbus Clearance Delivery: 126.300
Columbus Ground: 121.900

KCMH Tower (Archives)
Columbus, Ohio, United States

Feed Status: UP
Listen in your browser - HTML5 player(in browser, HTML5)
Click here to listen with your own player(launches your MP3 player)

KCMH 241421Z 14005KT 10SM OVC008 12/11 A3004 RMK AO2 T01220106

KCMH Airport Info (Airnav.com)

KCMH Flight Activity (Flightaware)

Listeners: 0 out of 1298 total

Columbus Tower: 132.700
Columbus Tower: 257.800

KCMI App/Dep (Archives)
Champaign/Urbana, Illinois, United States

Feed Status: UP
Listen in your browser - HTML5 player(in browser, HTML5)
Click here to listen with your own player(launches your MP3 player)

KCMI 241419Z 08012KT 2SM R32R/5000VP6000FT RA BR BKN003 BKN045 OVC090 11/10 A2987 RMK AO2 TWR VIS 2 1/2 LTG DSNT SE-W P0006 T01060100 $

KCMI Airport Info (Airnav.com)

KCMI Flight Activity (Flightaware)

Listeners: 0 out of 1298 total

Champaign Approach/Departure: 121.350

KCMI Tower (Archives)
Champaign/Urbana, Illinois, United States

Feed Status: UP
Listen in your browser - HTML5 player(in browser, HTML5)
Click here to listen with your own player(launches your MP3 player)

KCMI 241419Z 08012KT 2SM R32R/5000VP6000FT RA BR BKN003 BKN045 OVC090 11/10 A2987 RMK AO2 TWR VIS 2 1/2 LTG DSNT SE-W P0006 T01060100 $

KCMI Airport Info (Airnav.com)

KCMI Flight Activity (Flightaware)

Listeners: 0 out of 1298 total

Champaign Tower: 120.400

KCOS Gnd/Twr/App/Dep (Archives)
Colorado Springs, Colorado, United States

Feed Status: UP
Listen in your browser - HTML5 player(in browser, HTML5)
Click here to listen with your own player(launches your MP3 player)

KCOS 241354Z 00000KT 10SM FEW085 FEW150 SCT220 07/M02 A2990 RMK AO2 SLP084 T00721022

KCOS Airport Info (Airnav.com)

KCOS Flight Activity (Flightaware)

Listeners: 0 out of 1298 total

Springs Approach/Departure: 120.600
Springs Approach/Departure (East): 124.000
Springs Ground: 121.700
Springs Tower: 119.900
Springs Tower (East): 133.150

KCRP App/Dep (Archives)
Corpus Christi, Texas, United States

Feed Status: UP
Listen in your browser - HTML5 player(in browser, HTML5)
Click here to listen with your own player(launches your MP3 player)

KCRP 241351Z 14004KT 6SM BR FEW003 FEW011 SCT024 SCT250 24/24 A2983 RMK AO2 SLP099 VIS SW 2 T02440244 $

KCRP Airport Info (Airnav.com)

KCRP Flight Activity (Flightaware)

Listeners: 1 out of 1298 total

Corpus Christi Approach: 120.900
Corpus Christi Approach: 124.800
Emergency/Guard: 121.500

KCRP Del/Gnd/Twr (Archives)
Corpus Christi, Texas, United States

Feed Status: UP
Listen in your browser - HTML5 player(in browser, HTML5)
Click here to listen with your own player(launches your MP3 player)

KCRP 241351Z 14004KT 6SM BR FEW003 FEW011 SCT024 SCT250 24/24 A2983 RMK AO2 SLP099 VIS SW 2 T02440244 $

KCRP Airport Info (Airnav.com)

KCRP Flight Activity (Flightaware)

Listeners: 0 out of 1298 total

Corpus Christi Clearance Delivery: 118.550
Corpus Christi Ground: 121.900
Corpus Christi Tower: 119.400

KCRW Tower/Approach (Archives)
Charleston, West Virginia, United States

Feed Status: UP
Listen in your browser - HTML5 player(in browser, HTML5)
Click here to listen with your own player(launches your MP3 player)

KCRW 241354Z COR 00000KT 10SM FEW085 14/11 A3007 RMK AO2 SLP180 T01440111

KCRW Airport Info (Airnav.com)

KCRW Flight Activity (Flightaware)

Listeners: 2 out of 1298 total

Charleston Approach/Departure: 128.500
Charleston Approach/Departure (North): 124.100
Charleston Approach/Departure (South): 119.200
Charleston Clearance Delivery: 118.550
Charleston Ground: 121.800
Charleston Tower: 125.700
Emergency/Guard: 121.500

KDAB App/Dep (Archives)
Daytona Beach, Florida, United States

Feed Status: UP
Listen in your browser - HTML5 player(in browser, HTML5)
Click here to listen with your own player(launches your MP3 player)

KDAB 241353Z 08007KT 10SM FEW025 FEW060 SCT160 BKN250 27/23 A3007 RMK AO2 SLP182 TCU DSNT NE E T02720228 $

KDAB Airport Info (Airnav.com)

KDAB Flight Activity (Flightaware)

Listeners: 0 out of 1298 total

Daytona Approach (East/Low): 123.900
Daytona Approach (North/High): 118.850
Daytona Approach (South/High): 127.075
Daytona Approach (West 8000-10000'): 125.725
Daytona Approach (West SFC-3500): 126.550
Daytona Approach/Departure (South): 125.350

KDAB App/Dep (All) (Archives)
Daytona Beach, Florida, United States

Feed Status: UP
Listen in your browser - HTML5 player(in browser, HTML5)
Click here to listen with your own player(launches your MP3 player)

KDAB 241353Z 08007KT 10SM FEW025 FEW060 SCT160 BKN250 27/23 A3007 RMK AO2 SLP182 TCU DSNT NE E T02720228 $

KDAB Airport Info (Airnav.com)

KDAB Flight Activity (Flightaware)

Listeners: 0 out of 1298 total

Daytona Approach (East/Low): 123.900
Daytona Approach (North/High): 118.850
Daytona Approach (North/Low): 125.800
Daytona Approach (South/High): 127.075
Daytona Approach (West 8000-10000'): 125.725
Daytona Approach (West SFC-3500): 126.550
Daytona Approach/Departure (South): 125.350

KDAB Approach (North/Low) (Archives)
Daytona Beach, Florida, United States

Feed Status: UP
Listen in your browser - HTML5 player(in browser, HTML5)
Click here to listen with your own player(launches your MP3 player)

KDAB 241353Z 08007KT 10SM FEW025 FEW060 SCT160 BKN250 27/23 A3007 RMK AO2 SLP182 TCU DSNT NE E T02720228 $

KDAB Airport Info (Airnav.com)

KDAB Flight Activity (Flightaware)

Listeners: 0 out of 1298 total

Daytona Approach (North/Low): 125.800

KDAB ATIS (Archives)
Daytona Beach, Florida, United States

Feed Status: UP
Listen in your browser - HTML5 player(in browser, HTML5)
Click here to listen with your own player(launches your MP3 player)

KDAB 241353Z 08007KT 10SM FEW025 FEW060 SCT160 BKN250 27/23 A3007 RMK AO2 SLP182 TCU DSNT NE E T02720228 $

KDAB Airport Info (Airnav.com)

KDAB Flight Activity (Flightaware)

Listeners: 0 out of 1298 total

Daytona Beach ATIS: 132.875

KDAB Clearance/Ground (Archives)
Daytona Beach, Florida, United States

Feed Status: UP
Listen in your browser - HTML5 player(in browser, HTML5)
Click here to listen with your own player(launches your MP3 player)

KDAB 241353Z 08007KT 10SM FEW025 FEW060 SCT160 BKN250 27/23 A3007 RMK AO2 SLP182 TCU DSNT NE E T02720228 $

KDAB Airport Info (Airnav.com)

KDAB Flight Activity (Flightaware)

Listeners: 0 out of 1298 total

Daytona Clearance: 119.300
Daytona Ground: 121.900

KDAB Ground/Tower (Archives)
Daytona Beach, Florida, United States

Feed Status: UP
Listen in your browser - HTML5 player(in browser, HTML5)
Click here to listen with your own player(launches your MP3 player)

KDAB 241353Z 08007KT 10SM FEW025 FEW060 SCT160 BKN250 27/23 A3007 RMK AO2 SLP182 TCU DSNT NE E T02720228 $

KDAB Airport Info (Airnav.com)

KDAB Flight Activity (Flightaware)

Listeners: 0 out of 1298 total

Daytona Ground: 121.900
Daytona Tower (Primary 7L/25R): 120.700
Daytona Tower (Secondary 7R/25L): 118.100

KDAB Tower (120.7) (Archives)
Daytona Beach, Florida, United States

Feed Status: UP
Listen in your browser - HTML5 player(in browser, HTML5)
Click here to listen with your own player(launches your MP3 player)

KDAB 241353Z 08007KT 10SM FEW025 FEW060 SCT160 BKN250 27/23 A3007 RMK AO2 SLP182 TCU DSNT NE E T02720228 $

KDAB Airport Info (Airnav.com)

KDAB Flight Activity (Flightaware)

Listeners: 2 out of 1298 total

Daytona Tower (Primary 7L/25R): 120.700

KDAB Tower (Both) (Archives)
Daytona Beach, Florida, United States

Feed Status: UP
Listen in your browser - HTML5 player(in browser, HTML5)
Click here to listen with your own player(launches your MP3 player)

KDAB 241353Z 08007KT 10SM FEW025 FEW060 SCT160 BKN250 27/23 A3007 RMK AO2 SLP182 TCU DSNT NE E T02720228 $

KDAB Airport Info (Airnav.com)

KDAB Flight Activity (Flightaware)

Listeners: 0 out of 1298 total

Daytona Tower (Primary 7L/25R): 120.700
Daytona Tower (Secondary 7R/25L): 118.100

KDAY Del/Gnd/Twr/App (Archives)
Dayton, Ohio, United States

Feed Status: UP
Listen in your browser - HTML5 player(in browser, HTML5)
Click here to listen with your own player(launches your MP3 player)

KDAY 241356Z 11006KT 7SM OVC006 12/09 A3004 RMK AO2 SLP171 T01220094 $

KDAY Airport Info (Airnav.com)

KDAY Flight Activity (Flightaware)

Listeners: 2 out of 1298 total

Aero Enroute Dayton: 129.200
Aero Enroute Dayton: 129.150
Aero Enroute Dayton: 131.025
Air-To-Air: 123.450
Air-to-Air: 122.750
Columbus Approach/Departure (Backup): 118.000
Columbus Approach/Departure (Backup): 370.875
Columbus Approach/Departure (Backup): 269.225
Columbus Approach/Departure (Backup): 127.225
Columbus Approach/Departure (Backup): 353.700
Columbus Approach/Departure (Northeast): 323.150
Columbus Approach/Departure (Northeast): 118.425
Columbus Approach/Departure (South Satellite): 327.125
Columbus Approach/Departure (South Satellite): 126.500
Columbus Approach/Departure (Southeast): 118.850
Columbus Approach/Departure (Southeast): 269.275
Columbus Approach/Departure (West): 305.200
Columbus Approach/Departure (West): 134.450
Dayton Clearance Delivery: 121.750
Dayton Ground: 121.900
Dayton Heli-to-Heli: 123.025
Dayton Tower: 257.700
Dayton Tower: 119.900
Emergency/Guard: 243.000
Emergency/Guard: 121.500
UNICOM: 122.950

KDMA/KTUS Twr/Ops/ZAB (Archives)
Tucson, Arizona, United States

Feed Status: UP
Listen in your browser - HTML5 player(in browser, HTML5)
Click here to listen with your own player(launches your MP3 player)

KTUS 241353Z 15008KT 10SM CLR 13/06 A2995 RMK AO2 SLP111 T01330056

KTUS Airport Info (Airnav.com)

KTUS Flight Activity (Flightaware)

Listeners: 3 out of 1298 total

357FS Ops: 139.725
358FS Ops: 138.500
Albuquerque Center (Sector 47 Silver City/Low/UHF): 327.150
Albuquerque Center (Sector 90 San Simon/High/UHF): 281.500
AWACS: 364.200
BigFoot: 234.800
BigFoot: 271.000
Davis-Monthan AFB: 253.500
Tucson 162FW SOS IOPS: 392.200
Tucson Tower (UHF): 257.800

KTUS Del/Gnd/Twr/App/KDMA (Archives)
Tucson, Arizona, United States

Feed Status: UP
Listen in your browser - HTML5 player(in browser, HTML5)
Click here to listen with your own player(launches your MP3 player)

KTUS 241353Z 15008KT 10SM CLR 13/06 A2995 RMK AO2 SLP111 T01330056

KTUS Airport Info (Airnav.com)

KTUS Flight Activity (Flightaware)

Listeners: 2 out of 1298 total

KDMA Tower: 118.850
Tucson Approach (alt): 128.500
Tucson Approach (East/South): 125.100
Tucson Approach (North): 119.400
Tucson Approach (Practice Areas): 125.900
Tucson Clearance Delivery: 126.650
Tucson Ground: 124.400
Tucson Tower: 118.300
Tucson Tower (alt): 119.000

KDSM Twr/App (Archives)
Des Moines, Iowa, United States

Feed Status: UP
Listen in your browser - HTML5 player(in browser, HTML5)
Click here to listen with your own player(launches your MP3 player)

KDSM 241427Z 08006KT 3SM RA BR OVC005 07/06 A2979 RMK AO2 P0011 T00670056

KDSM Airport Info (Airnav.com)

KDSM Flight Activity (Flightaware)

Listeners: 0 out of 1298 total

Des Moines Approach/Departure: 118.600
Des Moines Approach/Departure: 123.900
Des Moines Approach/Departure: 135.200
Des Moines Tower: 118.300

KELP App/Dep (North) (Archives)
El Paso, Texas, United States

Feed Status: UP
Listen in your browser - HTML5 player(in browser, HTML5)
Click here to listen with your own player(launches your MP3 player)

KELP 241351Z 15006KT 10SM FEW180 14/M01 A2999 RMK AO2 SLP101 T01441011

KELP Airport Info (Airnav.com)

KELP Flight Activity (Flightaware)

Listeners: 0 out of 1298 total

El Paso Approach/Departure (North): 124.250

KELP Approach (Archives)
El Paso, Texas, United States

Feed Status: UP
Listen in your browser - HTML5 player(in browser, HTML5)
Click here to listen with your own player(launches your MP3 player)

KELP 241351Z 15006KT 10SM FEW180 14/M01 A2999 RMK AO2 SLP101 T01441011

KELP Airport Info (Airnav.com)

KELP Flight Activity (Flightaware)

Listeners: 0 out of 1298 total

El Paso Approach/Departure: 119.150

KELP Gnd/Twr/App/Dep (Archives)
El Paso, Texas, United States

Feed Status: UP
Listen in your browser - HTML5 player(in browser, HTML5)
Click here to listen with your own player(launches your MP3 player)

KELP 241351Z 15006KT 10SM FEW180 14/M01 A2999 RMK AO2 SLP101 T01441011

KELP Airport Info (Airnav.com)

KELP Flight Activity (Flightaware)

Listeners: 0 out of 1298 total

El Paso Approach/Departure: 119.150
El Paso Approach/Departure: 124.250
El Paso Ground: 121.900
El Paso Tower: 118.300
El Paso Tower: 126.050

KELP Ground (Archives)
El Paso, Texas, United States

Feed Status: UP
Listen in your browser - HTML5 player(in browser, HTML5)
Click here to listen with your own player(launches your MP3 player)

KELP 241351Z 15006KT 10SM FEW180 14/M01 A2999 RMK AO2 SLP101 T01441011

KELP Airport Info (Airnav.com)

KELP Flight Activity (Flightaware)

Listeners: 0 out of 1298 total

El Paso Ground: 121.900

KELP Tower (Archives)
El Paso, Texas, United States

Feed Status: UP
Listen in your browser - HTML5 player(in browser, HTML5)
Click here to listen with your own player(launches your MP3 player)

KELP 241351Z 15006KT 10SM FEW180 14/M01 A2999 RMK AO2 SLP101 T01441011

KELP Airport Info (Airnav.com)

KELP Flight Activity (Flightaware)

Listeners: 1 out of 1298 total

El Paso Tower: 118.300

KFAT App/Dep (Archives)
Fresno, California, United States

Feed Status: UP
Listen in your browser - HTML5 player(in browser, HTML5)
Click here to listen with your own player(launches your MP3 player)

KFAT 241353Z 11012KT 10SM OVC070 16/08 A2986 RMK AO2 SLP109 T01610078

KFAT Airport Info (Airnav.com)

KFAT Flight Activity (Flightaware)

Listeners: 0 out of 1298 total

Fresno Approach/Departure: 118.500
Fresno Approach/Departure: 132.350
Fresno Approach/Departure (IFR pickup KFCH): 119.000
Fresno Approach/Departure (North): 119.600

KFAT ATIS (Archives)
Fresno, California, United States

Feed Status: UP
Listen in your browser - HTML5 player(in browser, HTML5)
Click here to listen with your own player(launches your MP3 player)

KFAT 241353Z 11012KT 10SM OVC070 16/08 A2986 RMK AO2 SLP109 T01610078

KFAT Airport Info (Airnav.com)

KFAT Flight Activity (Flightaware)

Listeners: 0 out of 1298 total

Fresno ATIS: 121.350

KFAT Del/Gnd/Twr (Archives)
Fresno, California, United States

Feed Status: UP
Listen in your browser - HTML5 player(in browser, HTML5)
Click here to listen with your own player(launches your MP3 player)

KFAT 241353Z 11012KT 10SM OVC070 16/08 A2986 RMK AO2 SLP109 T01610078

KFAT Airport Info (Airnav.com)

KFAT Flight Activity (Flightaware)

Listeners: 0 out of 1298 total

Fresno Clearance Delivery: 124.350
Fresno Ground: 121.700
Fresno Ground (UHF): 348.600
Fresno Tower: 118.200
Fresno Tower (backup): 128.100
Fresno Tower (UHF): 251.100

KFAT Del/Gnd/Twr/App (Archives)
Fresno, California, United States

Feed Status: UP
Listen in your browser - HTML5 player(in browser, HTML5)
Click here to listen with your own player(launches your MP3 player)

KFAT 241353Z 11012KT 10SM OVC070 16/08 A2986 RMK AO2 SLP109 T01610078

KFAT Airport Info (Airnav.com)

KFAT Flight Activity (Flightaware)

Listeners: 0 out of 1298 total

Fresno Approach/Departure: 132.350
Fresno Approach/Departure: 118.500
Fresno Approach/Departure (IFR pickup KFCH): 119.000
Fresno Approach/Departure (North): 119.600
Fresno Clearance Delivery: 124.350
Fresno Ground: 121.700
Fresno Ground (UHF): 348.600
Fresno Tower: 118.200
Fresno Tower (backup): 128.100
Fresno Tower (UHF): 251.100

KFAY App/Dep (Archives)
Fayetteville, North Carolina, United States

Feed Status: UP
Listen in your browser - HTML5 player(in browser, HTML5)
Click here to listen with your own player(launches your MP3 player)

KFAY 241353Z 00000KT 10SM CLR 18/12 A3017 RMK AO2 SLP212 T01780117

KFAY Airport Info (Airnav.com)

KFAY Flight Activity (Flightaware)

Listeners: 0 out of 1298 total

Fayetteville Approach/Departure (North): 125.175
Fayetteville Approach/Departure (South): 133.000
Fayetteville Approach/Departure (Spare): 127.800

KFAY ATIS (Archives)
Fayetteville, North Carolina, United States

Feed Status: UP
Listen in your browser - HTML5 player(in browser, HTML5)
Click here to listen with your own player(launches your MP3 player)

KFAY 241353Z 00000KT 10SM CLR 18/12 A3017 RMK AO2 SLP212 T01780117

KFAY Airport Info (Airnav.com)

KFAY Flight Activity (Flightaware)

Listeners: 0 out of 1298 total

Fayetteville ATIS: 121.250

KFAY Emergency/Guard (Archives)
Fayetteville, North Carolina, United States

Feed Status: UP
Listen in your browser - HTML5 player(in browser, HTML5)
Click here to listen with your own player(launches your MP3 player)

KFAY 241353Z 00000KT 10SM CLR 18/12 A3017 RMK AO2 SLP212 T01780117

KFAY Airport Info (Airnav.com)

KFAY Flight Activity (Flightaware)

Listeners: 0 out of 1298 total

Emergency/Guard: 121.500

KFAY Ground (Archives)
Fayetteville, North Carolina, United States

Feed Status: UP
Listen in your browser - HTML5 player(in browser, HTML5)
Click here to listen with your own player(launches your MP3 player)

KFAY 241353Z 00000KT 10SM CLR 18/12 A3017 RMK AO2 SLP212 T01780117

KFAY Airport Info (Airnav.com)

KFAY Flight Activity (Flightaware)

Listeners: 0 out of 1298 total

Fayetteville Ground: 121.700

KFAY Tower (Archives)
Fayetteville, North Carolina, United States

Feed Status: UP
Listen in your browser - HTML5 player(in browser, HTML5)
Click here to listen with your own player(launches your MP3 player)

KFAY 241353Z 00000KT 10SM CLR 18/12 A3017 RMK AO2 SLP212 T01780117

KFAY Airport Info (Airnav.com)

KFAY Flight Activity (Flightaware)

Listeners: 0 out of 1298 total

Fayetteville Tower: 118.300

KFLL App (Final) (Archives)
Fort Lauderdale, Florida, United States

Feed Status: UP
Listen in your browser - HTML5 player(in browser, HTML5)
Click here to listen with your own player(launches your MP3 player)

KFLL 241353Z 12006KT 8SM -RA SCT020 BKN046 OVC100 27/27 A3001

KFLL Airport Info (Airnav.com)

KFLL Flight Activity (Flightaware)

Listeners: 0 out of 1298 total

Miami Approach (KFLL Final): 133.725

KFLL ATIS (Archives)
Fort Lauderdale, Florida, United States

Feed Status: UP
Listen in your browser - HTML5 player(in browser, HTML5)
Click here to listen with your own player(launches your MP3 player)

KFLL 241353Z 12006KT 8SM -RA SCT020 BKN046 OVC100 27/27 A3001

KFLL Airport Info (Airnav.com)

KFLL Flight Activity (Flightaware)

Listeners: 0 out of 1298 total

KFLL ATIS: 135.000

KFLL Clearance Delivery (Archives)
Fort Lauderdale, Florida, United States

Feed Status: UP
Listen in your browser - HTML5 player(in browser, HTML5)
Click here to listen with your own player(launches your MP3 player)

KFLL 241353Z 12006KT 8SM -RA SCT020 BKN046 OVC100 27/27 A3001

KFLL Airport Info (Airnav.com)

KFLL Flight Activity (Flightaware)

Listeners: 0 out of 1298 total

KFLL Clearance Delivery: 128.400

KFLL Departure (Archives)
Fort Lauderdale, Florida, United States

Feed Status: UP
Listen in your browser - HTML5 player(in browser, HTML5)
Click here to listen with your own player(launches your MP3 player)

KMIA 241353Z 04004KT 10SM FEW030 SCT050 BKN220 OVC250 28/24 A3002 RMK AO2 SLP164 T02830244 $

KMIA Airport Info (Airnav.com)

KMIA Flight Activity (Flightaware)

Listeners: 0 out of 1298 total

Miami Departure (FLL): 126.050

KFLL Ground (Archives)
Fort Lauderdale, Florida, United States

Feed Status: UP
Listen in your browser - HTML5 player(in browser, HTML5)
Click here to listen with your own player(launches your MP3 player)

KFLL 241353Z 12006KT 8SM -RA SCT020 BKN046 OVC100 27/27 A3001

KFLL Airport Info (Airnav.com)

KFLL Flight Activity (Flightaware)

Listeners: 0 out of 1298 total

KFLL Ground: 121.700
KFLL Ground: 121.400

KFLL Ground (Main) (Archives)
Fort Lauderdale, Florida, United States

Feed Status: UP
Listen in your browser - HTML5 player(in browser, HTML5)
Click here to listen with your own player(launches your MP3 player)

KFLL 241353Z 12006KT 8SM -RA SCT020 BKN046 OVC100 27/27 A3001

KFLL Airport Info (Airnav.com)

KFLL Flight Activity (Flightaware)

Listeners: 0 out of 1298 total

KFLL Ground: 121.400

KFLL Ground (Secondary) (Archives)
Fort Lauderdale, Florida, United States

Feed Status: UP
Listen in your browser - HTML5 player(in browser, HTML5)
Click here to listen with your own player(launches your MP3 player)

KFLL 241353Z 12006KT 8SM -RA SCT020 BKN046 OVC100 27/27 A3001

KFLL Airport Info (Airnav.com)

KFLL Flight Activity (Flightaware)

Listeners: 0 out of 1298 total

KFLL Ground: 121.700

KFLL Ramp (Archives)
Fort Lauderdale, Florida, United States

Feed Status: UP
Listen in your browser - HTML5 player(in browser, HTML5)
Click here to listen with your own player(launches your MP3 player)

KFLL 241353Z 12006KT 8SM -RA SCT020 BKN046 OVC100 27/27 A3001

KFLL Airport Info (Airnav.com)

KFLL Flight Activity (Flightaware)

Listeners: 0 out of 1298 total

Fort Lauderdale Ramp (North): 118.175
Fort Lauderdale Ramp (South): 129.875

KFLL Tower (Archives)
Fort Lauderdale, Florida, United States

Feed Status: UP
Listen in your browser - HTML5 player(in browser, HTML5)
Click here to listen with your own player(launches your MP3 player)

KFLL 241353Z 12006KT 8SM -RA SCT020 BKN046 OVC100 27/27 A3001

KFLL Airport Info (Airnav.com)

KFLL Flight Activity (Flightaware)

Listeners: 0 out of 1298 total

KFLL Tower (Rwy 10LR/28RL): 119.300
KFLL Tower (Secondary): 120.200

KFLL Tower (Main) (Archives)
Fort Lauderdale, Florida, United States

Feed Status: UP
Listen in your browser - HTML5 player(in browser, HTML5)
Click here to listen with your own player(launches your MP3 player)

KFLL 241353Z 12006KT 8SM -RA SCT020 BKN046 OVC100 27/27 A3001

KFLL Airport Info (Airnav.com)

KFLL Flight Activity (Flightaware)

Listeners: 0 out of 1298 total

KFLL Tower (Rwy 10LR/28RL): 119.300

KFLL Tower (Secondary) (Archives)
Fort Lauderdale, Florida, United States

Feed Status: UP
Listen in your browser - HTML5 player(in browser, HTML5)
Click here to listen with your own player(launches your MP3 player)

KFLL 241353Z 12006KT 8SM -RA SCT020 BKN046 OVC100 27/27 A3001

KFLL Airport Info (Airnav.com)

KFLL Flight Activity (Flightaware)

Listeners: 0 out of 1298 total

KFLL Tower (Secondary): 120.200

KFNT App/Dep (Archives)
Flint, Michigan, United States

Feed Status: UP
Listen in your browser - HTML5 player(in browser, HTML5)
Click here to listen with your own player(launches your MP3 player)

KFNT 241423Z 00000KT 1/8SM R09/2000V2400FT FG VV002 06/04 A3008 RMK AO2 T00610044

KFNT Airport Info (Airnav.com)

KFNT Flight Activity (Flightaware)

Listeners: 1 out of 1298 total

Great Lakes Approach: 118.800

KFNT Tower (Archives)
Flint, Michigan, United States

Feed Status: UP
Listen in your browser - HTML5 player(in browser, HTML5)
Click here to listen with your own player(launches your MP3 player)

KFNT 241423Z 00000KT 1/8SM R09/2000V2400FT FG VV002 06/04 A3008 RMK AO2 T00610044

KFNT Airport Info (Airnav.com)

KFNT Flight Activity (Flightaware)

Listeners: 1 out of 1298 total

Flint Tower: 126.300

KFWA App/Dep (Archives)
Fort Wayne, Indiana, United States

Feed Status: UP
Listen in your browser - HTML5 player(in browser, HTML5)
Click here to listen with your own player(launches your MP3 player)

KFWA 241354Z 08004KT 10SM OVC022 08/05 A3003 RMK AO2 SLP175 T00830050 $

KFWA Airport Info (Airnav.com)

KFWA Flight Activity (Flightaware)

Listeners: 2 out of 1298 total

Fort Wayne Approach/Departure: 127.200
Fort Wayne Approach/Departure: 132.150
Fort Wayne Approach/Departure: 135.325

KFWA ATIS (Archives)
Fort Wayne, Indiana, United States

Feed Status: UP
Listen in your browser - HTML5 player(in browser, HTML5)
Click here to listen with your own player(launches your MP3 player)

KFWA 241354Z 08004KT 10SM OVC022 08/05 A3003 RMK AO2 SLP175 T00830050 $

KFWA Airport Info (Airnav.com)

KFWA Flight Activity (Flightaware)

Listeners: 1 out of 1298 total

Fort Wayne ATIS: 121.250

KFWA Del/Ground (Archives)
Fort Wayne, Indiana, United States

Feed Status: UP
Listen in your browser - HTML5 player(in browser, HTML5)
Click here to listen with your own player(launches your MP3 player)

KFWA 241354Z 08004KT 10SM OVC022 08/05 A3003 RMK AO2 SLP175 T00830050 $

KFWA Airport Info (Airnav.com)

KFWA Flight Activity (Flightaware)

Listeners: 0 out of 1298 total

Fort Wayne Clearance Delivery: 124.750
Fort Wayne Ground: 121.900

KFWA Emergency/Guard (Archives)
Fort Wayne, Indiana, United States

Feed Status: UP
Listen in your browser - HTML5 player(in browser, HTML5)
Click here to listen with your own player(launches your MP3 player)

KFWA 241354Z 08004KT 10SM OVC022 08/05 A3003 RMK AO2 SLP175 T00830050 $

KFWA Airport Info (Airnav.com)

KFWA Flight Activity (Flightaware)

Listeners: 0 out of 1298 total

Emergency/Guard: 121.500

KFWA Tower (Archives)
Fort Wayne, Indiana, United States

Feed Status: UP
Listen in your browser - HTML5 player(in browser, HTML5)
Click here to listen with your own player(launches your MP3 player)

KFWA 241354Z 08004KT 10SM OVC022 08/05 A3003 RMK AO2 SLP175 T00830050 $

KFWA Airport Info (Airnav.com)

KFWA Flight Activity (Flightaware)

Listeners: 1 out of 1298 total

Fort Wayne Tower: 119.100

KGEG Del/Gnd/Twr/App
Spokane, Washington, United States

Feed Status: DOWN
Offline since: 2021-10-24 03:14:05 UTC

KGEG 241353Z 06006KT 10SM FEW025 FEW055 FEW090 BKN180 06/04 A2953 RMK AO2 SLP004 T00610044

KGEG Airport Info (Airnav.com)

Air to Air: 123.950
Emergency/Guard: 121.500
Seattle Handoff: 126.100
Spokane Approach/Departure: 123.750
Spokane Approach/Departure: 133.350
Spokane Clearance Delivery: 127.550
Spokane Ground: 121.900
Spokane Tower: 118.300

KGRB Del/Gnd/Twr/App (Archives)
Green Bay, Wisconsin, United States

Feed Status: UP
Listen in your browser - HTML5 player(in browser, HTML5)
Click here to listen with your own player(launches your MP3 player)

KGRB 241353Z 36004KT 10SM CLR 05/02 A3005 RMK AO2 SLP182 T00500017

KGRB Airport Info (Airnav.com)

KGRB Flight Activity (Flightaware)

Listeners: 3 out of 1298 total

Emergency/Guard: 243.000
Emergency/Guard: 121.500
Green Bay Approach/Departure: 126.300
Green Bay Approach/Departure: 119.250
Green Bay Approach/Departure: 119.400
Green Bay Approach/Departure: 338.200
Green Bay Approach/Departure (ZMP): 370.900
Green Bay Approach/Departure (ZMP): 125.550
Green Bay Clearance Delivery: 121.750
Green Bay Departure: 126.550
Green Bay Flight Service Station: 122.750
Green Bay Ground: 121.900
Green Bay Radio: 122.500
Green Bay Radio: 122.250
Green Bay Tower: 257.800
Green Bay Tower: 118.700

KGRR App/Dep (Archives)
Grand Rapids, Michigan, United States

Feed Status: UP
Listen in your browser - HTML5 player(in browser, HTML5)
Click here to listen with your own player(launches your MP3 player)

KGRR 241353Z 09004KT 9SM FEW001 FEW120 BKN200 03/03 A3006 RMK AO2 SLP185 T00280028

KGRR Airport Info (Airnav.com)

KGRR Flight Activity (Flightaware)

Listeners: 0 out of 1298 total

Grand Rapids Approach (North): 124.600
Grand Rapids Approach (South): 128.400

KGRR App/Dep (North) (Archives)
Grand Rapids, Michigan, United States

Feed Status: UP
Listen in your browser - HTML5 player(in browser, HTML5)
Click here to listen with your own player(launches your MP3 player)

KGRR 241353Z 09004KT 9SM FEW001 FEW120 BKN200 03/03 A3006 RMK AO2 SLP185 T00280028

KGRR Airport Info (Airnav.com)

KGRR Flight Activity (Flightaware)

Listeners: 0 out of 1298 total

Grand Rapids Approach (North): 124.600

KGRR App/Dep (South) (Archives)
Grand Rapids, Michigan, United States

Feed Status: UP
Listen in your browser - HTML5 player(in browser, HTML5)
Click here to listen with your own player(launches your MP3 player)

KGRR 241353Z 09004KT 9SM FEW001 FEW120 BKN200 03/03 A3006 RMK AO2 SLP185 T00280028

KGRR Airport Info (Airnav.com)

KGRR Flight Activity (Flightaware)

Listeners: 0 out of 1298 total

Grand Rapids Approach (South): 128.400

KGRR Clearance Delivery (Archives)
Grand Rapids, Michigan, United States

Feed Status: UP
Listen in your browser - HTML5 player(in browser, HTML5)
Click here to listen with your own player(launches your MP3 player)

KGRR 241353Z 09004KT 9SM FEW001 FEW120 BKN200 03/03 A3006 RMK AO2 SLP185 T00280028

KGRR Airport Info (Airnav.com)

KGRR Flight Activity (Flightaware)

Listeners: 0 out of 1298 total

Grand Rapids Clearance Delivery: 119.300

KGRR Del/Gnd/Twr (Archives)
Grand Rapids, Michigan, United States

Feed Status: UP
Listen in your browser - HTML5 player(in browser, HTML5)
Click here to listen with your own player(launches your MP3 player)

KGRR 241353Z 09004KT 9SM FEW001 FEW120 BKN200 03/03 A3006 RMK AO2 SLP185 T00280028

KGRR Airport Info (Airnav.com)

KGRR Flight Activity (Flightaware)

Listeners: 0 out of 1298 total

Grand Rapids Clearance Delivery: 119.300
Grand Rapids Ground: 121.800
Grand Rapids Tower: 135.650

KGRR Del/Gnd/Twr/App (Archives)
Grand Rapids, Michigan, United States

Feed Status: UP
Listen in your browser - HTML5 player(in browser, HTML5)
Click here to listen with your own player(launches your MP3 player)

KGRR 241353Z 09004KT 9SM FEW001 FEW120 BKN200 03/03 A3006 RMK AO2 SLP185 T00280028

KGRR Airport Info (Airnav.com)

KGRR Flight Activity (Flightaware)

Listeners: 1 out of 1298 total

Grand Rapids Approach (North): 124.600
Grand Rapids Approach (South): 128.400
Grand Rapids Clearance Delivery: 119.300
Grand Rapids Ground: 121.800
Grand Rapids Tower: 135.650

KGRR Emergency/Guard (Archives)
Grand Rapids, Michigan, United States

Feed Status: UP
Listen in your browser - HTML5 player(in browser, HTML5)
Click here to listen with your own player(launches your MP3 player)

KGRR 241353Z 09004KT 9SM FEW001 FEW120 BKN200 03/03 A3006 RMK AO2 SLP185 T00280028

KGRR Airport Info (Airnav.com)

KGRR Flight Activity (Flightaware)

Listeners: 0 out of 1298 total

Emergency/Guard: 121.500

KGRR Gnd/Twr/App (Archives)
Grand Rapids, Michigan, United States

Feed Status: UP
Listen in your browser - HTML5 player(in browser, HTML5)
Click here to listen with your own player(launches your MP3 player)

KGRR 241353Z 09004KT 9SM FEW001 FEW120 BKN200 03/03 A3006 RMK AO2 SLP185 T00280028

KGRR Airport Info (Airnav.com)

KGRR Flight Activity (Flightaware)

Listeners: 0 out of 1298 total

Grand Rapids Approach (North): 124.600
Grand Rapids Approach (South): 128.400
Grand Rapids Ground: 121.800
Grand Rapids Tower: 135.650

KGRR Ground (Archives)
Grand Rapids, Michigan, United States

Feed Status: UP
Listen in your browser - HTML5 player(in browser, HTML5)
Click here to listen with your own player(launches your MP3 player)

KGRR 241353Z 09004KT 9SM FEW001 FEW120 BKN200 03/03 A3006 RMK AO2 SLP185 T00280028

KGRR Airport Info (Airnav.com)

KGRR Flight Activity (Flightaware)

Listeners: 0 out of 1298 total

Grand Rapids Ground: 121.800

KGRR Tower (Archives)
Grand Rapids, Michigan, United States

Feed Status: UP
Listen in your browser - HTML5 player(in browser, HTML5)
Click here to listen with your own player(launches your MP3 player)

KGRR 241353Z 09004KT 9SM FEW001 FEW120 BKN200 03/03 A3006 RMK AO2 SLP185 T00280028

KGRR Airport Info (Airnav.com)

KGRR Flight Activity (Flightaware)

Listeners: 0 out of 1298 total

Grand Rapids Tower: 135.650

KGSO Approach/Departure (Archives)
Greensboro, North Carolina, United States

Feed Status: UP
Listen in your browser - HTML5 player(in browser, HTML5)
Click here to listen with your own player(launches your MP3 player)

KGSO 241354Z 19005KT 10SM FEW250 16/11 A3018 RMK AO2 SLP215 T01560111

KGSO Airport Info (Airnav.com)

KGSO Flight Activity (Flightaware)

Listeners: 0 out of 1298 total

Greensboro Approach/Departure (South): 126.600
Greensboro Approach/Departure (West): 124.350

KGSO Approach/Departure (South) (Archives)
Greensboro, North Carolina, United States

Feed Status: UP
Listen in your browser - HTML5 player(in browser, HTML5)
Click here to listen with your own player(launches your MP3 player)

KGSO 241354Z 19005KT 10SM FEW250 16/11 A3018 RMK AO2 SLP215 T01560111

KGSO Airport Info (Airnav.com)

KGSO Flight Activity (Flightaware)

Listeners: 0 out of 1298 total

Greensboro Approach/Departure (South): 126.600

KGSO Approach/Departure (West) (Archives)
Greensboro, North Carolina, United States

Feed Status: UP
Listen in your browser - HTML5 player(in browser, HTML5)
Click here to listen with your own player(launches your MP3 player)

KGSO 241354Z 19005KT 10SM FEW250 16/11 A3018 RMK AO2 SLP215 T01560111

KGSO Airport Info (Airnav.com)

KGSO Flight Activity (Flightaware)

Listeners: 0 out of 1298 total

Greensboro Approach/Departure (West): 124.350

KGSO ATIS (Archives)
Greensboro, North Carolina, United States

Feed Status: UP
Listen in your browser - HTML5 player(in browser, HTML5)
Click here to listen with your own player(launches your MP3 player)

KGSO 241354Z 19005KT 10SM FEW250 16/11 A3018 RMK AO2 SLP215 T01560111

KGSO Airport Info (Airnav.com)

KGSO Flight Activity (Flightaware)

Listeners: 0 out of 1298 total

Greensboro ATIS: 128.550

KGSO Del/Gnd (Archives)
Greensboro, North Carolina, United States

Feed Status: UP
Listen in your browser - HTML5 player(in browser, HTML5)
Click here to listen with your own player(launches your MP3 player)

KGSO 241354Z 19005KT 10SM FEW250 16/11 A3018 RMK AO2 SLP215 T01560111

KGSO Airport Info (Airnav.com)

KGSO Flight Activity (Flightaware)

Listeners: 0 out of 1298 total

Greensboro Clearance Delivery: 121.750
Greensboro Ground: 121.900

KGSO Tower (Archives)
Greensboro, North Carolina, United States

Feed Status: UP
Listen in your browser - HTML5 player(in browser, HTML5)
Click here to listen with your own player(launches your MP3 player)

KGSO 241354Z 19005KT 10SM FEW250 16/11 A3018 RMK AO2 SLP215 T01560111

KGSO Airport Info (Airnav.com)

KGSO Flight Activity (Flightaware)

Listeners: 1 out of 1298 total

Greensboro Tower: 119.100

KGSP App/Dep (East) (Archives)
Greer, South Carolina, United States

Feed Status: UP
Listen in your browser - HTML5 player(in browser, HTML5)
Click here to listen with your own player(launches your MP3 player)

KGMU 241353Z 36004KT 10SM CLR 17/12 A3018 RMK AO2 SLP214 T01670117

KGMU Airport Info (Airnav.com)

KGMU Flight Activity (Flightaware)

Listeners: 0 out of 1298 total

Greer Approach (East): 119.400

KGSP App/Dep (West) (Archives)
Greer, South Carolina, United States

Feed Status: UP
Listen in your browser - HTML5 player(in browser, HTML5)
Click here to listen with your own player(launches your MP3 player)

KGMU 241353Z 36004KT 10SM CLR 17/12 A3018 RMK AO2 SLP214 T01670117

KGMU Airport Info (Airnav.com)

KGMU Flight Activity (Flightaware)

Listeners: 0 out of 1298 total

Greer Approach (West): 118.800

KGSP ATIS (Archives)
Greer, South Carolina, United States

Feed Status: UP
Listen in your browser - HTML5 player(in browser, HTML5)
Click here to listen with your own player(launches your MP3 player)

KGMU 241353Z 36004KT 10SM CLR 17/12 A3018 RMK AO2 SLP214 T01670117

KGMU Airport Info (Airnav.com)

KGMU Flight Activity (Flightaware)

Listeners: 0 out of 1298 total

Greer ATIS: 134.250

KGSP Tower (Archives)
Greer, South Carolina, United States

Feed Status: UP
Listen in your browser - HTML5 player(in browser, HTML5)
Click here to listen with your own player(launches your MP3 player)

KGMU 241353Z 36004KT 10SM CLR 17/12 A3018 RMK AO2 SLP214 T01670117

KGMU Airport Info (Airnav.com)

KGMU Flight Activity (Flightaware)

Listeners: 0 out of 1298 total

Greer Tower: 120.100

KHSV App/Dep (Archives)
Huntsville, Alabama, United States

Feed Status: UP
Listen in your browser - HTML5 player(in browser, HTML5)
Click here to listen with your own player(launches your MP3 player)

KHSV 241353Z 13005KT 10SM BKN250 16/13 A3008 RMK AO2 SLP183 T01610133

KHSV Airport Info (Airnav.com)

KHSV Flight Activity (Flightaware)

Listeners: 0 out of 1298 total

Huntsville Approach (180-359): 118.050
Huntsville Approach (360-179): 125.600
Huntsville Approach (ASR): 118.750

KHSV ATIS (Archives)
Huntsville, Alabama, United States

Feed Status: UP
Listen in your browser - HTML5 player(in browser, HTML5)
Click here to listen with your own player(launches your MP3 player)

KHSV 241353Z 13005KT 10SM BKN250 16/13 A3008 RMK AO2 SLP183 T01610133

KHSV Airport Info (Airnav.com)

KHSV Flight Activity (Flightaware)

Listeners: 0 out of 1298 total

Huntsville ATIS: 121.250

KHSV Del/Gnd (Archives)
Huntsville, Alabama, United States

Feed Status: UP
Listen in your browser - HTML5 player(in browser, HTML5)
Click here to listen with your own player(launches your MP3 player)

KHSV 241353Z 13005KT 10SM BKN250 16/13 A3008 RMK AO2 SLP183 T01610133

KHSV Airport Info (Airnav.com)

KHSV Flight Activity (Flightaware)

Listeners: 0 out of 1298 total

Huntsville Clearance: 120.350
Huntsville Ground: 121.900

KHSV Gnd/Twr (Archives)
Huntsville, Alabama, United States

Feed Status: UP
Listen in your browser - HTML5 player(in browser, HTML5)
Click here to listen with your own player(launches your MP3 player)

KHSV 241353Z 13005KT 10SM BKN250 16/13 A3008 RMK AO2 SLP183 T01610133

KHSV Airport Info (Airnav.com)

KHSV Flight Activity (Flightaware)

Listeners: 0 out of 1298 total

Huntsville Ground: 121.900
Huntsville Tower: 127.600

KHSV Gnd/Twr/App/Dep (Archives)
Huntsville, Alabama, United States

Feed Status: UP
Listen in your browser - HTML5 player(in browser, HTML5)
Click here to listen with your own player(launches your MP3 player)

KHSV 241353Z 13005KT 10SM BKN250 16/13 A3008 RMK AO2 SLP183 T01610133

KHSV Airport Info (Airnav.com)

KHSV Flight Activity (Flightaware)

Listeners: 0 out of 1298 total

Huntsville Approach (180-359): 118.050
Huntsville Approach (360-179): 125.600
Huntsville Approach (ASR): 118.750
Huntsville Ground: 121.900
Huntsville Tower: 127.600

KHTO CTAF/Tower (Archives)
East Hampton, New York, United States

Feed Status: UP
Listen in your browser - HTML5 player(in browser, HTML5)
Click here to listen with your own player(launches your MP3 player)

KHTO 241415Z AUTO 01007KT 10SM CLR 12/04 A3018 RMK AO2 T01170037

KHTO Airport Info (Airnav.com)

KHTO Flight Activity (Flightaware)

Listeners: 0 out of 1298 total

East Hampton CTAF/Tower: 125.225

KBTR/KHZR/L38 Del/Gnd/Twr/App/CTAF (Archives)
New Roads, Louisiana, United States

Feed Status: UP
Listen in your browser - HTML5 player(in browser, HTML5)
Click here to listen with your own player(launches your MP3 player)

KBTR 241353Z 10007KT 10SM CLR 23/22 A2995 RMK AO2 SLP142 T02280217

KBTR Airport Info (Airnav.com)

KBTR Flight Activity (Flightaware)

Listeners: 0 out of 1298 total

Baton Rouge Approach/Departure (East): 126.500
Baton Rouge Approach/Departure (Military): 278.300
Baton Rouge Approach/Departure (West): 120.300
Baton Rouge Clearance Delivery: 119.400
Baton Rouge Ground: 121.900
Baton Rouge Tower (Military): 257.800
Baton Rouge Tower/CTAF: 118.450
Baton Rouge UNICOM: 122.950
Houston Center (App/Dep when Approach closed): 338.250
Houston Center (App/Dep when Approach closed): 126.350
Louisiana Regional L38 CTAF: 123.000
United Airlines: 129.925

KICT App/Dep (All) (Archives)
Wichita, Kansas, United States

Feed Status: UP
Listen in your browser - HTML5 player(in browser, HTML5)
Click here to listen with your own player(launches your MP3 player)

KICT 241353Z 21016G26KT 10SM SCT035 BKN120 20/17 A2958 RMK AO2 PK WND 20028/1330 SLP004 CB E DSNT E MOV NE T02000172

KICT Airport Info (Airnav.com)

KICT Flight Activity (Flightaware)

Listeners: 0 out of 1298 total

Wichita Approach: 125.500
Wichita Approach (East): 134.850
Wichita Approach (West): 126.700

KICT Approach (East) (Archives)
Wichita, Kansas, United States

Feed Status: UP
Listen in your browser - HTML5 player(in browser, HTML5)
Click here to listen with your own player(launches your MP3 player)

KICT 241353Z 21016G26KT 10SM SCT035 BKN120 20/17 A2958 RMK AO2 PK WND 20028/1330 SLP004 CB E DSNT E MOV NE T02000172

KICT Airport Info (Airnav.com)

KICT Flight Activity (Flightaware)

Listeners: 0 out of 1298 total

Wichita Approach (East): 134.850

KICT Approach (West) (Archives)
Wichita, Kansas, United States

Feed Status: UP
Listen in your browser - HTML5 player(in browser, HTML5)
Click here to listen with your own player(launches your MP3 player)

KICT 241353Z 21016G26KT 10SM SCT035 BKN120 20/17 A2958 RMK AO2 PK WND 20028/1330 SLP004 CB E DSNT E MOV NE T02000172

KICT Airport Info (Airnav.com)

KICT Flight Activity (Flightaware)

Listeners: 0 out of 1298 total

Wichita Approach (West): 126.700

KICT Approach 125.5 (Archives)
Wichita, Kansas, United States

Feed Status: UP
Listen in your browser - HTML5 player(in browser, HTML5)
Click here to listen with your own player(launches your MP3 player)

KICT 241353Z 21016G26KT 10SM SCT035 BKN120 20/17 A2958 RMK AO2 PK WND 20028/1330 SLP004 CB E DSNT E MOV NE T02000172

KICT Airport Info (Airnav.com)

KICT Flight Activity (Flightaware)

Listeners: 0 out of 1298 total

Wichita Approach: 125.500

KICT ATIS (Archives)
Wichita, Kansas, United States

Feed Status: UP
Listen in your browser - HTML5 player(in browser, HTML5)
Click here to listen with your own player(launches your MP3 player)

KICT 241353Z 21016G26KT 10SM SCT035 BKN120 20/17 A2958 RMK AO2 PK WND 20028/1330 SLP004 CB E DSNT E MOV NE T02000172

KICT Airport Info (Airnav.com)

KICT Flight Activity (Flightaware)

Listeners: 0 out of 1298 total

Wichita ATIS: 125.150

KICT Ground/Tower (Archives)
Wichita, Kansas, United States

Feed Status: UP
Listen in your browser - HTML5 player(in browser, HTML5)
Click here to listen with your own player(launches your MP3 player)

KICT 241353Z 21016G26KT 10SM SCT035 BKN120 20/17 A2958 RMK AO2 PK WND 20028/1330 SLP004 CB E DSNT E MOV NE T02000172

KICT Airport Info (Airnav.com)

KICT Flight Activity (Flightaware)

Listeners: 0 out of 1298 total

Wichita Ground: 121.900
Wichita Tower: 118.200

KIND App/Dep
Indianapolis, Indiana, United States

Feed Status: DOWN
Offline since: 2021-10-21 21:40:05 UTC

KIND 241354Z 14007KT 5SM -RA BR BKN006 OVC080 12/12 A2992 RMK AO2 SLP132 P0005 T01220117

KIND Airport Info (Airnav.com)

Indy Approach: 121.100
Indy Approach (East): 127.150
Indy Approach (IC): 128.175
Indy Approach (West): 124.650
Indy Departure (East): 124.950
Indy Departure (West): 119.050

KIND ATIS
Indianapolis, Indiana, United States

Feed Status: DOWN
Offline since: 2021-09-28 21:35:38 UTC

KIND 241354Z 14007KT 5SM -RA BR BKN006 OVC080 12/12 A2992 RMK AO2 SLP132 P0005 T01220117

KIND Airport Info (Airnav.com)

Indianapolis ATIS: 134.250

KIND Tower (Archives)
Indianapolis, Indiana, United States

Feed Status: UP
Listen in your browser - HTML5 player(in browser, HTML5)
Click here to listen with your own player(launches your MP3 player)

KIND 241354Z 14007KT 5SM -RA BR BKN006 OVC080 12/12 A2992 RMK AO2 SLP132 P0005 T01220117

KIND Airport Info (Airnav.com)

KIND Flight Activity (Flightaware)

Listeners: 1 out of 1298 total

Indianapolis Tower (Primary): 120.900

KCID Gnd/Twr/App/KIOW (Archives)
Iowa City, Iowa, United States

Feed Status: UP
Listen in your browser - HTML5 player(in browser, HTML5)
Click here to listen with your own player(launches your MP3 player)

KCID 241414Z 07014KT 4SM -RA BR OVC013 06/05 A2984 RMK AO2 P0001 T00560050

KCID Airport Info (Airnav.com)

KCID Flight Activity (Flightaware)

Listeners: 0 out of 1298 total

Cedar Rapids Approach (091-269): 119.700
Cedar Rapids Approach (270-090): 134.050
Cedar Rapids Clearance Delivery: 125.450
Cedar Rapids Ground (0500-2330): 121.600
Cedar Rapids Tower (0500-2330): 118.700
UNICOM C17 (Marion) and surrounding area: 122.700
UNICOM IA24 Green Castle: 122.900
UNICOM KIOW (Iowa City) and surrounding area: 122.800

KIPT Gnd/Twr/ZNY (Archives)
Williamsport, Pennsylvania, United States

Feed Status: UP
Listen in your browser - HTML5 player(in browser, HTML5)
Click here to listen with your own player(launches your MP3 player)

KIPT 241427Z 09004KT 2 1/2SM BR OVC002 07/06 A3015 RMK AO2 T00670061

KIPT Airport Info (Airnav.com)

KIPT Flight Activity (Flightaware)

Listeners: 1 out of 1298 total

New York Center (Sector 91 Williamsport Low): 124.900
Williamsport Ground: 121.900
Williamsport Tower: 119.100

KISP (NY Approach) (Archives)
Islip, New York, United States

Feed Status: UP
Listen in your browser - HTML5 player(in browser, HTML5)
Click here to listen with your own player(launches your MP3 player)

KISP 241356Z 32003KT 10SM FEW040 SCT250 12/07 A3019 RMK AO2 SLP222 T01220072

KISP Airport Info (Airnav.com)

KISP Flight Activity (Flightaware)

Listeners: 0 out of 1298 total

New York Approach/Departure (Islip): 120.050

KISP Tower (Archives)
Islip, New York, United States

Feed Status: UP
Listen in your browser - HTML5 player(in browser, HTML5)
Click here to listen with your own player(launches your MP3 player)

KISP 241356Z 32003KT 10SM FEW040 SCT250 12/07 A3019 RMK AO2 SLP222 T01220072

KISP Airport Info (Airnav.com)

KISP Flight Activity (Flightaware)

Listeners: 3 out of 1298 total

Islip Tower: 119.300

KJAN Gnd/Twr/App/Dep (Archives)
Jackson, Mississippi, United States

Feed Status: UP
Listen in your browser - HTML5 player(in browser, HTML5)
Click here to listen with your own player(launches your MP3 player)

KJAN 241354Z 15007KT 10SM FEW030 BKN250 20/18 A3000 RMK AO2 SLP156 T02000183

KJAN Airport Info (Airnav.com)

KJAN Flight Activity (Flightaware)

Listeners: 0 out of 1298 total

Jackson Approach/Departure: 123.900
Jackson Approach/Departure: 125.250
Jackson Ground: 121.700
Jackson Tower: 120.900

KJAX Approach/Departure (Archives)
Jacksonville, Florida, United States

Feed Status: UP
Listen in your browser - HTML5 player(in browser, HTML5)
Click here to listen with your own player(launches your MP3 player)

KJAX 241356Z 04006KT 10SM FEW200 BKN250 23/18 A3010 RMK AO2 SLP194 T02280183

KJAX Airport Info (Airnav.com)

KJAX Flight Activity (Flightaware)

Listeners: 2 out of 1298 total

Jacksonville Approach/Departure: 127.000
Jacksonville Approach/Departure: 124.900
Jacksonville Approach/Departure: 123.800
Jacksonville Approach/Departure: 120.750
Jacksonville Approach/Departure: 118.000
Jacksonville Approach/Departure: 119.000
Jacksonville Approach/Departure: 127.775
Jacksonville Approach/Departure: 132.775

KJAX ATIS (Archives)
Jacksonville, Florida, United States

Feed Status: UP
Listen in your browser - HTML5 player(in browser, HTML5)
Click here to listen with your own player(launches your MP3 player)

KJAX 241356Z 04006KT 10SM FEW200 BKN250 23/18 A3010 RMK AO2 SLP194 T02280183

KJAX Airport Info (Airnav.com)

KJAX Flight Activity (Flightaware)

Listeners: 0 out of 1298 total

Jacksonville D-ATIS: 125.850

KJAX Gnd/Twr (Archives)
Jacksonville, Florida, United States

Feed Status: UP
Listen in your browser - HTML5 player(in browser, HTML5)
Click here to listen with your own player(launches your MP3 player)

KJAX 241356Z 04006KT 10SM FEW200 BKN250 23/18 A3010 RMK AO2 SLP194 T02280183

KJAX Airport Info (Airnav.com)

KJAX Flight Activity (Flightaware)

Listeners: 0 out of 1298 total

Jacksonville Ground: 121.900
Jacksonville Tower: 118.300

KLAN Del/Gnd/Twr/App (Archives)
Lansing, Michigan, United States

Feed Status: UP
Listen in your browser - HTML5 player(in browser, HTML5)
Click here to listen with your own player(launches your MP3 player)

KLAN 241421Z 00000KT 1/2SM R28L/2200V3500FT FG VV002 04/03 A3007 RMK AO2 T00390033

KLAN Airport Info (Airnav.com)

KLAN Flight Activity (Flightaware)

Listeners: 0 out of 1298 total

CTAF/UNICOM (K60G): 122.900
CTAF/UNICOM (KTEW/4D0): 122.700
Emergency/Guard: 121.500
Great Lakes Approach: 127.300
Great Lakes Approach/Departure (North): 133.475
Great Lakes Approach/Departure (South): 118.650
Lansing Clearance Delivery: 123.675
Lansing Ground: 121.900
Lansing Tower: 119.900
Lansing UNICOM: 122.950

KLBB Gnd/Twr/App (Archives)
Lubbock, Texas, United States

Feed Status: UP
Listen in your browser - HTML5 player(in browser, HTML5)
Click here to listen with your own player(launches your MP3 player)

KLBB 241353Z 24009KT 10SM FEW210 SCT260 15/01 A2986 RMK AO2 SLP069 T01500006

KLBB Airport Info (Airnav.com)

KLBB Flight Activity (Flightaware)

Listeners: 0 out of 1298 total

Emergency/Guard: 121.500
Hub City Aviation: 123.500
Lubbock Approach/Departure: 119.200
Lubbock Ground: 121.900
Lubbock Tower: 120.500

KLNK Approach (Archives)
Lincoln, Nebraska, United States

Feed Status: UP
Listen in your browser - HTML5 player(in browser, HTML5)
Click here to listen with your own player(launches your MP3 player)

KLNK 241427Z 06009KT 1 1/4SM R36/4500VP6000FT +TSRA BR OVC004 09/08 A2967 RMK AO2 LTG DSNT N-SE RAB01 TSB1357 P0002 T00890078

KLNK Airport Info (Airnav.com)

KLNK Flight Activity (Flightaware)

Listeners: 0 out of 1298 total

Lincoln Approach: 124.000

KLNK ATIS (Archives)
Lincoln, Nebraska, United States

Feed Status: UP
Listen in your browser - HTML5 player(in browser, HTML5)
Click here to listen with your own player(launches your MP3 player)

KLNK 241427Z 06009KT 1 1/4SM R36/4500VP6000FT +TSRA BR OVC004 09/08 A2967 RMK AO2 LTG DSNT N-SE RAB01 TSB1357 P0002 T00890078

KLNK Airport Info (Airnav.com)

KLNK Flight Activity (Flightaware)

Listeners: 0 out of 1298 total

Lincoln ATIS: 118.050

KLNK Ground (Archives)
Lincoln, Nebraska, United States

Feed Status: UP
Listen in your browser - HTML5 player(in browser, HTML5)
Click here to listen with your own player(launches your MP3 player)

KLNK 241427Z 06009KT 1 1/4SM R36/4500VP6000FT +TSRA BR OVC004 09/08 A2967 RMK AO2 LTG DSNT N-SE RAB01 TSB1357 P0002 T00890078

KLNK Airport Info (Airnav.com)

KLNK Flight Activity (Flightaware)

Listeners: 0 out of 1298 total

Lincoln Ground: 121.900

KLNK Twr/App (Archives)
Lincoln, Nebraska, United States

Feed Status: UP
Listen in your browser - HTML5 player(in browser, HTML5)
Click here to listen with your own player(launches your MP3 player)

KLNK 241427Z 06009KT 1 1/4SM R36/4500VP6000FT +TSRA BR OVC004 09/08 A2967 RMK AO2 LTG DSNT N-SE RAB01 TSB1357 P0002 T00890078

KLNK Airport Info (Airnav.com)

KLNK Flight Activity (Flightaware)

Listeners: 0 out of 1298 total

Lincoln Approach: 124.000
Lincoln Tower: 118.500

Emergency/Guard (Archives)
Midland, Texas, United States

Feed Status: UP
Listen in your browser - HTML5 player(in browser, HTML5)
Click here to listen with your own player(launches your MP3 player)

KMAF 241353Z 23007KT 10SM CLR 17/15 A2989 RMK AO2 SLP086 T01720150

KMAF Airport Info (Airnav.com)

KMAF Flight Activity (Flightaware)

Listeners: 0 out of 1298 total

Emergency/Guard: 121.500

KMAF App/Dep (North) (Archives)
Midland, Texas, United States

Feed Status: UP
Listen in your browser - HTML5 player(in browser, HTML5)
Click here to listen with your own player(launches your MP3 player)

KMAF 241353Z 23007KT 10SM CLR 17/15 A2989 RMK AO2 SLP086 T01720150

KMAF Airport Info (Airnav.com)

KMAF Flight Activity (Flightaware)

Listeners: 0 out of 1298 total

Midland Approach/Departure: 124.600

KMAF App/Dep (North/South) (Archives)
Midland, Texas, United States

Feed Status: UP
Listen in your browser - HTML5 player(in browser, HTML5)
Click here to listen with your own player(launches your MP3 player)

KMAF 241353Z 23007KT 10SM CLR 17/15 A2989 RMK AO2 SLP086 T01720150

KMAF Airport Info (Airnav.com)

KMAF Flight Activity (Flightaware)

Listeners: 0 out of 1298 total

Midland Approach/Departure: 121.100
Midland Approach/Departure: 124.600

KMAF App/Dep (South) (Archives)
Midland, Texas, United States

Feed Status: UP
Listen in your browser - HTML5 player(in browser, HTML5)
Click here to listen with your own player(launches your MP3 player)

KMAF 241353Z 23007KT 10SM CLR 17/15 A2989 RMK AO2 SLP086 T01720150

KMAF Airport Info (Airnav.com)

KMAF Flight Activity (Flightaware)

Listeners: 0 out of 1298 total

Midland Approach/Departure: 121.100

KMAF ATIS (Archives)
Midland, Texas, United States

Feed Status: UP
Listen in your browser - HTML5 player(in browser, HTML5)
Click here to listen with your own player(launches your MP3 player)

KMAF 241353Z 23007KT 10SM CLR 17/15 A2989 RMK AO2 SLP086 T01720150

KMAF Airport Info (Airnav.com)

KMAF Flight Activity (Flightaware)

Listeners: 0 out of 1298 total

Midland ATIS: 126.800

KMAF Clearance Delivery (Archives)
Midland, Texas, United States

Feed Status: UP
Listen in your browser - HTML5 player(in browser, HTML5)
Click here to listen with your own player(launches your MP3 player)

KMAF 241353Z 23007KT 10SM CLR 17/15 A2989 RMK AO2 SLP086 T01720150

KMAF Airport Info (Airnav.com)

KMAF Flight Activity (Flightaware)

Listeners: 0 out of 1298 total

Midland Clearance Delivery: 118.050

KMAF Del/Gnd (Archives)
Midland, Texas, United States

Feed Status: UP
Listen in your browser - HTML5 player(in browser, HTML5)
Click here to listen with your own player(launches your MP3 player)

KMAF 241353Z 23007KT 10SM CLR 17/15 A2989 RMK AO2 SLP086 T01720150

KMAF Airport Info (Airnav.com)

KMAF Flight Activity (Flightaware)

Listeners: 0 out of 1298 total

Midland Clearance Delivery: 118.050
Midland Ground: 121.900

KMAF Ground (Archives)
Midland, Texas, United States

Feed Status: UP
Listen in your browser - HTML5 player(in browser, HTML5)
Click here to listen with your own player(launches your MP3 player)

KMAF 241353Z 23007KT 10SM CLR 17/15 A2989 RMK AO2 SLP086 T01720150

KMAF Airport Info (Airnav.com)

KMAF Flight Activity (Flightaware)

Listeners: 0 out of 1298 total

Midland Ground: 121.900

KMAF Tower (Archives)
Midland, Texas, United States

Feed Status: UP
Listen in your browser - HTML5 player(in browser, HTML5)
Click here to listen with your own player(launches your MP3 player)

KMAF 241353Z 23007KT 10SM CLR 17/15 A2989 RMK AO2 SLP086 T01720150

KMAF Airport Info (Airnav.com)

KMAF Flight Activity (Flightaware)

Listeners: 0 out of 1298 total

Midland Tower: 118.700

KMDW App/Dep (Archives)
Chicago, Illinois, United States

Feed Status: UP
Listen in your browser - HTML5 player(in browser, HTML5)
Click here to listen with your own player(launches your MP3 player)

KORD 241351Z 13003KT 10SM -RA FEW030 SCT042 BKN055 OVC130 08/05 A2997 RMK AO2 RAB34 SLP152 P0000 T00830050 $

KORD Airport Info (Airnav.com)

KORD Flight Activity (Flightaware)

Listeners: 0 out of 1298 total

Chicago Approach/Departure (South Satellite Sector 1): 128.200
Chicago Approach/Departure (South Satellite Sector 2): 119.350

KMDW ATIS (Archives)
Chicago, Illinois, United States

Feed Status: UP
Listen in your browser - HTML5 player(in browser, HTML5)
Click here to listen with your own player(launches your MP3 player)

KMDW 241353Z 14007KT 10SM -RA FEW030 BKN055 BKN090 BKN140 09/02 A2999 RMK AO2 RAB48 SLP158 P0000 T00890017 $

KMDW Airport Info (Airnav.com)

KMDW Flight Activity (Flightaware)

Listeners: 0 out of 1298 total

Midway ATIS: 132.750

KMDW Clearance/Metering (Archives)
Chicago, Illinois, United States

Feed Status: UP
Listen in your browser - HTML5 player(in browser, HTML5)
Click here to listen with your own player(launches your MP3 player)

KMDW 241353Z 14007KT 10SM -RA FEW030 BKN055 BKN090 BKN140 09/02 A2999 RMK AO2 RAB48 SLP158 P0000 T00890017 $

KMDW Airport Info (Airnav.com)

KMDW Flight Activity (Flightaware)

Listeners: 0 out of 1298 total

Midway Clearance Delivery/Metering: 124.625

KMDW Ground (Archives)
Chicago, Illinois, United States

Feed Status: UP
Listen in your browser - HTML5 player(in browser, HTML5)
Click here to listen with your own player(launches your MP3 player)

KMDW 241353Z 14007KT 10SM -RA FEW030 BKN055 BKN090 BKN140 09/02 A2999 RMK AO2 RAB48 SLP158 P0000 T00890017 $

KMDW Airport Info (Airnav.com)

KMDW Flight Activity (Flightaware)

Listeners: 0 out of 1298 total

Midway Ground: 121.650

KMDW Tower (Archives)
Chicago, Illinois, United States

Feed Status: UP
Listen in your browser - HTML5 player(in browser, HTML5)
Click here to listen with your own player(launches your MP3 player)

KMDW 241353Z 14007KT 10SM -RA FEW030 BKN055 BKN090 BKN140 09/02 A2999 RMK AO2 RAB48 SLP158 P0000 T00890017 $

KMDW Airport Info (Airnav.com)

KMDW Flight Activity (Flightaware)

Listeners: 1 out of 1298 total

Midway Tower: 135.200

KMGY App/Dep (Archives)
Dayton, Ohio, United States

Feed Status: UP
Listen in your browser - HTML5 player(in browser, HTML5)
Click here to listen with your own player(launches your MP3 player)

KMGY 241417Z AUTO 16004KT 2 1/2SM RA BR FEW047 BKN065 OVC080 13/11 A3001 RMK AO2 RAB00 P0004 T01280111

KMGY Airport Info (Airnav.com)

KMGY Flight Activity (Flightaware)

Listeners: 0 out of 1298 total

Dayton Approach/Departure: 118.850

NORCAL App (EXPO/127.4) (Archives)
Sacramento, California, United States

Feed Status: UP
Listen in your browser - HTML5 player(in browser, HTML5)
Click here to listen with your own player(launches your MP3 player)

KMHR 241415Z AUTO 14027G33KT 5SM BR FEW028 OVC036 13/11 A2962 RMK A01

KMHR Airport Info (Airnav.com)

KMHR Flight Activity (Flightaware)

Listeners: 0 out of 1298 total

NORCAL Approach (EXPO Sector): 127.400

KMHT App/Dep (Fitzy Sector) (Archives)
Manchester, New Hampshire, United States

Feed Status: UP
Listen in your browser - HTML5 player(in browser, HTML5)
Click here to listen with your own player(launches your MP3 player)

KMHT 241353Z 32011G15KT 10SM CLR 08/M03 A3013 RMK AO2 SLP216 T00831033

KMHT Airport Info (Airnav.com)

KMHT Flight Activity (Flightaware)

Listeners: 0 out of 1298 total

Boston Approach (Fitzy Sector): 124.900

KMHT ATIS (Archives)
Manchester, New Hampshire, United States

Feed Status: UP
Listen in your browser - HTML5 player(in browser, HTML5)
Click here to listen with your own player(launches your MP3 player)

KMHT 241353Z 32011G15KT 10SM CLR 08/M03 A3013 RMK AO2 SLP216 T00831033

KMHT Airport Info (Airnav.com)

KMHT Flight Activity (Flightaware)

Listeners: 0 out of 1298 total

Manchester ATIS: 119.550

KMHT Boston App/Dep #1 (Archives)
Manchester, New Hampshire, United States

Feed Status: UP
Listen in your browser - HTML5 player(in browser, HTML5)
Click here to listen with your own player(launches your MP3 player)

KMHT 241353Z 32011G15KT 10SM CLR 08/M03 A3013 RMK AO2 SLP216 T00831033

KMHT Airport Info (Airnav.com)

KMHT Flight Activity (Flightaware)

Listeners: 0 out of 1298 total

Boston Approach (backup): 125.825
Boston Approach (Fitzy Sector): 124.900
Boston Approach (MHT/West Sector): 134.750
Boston Approach (Tommy Sector): 127.350

KMHT Boston App/Dep #2 (Archives)
Manchester, New Hampshire, United States

Feed Status: UP
Listen in your browser - HTML5 player(in browser, HTML5)
Click here to listen with your own player(launches your MP3 player)

KMHT 241353Z 32011G15KT 10SM CLR 08/M03 A3013 RMK AO2 SLP216 T00831033

KMHT Airport Info (Airnav.com)

KMHT Flight Activity (Flightaware)

Listeners: 0 out of 1298 total

Boston Approach (Fitzy Sector): 124.900
Boston Approach (MHT/West Sector): 134.750
Boston Approach (Tommy Sector): 127.350

KMHT Boston App/Dep #3 (Archives)
Manchester, New Hampshire, United States

Feed Status: UP
Listen in your browser - HTML5 player(in browser, HTML5)
Click here to listen with your own player(launches your MP3 player)

KASH 241356Z 31007KT 10SM CLR 08/M02 A3016 RMK AO2 SLP217 T00831017

KASH Airport Info (Airnav.com)

KASH Flight Activity (Flightaware)

Listeners: 0 out of 1298 total

Boston Approach (Fitzy Sector): 124.900

KMHT Del/Gnd/Twr (Archives)
Manchester, New Hampshire, United States

Feed Status: UP
Listen in your browser - HTML5 player(in browser, HTML5)
Click here to listen with your own player(launches your MP3 player)

KMHT 241353Z 32011G15KT 10SM CLR 08/M03 A3013 RMK AO2 SLP216 T00831033

KMHT Airport Info (Airnav.com)

KMHT Flight Activity (Flightaware)

Listeners: 0 out of 1298 total

Airport Response 01: 158.730
Airport Response 02: 158.340
Airport Response 03: 159.720
Manchester Clearance Delivery: 135.900
Manchester Ground: 121.900
Manchester Tower: 121.300

KMHT Del/Gnd/Twr/App (Archives)
Manchester, New Hampshire, United States

Feed Status: UP
Listen in your browser - HTML5 player(in browser, HTML5)
Click here to listen with your own player(launches your MP3 player)

KMHT 241353Z 32011G15KT 10SM CLR 08/M03 A3013 RMK AO2 SLP216 T00831033

KMHT Airport Info (Airnav.com)

KMHT Flight Activity (Flightaware)

Listeners: 0 out of 1298 total

Airport Response 01: 158.730
Airport Response 02: 158.340
Airport Response 03: 159.720
Boston Approach (backup): 125.825
Boston Approach (Fitzy Sector): 124.900
Boston Approach (MHT/West Sector): 134.750
Emergency/Guard: 121.500
Manchester Clearance Delivery: 135.900
Manchester Ground: 121.900
Manchester Tower: 121.300

KMHT Tower #1 (Archives)
Manchester, New Hampshire, United States

Feed Status: UP
Listen in your browser - HTML5 player(in browser, HTML5)
Click here to listen with your own player(launches your MP3 player)

KMHT 241353Z 32011G15KT 10SM CLR 08/M03 A3013 RMK AO2 SLP216 T00831033

KMHT Airport Info (Airnav.com)

KMHT Flight Activity (Flightaware)

Listeners: 0 out of 1298 total

Manchester Tower: 121.300

KMHT Tower #2 (Archives)
Manchester, New Hampshire, United States

Feed Status: UP
Listen in your browser - HTML5 player(in browser, HTML5)
Click here to listen with your own player(launches your MP3 player)

KMHT 241353Z 32011G15KT 10SM CLR 08/M03 A3013 RMK AO2 SLP216 T00831033

KMHT Airport Info (Airnav.com)

KMHT Flight Activity (Flightaware)

Listeners: 0 out of 1298 total

Manchester Tower: 121.300

KMHT Tower #3 (Archives)
Manchester, New Hampshire, United States

Feed Status: UP
Listen in your browser - HTML5 player(in browser, HTML5)
Click here to listen with your own player(launches your MP3 player)

KMHT 241353Z 32011G15KT 10SM CLR 08/M03 A3013 RMK AO2 SLP216 T00831033

KMHT Airport Info (Airnav.com)

KMHT Flight Activity (Flightaware)

Listeners: 0 out of 1298 total

Manchester Tower: 121.300

KMKE Approach/Departure (Archives)
Milwaukee, Wisconsin, United States

Feed Status: UP
Listen in your browser - HTML5 player(in browser, HTML5)
Click here to listen with your own player(launches your MP3 player)

KMKE 241352Z 00000KT 10SM FEW035 BKN200 OVC250 07/02 A3001 RMK AO2 SLP167 T00670017

KMKE Airport Info (Airnav.com)

KMKE Flight Activity (Flightaware)

Listeners: 0 out of 1298 total

Milwaukee Approach: 118.000
Milwaukee Approach: 125.350
Milwaukee Approach: 126.500

KMKE Ground (Archives)
Milwaukee, Wisconsin, United States

Feed Status: UP
Listen in your browser - HTML5 player(in browser, HTML5)
Click here to listen with your own player(launches your MP3 player)

KMKE 241352Z 00000KT 10SM FEW035 BKN200 OVC250 07/02 A3001 RMK AO2 SLP167 T00670017

KMKE Airport Info (Airnav.com)

KMKE Flight Activity (Flightaware)

Listeners: 0 out of 1298 total

Milwaukee Ground: 121.800
Muskegon Ground: 121.600
Timmerman Ground: 121.700

KMKE Tower (Archives)
Milwaukee, Wisconsin, United States

Feed Status: UP
Listen in your browser - HTML5 player(in browser, HTML5)
Click here to listen with your own player(launches your MP3 player)

KMKE 241352Z 00000KT 10SM FEW035 BKN200 OVC250 07/02 A3001 RMK AO2 SLP167 T00670017

KMKE Airport Info (Airnav.com)

KMKE Flight Activity (Flightaware)

Listeners: 0 out of 1298 total

Milwaukee Tower: 124.575

KMLI Del/Gnd/Twr/App (Archives)
Moline, Illinois, United States

Feed Status: UP
Listen in your browser - HTML5 player(in browser, HTML5)
Click here to listen with your own player(launches your MP3 player)

KMLI 241416Z 09011KT 5SM +RA BR BKN013 OVC018 07/06 A2988 RMK AO2 P0006 T00720061

KMLI Airport Info (Airnav.com)

KMLI Flight Activity (Flightaware)

Listeners: 1 out of 1298 total

Quad City Approach (N/NE): 125.950
Quad City Approach (S/SE): 133.275
Quad City Clearance: 124.050
Quad City Ground: 121.900
Quad City Tower: 119.400

KMOB Gnd/Twr/App
Mobile, Alabama, United States

Feed Status: DOWN
Offline since: 2021-10-23 13:55:05 UTC

KMOB 241356Z 07004KT 6SM BR FEW032 BKN180 19/17 A3004 RMK AO2 SLP170 T01890167

KMOB Airport Info (Airnav.com)

Mobile Approach/Departure East (320-139): 118.500
Mobile Approach/Departure West (140-319): 121.000
Mobile Clearance Delivery: 119.850
Mobile Ground: 121.900
Mobile Tower: 118.300

KMRY App/Dep (Archives)
Monterey, California, United States

Feed Status: UP
Listen in your browser - HTML5 player(in browser, HTML5)
Click here to listen with your own player(launches your MP3 player)

KMRY 241354Z 16011G18KT 10SM SCT039 OVC048 18/14 A2977 RMK AO2 SLP090 T01830139

KMRY Airport Info (Airnav.com)

KMRY Flight Activity (Flightaware)

Listeners: 0 out of 1298 total

NORCAL Approach (Fremont Sector/Monterey West): 133.000
NORCAL Approach (Seca Sector/Monterey East): 127.150

KMRY ATIS (Archives)
Monterey, California, United States

Feed Status: UP
Listen in your browser - HTML5 player(in browser, HTML5)
Click here to listen with your own player(launches your MP3 player)

KMRY 241354Z 16011G18KT 10SM SCT039 OVC048 18/14 A2977 RMK AO2 SLP090 T01830139

KMRY Airport Info (Airnav.com)

KMRY Flight Activity (Flightaware)

Listeners: 0 out of 1298 total

Monterey ATIS: 119.250

KMRY Del/Gnd/Twr (Archives)
Monterey, California, United States

Feed Status: UP
Listen in your browser - HTML5 player(in browser, HTML5)
Click here to listen with your own player(launches your MP3 player)

KMRY 241354Z 16011G18KT 10SM SCT039 OVC048 18/14 A2977 RMK AO2 SLP090 T01830139

KMRY Airport Info (Airnav.com)

KMRY Flight Activity (Flightaware)

Listeners: 4 out of 1298 total

Monterey Clearance Delivery: 135.450
Monterey Ground: 120.875
Monterey Tower: 118.400

KMSN Approach/Departure (Archives)
Madison, Wisconsin, United States

Feed Status: UP
Listen in your browser - HTML5 player(in browser, HTML5)
Click here to listen with your own player(launches your MP3 player)

KMSN 241353Z 00000KT 10SM FEW170 BKN200 04/02 A3000 RMK AO2 SLP165 T00440017

KMSN Airport Info (Airnav.com)

KMSN Flight Activity (Flightaware)

Listeners: 0 out of 1298 total

Madison Approach/Departure: 120.100
Madison Approach/Departure: 135.450

KMSN ATIS (Archives)
Madison, Wisconsin, United States

Feed Status: UP
Listen in your browser - HTML5 player(in browser, HTML5)
Click here to listen with your own player(launches your MP3 player)

KMSN 241353Z 00000KT 10SM FEW170 BKN200 04/02 A3000 RMK AO2 SLP165 T00440017

KMSN Airport Info (Airnav.com)

KMSN Flight Activity (Flightaware)

Listeners: 0 out of 1298 total

Madison ATIS: 124.650

KMSN Clearance Delivery (Archives)
Madison, Wisconsin, United States

Feed Status: UP
Listen in your browser - HTML5 player(in browser, HTML5)
Click here to listen with your own player(launches your MP3 player)

KMSN 241353Z 00000KT 10SM FEW170 BKN200 04/02 A3000 RMK AO2 SLP165 T00440017

KMSN Airport Info (Airnav.com)

KMSN Flight Activity (Flightaware)

Listeners: 0 out of 1298 total

Madison Clearance Delivery: 121.625

KMSN Emergency/Guard (Archives)
Madison, Wisconsin, United States

Feed Status: UP
Listen in your browser - HTML5 player(in browser, HTML5)
Click here to listen with your own player(launches your MP3 player)

KMSN 241353Z 00000KT 10SM FEW170 BKN200 04/02 A3000 RMK AO2 SLP165 T00440017

KMSN Airport Info (Airnav.com)

KMSN Flight Activity (Flightaware)

Listeners: 0 out of 1298 total

Emergency/Guard: 121.500

KMSN Ground (Archives)
Madison, Wisconsin, United States

Feed Status: UP
Listen in your browser - HTML5 player(in browser, HTML5)
Click here to listen with your own player(launches your MP3 player)

KMSN 241353Z 00000KT 10SM FEW170 BKN200 04/02 A3000 RMK AO2 SLP165 T00440017

KMSN Airport Info (Airnav.com)

KMSN Flight Activity (Flightaware)

Listeners: 0 out of 1298 total

Madison Ground: 121.900

KMSN Tower (Archives)
Madison, Wisconsin, United States

Feed Status: UP
Listen in your browser - HTML5 player(in browser, HTML5)
Click here to listen with your own player(launches your MP3 player)

KMSN 241353Z 00000KT 10SM FEW170 BKN200 04/02 A3000 RMK AO2 SLP165 T00440017

KMSN Airport Info (Airnav.com)

KMSN Flight Activity (Flightaware)

Listeners: 0 out of 1298 total

Madison Tower: 119.300

KMSN Twr/App (Archives)
Madison, Wisconsin, United States

Feed Status: UP
Listen in your browser - HTML5 player(in browser, HTML5)
Click here to listen with your own player(launches your MP3 player)

KMSN 241353Z 00000KT 10SM FEW170 BKN200 04/02 A3000 RMK AO2 SLP165 T00440017

KMSN Airport Info (Airnav.com)

KMSN Flight Activity (Flightaware)

Listeners: 0 out of 1298 total

Emergency / GUARD: 121.500
Madison Approach (East): 120.100
Madison Approach (West): 135.450
Madison Tower: 119.300

KMYR Gnd/Twr/App (Archives)
Myrtle Beach, South Carolina, United States

Feed Status: UP
Listen in your browser - HTML5 player(in browser, HTML5)
Click here to listen with your own player(launches your MP3 player)

KMYR 241356Z 00000KT 10SM CLR 21/16 A3017 RMK AO2 SLP214 T02110161

KMYR Airport Info (Airnav.com)

KMYR Flight Activity (Flightaware)

Listeners: 1 out of 1298 total

Myrtle Beach Approach/Departure: 119.200
Myrtle Beach Approach/Departure: 127.400
Myrtle Beach ATIS (top of hour): 123.925
Myrtle Beach Ground: 120.300
Myrtle Beach Tower: 128.450

KMYR Gnd/Twr/App (UHF) (Archives)
Myrtle Beach, South Carolina, United States

Feed Status: UP
Listen in your browser - HTML5 player(in browser, HTML5)
Click here to listen with your own player(launches your MP3 player)

KMYR 241356Z 00000KT 10SM CLR 21/16 A3017 RMK AO2 SLP214 T02110161

KMYR Airport Info (Airnav.com)

KMYR Flight Activity (Flightaware)

Listeners: 0 out of 1298 total

Emergency/Guard: 243.000
Myrtle Beach Approach/Departure (171-321 degrees) : 257.950
Myrtle Beach Approach/Departure (322-170 degrees): 350.300
Myrtle Beach Ground: 275.800
Myrtle Beach Tower: 259.300
PMSV (Pilot-to-Meteorological Service): 239.800

KNDZ/KNSE Twr/App (Archives)
Milton, Florida, United States

Feed Status: UP
Listen in your browser - HTML5 player(in browser, HTML5)
Click here to listen with your own player(launches your MP3 player)

KPNS 241353Z 07005KT 10SM CLR 21/14 A3003 RMK AO2 SLP172 T02060144

KPNS Airport Info (Airnav.com)

KPNS Flight Activity (Flightaware)

Listeners: 0 out of 1298 total

Pensacola Approach: 235.750
Pensacola Approach: 124.850
Pensacola Approach: 127.350
Pensacola Approach: 125.350
Pensacola Approach: 298.900
Pensacola Approach: 278.800
Radar: 290.100
Radar: 278.100
Radar: 362.200
Sherman Tower: 340.200
Whiting North Tower: 306.925
Whiting South Tower: 348.675

KNDZ/KNSE Twr/App (Archives)
Pensacola, Florida, United States

Feed Status: UP
Listen in your browser - HTML5 player(in browser, HTML5)
Click here to listen with your own player(launches your MP3 player)

KPNS 241353Z 07005KT 10SM CLR 21/14 A3003 RMK AO2 SLP172 T02060144

KPNS Airport Info (Airnav.com)

KPNS Flight Activity (Flightaware)

Listeners: 0 out of 1298 total

Pensacola Approach: 235.750
Pensacola Approach: 124.850
Pensacola Approach: 127.350
Pensacola Approach: 125.350
Pensacola Approach: 298.900
Pensacola Approach: 278.800
Radar: 290.100
Radar: 278.100
Radar: 362.200
Sherman Tower: 340.200
Whiting North Tower: 306.925
Whiting South Tower: 348.675

KPNS App/Dep 120.65 (Archives)
Pensacola, Florida, United States

Feed Status: UP
Listen in your browser - HTML5 player(in browser, HTML5)
Click here to listen with your own player(launches your MP3 player)

KPNS 241353Z 07005KT 10SM CLR 21/14 A3003 RMK AO2 SLP172 T02060144

KPNS Airport Info (Airnav.com)

KPNS Flight Activity (Flightaware)

Listeners: 0 out of 1298 total

Pensacola Approach/Departure: 120.650

KNDZ/KNSE Twr/App (Archives)
Milton, Florida, United States

Feed Status: UP
Listen in your browser - HTML5 player(in browser, HTML5)
Click here to listen with your own player(launches your MP3 player)

KPNS 241353Z 07005KT 10SM CLR 21/14 A3003 RMK AO2 SLP172 T02060144

KPNS Airport Info (Airnav.com)

KPNS Flight Activity (Flightaware)

Listeners: 0 out of 1298 total

Pensacola Approach: 235.750
Pensacola Approach: 124.850
Pensacola Approach: 127.350
Pensacola Approach: 125.350
Pensacola Approach: 298.900
Pensacola Approach: 278.800
Radar: 290.100
Radar: 278.100
Radar: 362.200
Sherman Tower: 340.200
Whiting North Tower: 306.925
Whiting South Tower: 348.675

KOAK Del/Gnd/Twr (Archives)
Oakland, California, United States

Feed Status: UP
Listen in your browser - HTML5 player(in browser, HTML5)
Click here to listen with your own player(launches your MP3 player)

KOAK 241353Z 15022KT 2SM +RA BR BKN019 OVC028 16/14 A2967 RMK AO2 PK WND 15032/1258 SLP046 P0014 T01560139

KOAK Airport Info (Airnav.com)

KOAK Flight Activity (Flightaware)

Listeners: 1 out of 1298 total

Oakland Clearance Delivery: 121.100
Oakland Ground: 121.750
Oakland Ground (North): 121.900
Oakland Tower: 127.200
Oakland Tower (Runways 28L/10R, 28R/10L, 33/15): 118.300

NORCAL Approach (KOAK) (Archives)
Oakland, California, United States

Feed Status: UP
Listen in your browser - HTML5 player(in browser, HTML5)
Click here to listen with your own player(launches your MP3 player)

KOAK 241353Z 15022KT 2SM +RA BR BKN019 OVC028 16/14 A2967 RMK AO2 PK WND 15032/1258 SLP046 P0014 T01560139

KOAK Airport Info (Airnav.com)

KOAK Flight Activity (Flightaware)

Listeners: 2 out of 1298 total

NORCAL Approach (KOAK Rwy 29/27R Final): 125.350
NORCAL Approach (Mulford Sector): 124.400

NORCAL Departure (KSFO/KOAK) (Archives)
Oakland, California, United States

Feed Status: UP
Listen in your browser - HTML5 player(in browser, HTML5)
Click here to listen with your own player(launches your MP3 player)

KOAK 241353Z 15022KT 2SM +RA BR BKN019 OVC028 16/14 A2967 RMK AO2 PK WND 15032/1258 SLP046 P0014 T01560139

KOAK Airport Info (Airnav.com)

KOAK Flight Activity (Flightaware)

Listeners: 5 out of 1298 total

NORCAL Departure (Northeast Departures): 120.900
NORCAL Departure (Northeast Departures): 127.000
NORCAL Departure (Southwest Departures): 127.975
NORCAL Departure (Southwest Departures): 135.100

KOCF Gnd/Twr/App (Archives)
Ocala, Florida, United States

Feed Status: UP
Listen in your browser - HTML5 player(in browser, HTML5)
Click here to listen with your own player(launches your MP3 player)

KOCF 241351Z 04005KT 10SM CLR 25/20 A3009 RMK AO2 SLP188 T02500200

KOCF Airport Info (Airnav.com)

KOCF Flight Activity (Flightaware)

Listeners: 0 out of 1298 total

Jacksonville Approach (OCF RCO): 118.600
Ocala Ground: 121.400
Ocala Tower: 119.250
UNICOM: 123.000

KOFF Gnd/Twr/App/ZMP (Archives)
Omaha, Nebraska, United States

Feed Status: UP
Listen in your browser - HTML5 player(in browser, HTML5)
Click here to listen with your own player(launches your MP3 player)

KOFF 241356Z 02006KT 4SM BR BKN005 08/07 A2968 RMK AO2A SLP057 T00830068 PWINO PNO FZRANO TSNO VISNO RWY12 CHINO RWY12 $

KOFF Airport Info (Airnav.com)

KOFF Flight Activity (Flightaware)

Listeners: 1 out of 1298 total

Emergency/Guard: 121.500
Minneapolis Center (Sector 27 Low): 119.600
Offutt AFB Ground: 121.700
Offutt AFB Tower: 123.700
Omaha Approach/Departure (East): 124.500
Omaha Approach/Departure (West): 120.100

KOKC App/Dep (NE) (Archives)
Oklahoma City, Oklahoma, United States

Feed Status: UP
Listen in your browser - HTML5 player(in browser, HTML5)
Click here to listen with your own player(launches your MP3 player)

KOKC 241352Z 19017KT 10SM FEW015 BKN019 BKN180 BKN250 21/17 A2970 RMK AO2 SLP045 T02060167

KOKC Airport Info (Airnav.com)

KOKC Flight Activity (Flightaware)

Listeners: 0 out of 1298 total

Oke City Approach/Departure: 124.200

KOKC App/Dep (SW) (Archives)
Oklahoma City, Oklahoma, United States

Feed Status: UP
Listen in your browser - HTML5 player(in browser, HTML5)
Click here to listen with your own player(launches your MP3 player)

KOKC 241352Z 19017KT 10SM FEW015 BKN019 BKN180 BKN250 21/17 A2970 RMK AO2 SLP045 T02060167

KOKC Airport Info (Airnav.com)

KOKC Flight Activity (Flightaware)

Listeners: 0 out of 1298 total

Oke City Approach/Departure: 124.600

KOKC ATIS (Archives)
Oklahoma City, Oklahoma, United States

Feed Status: UP
Listen in your browser - HTML5 player(in browser, HTML5)
Click here to listen with your own player(launches your MP3 player)

KOKC 241352Z 19017KT 10SM FEW015 BKN019 BKN180 BKN250 21/17 A2970 RMK AO2 SLP045 T02060167

KOKC Airport Info (Airnav.com)

KOKC Flight Activity (Flightaware)

Listeners: 0 out of 1298 total

Rogers ATIS: 125.850

KOKC Clearance Delivery (Archives)
Oklahoma City, Oklahoma, United States

Feed Status: UP
Listen in your browser - HTML5 player(in browser, HTML5)
Click here to listen with your own player(launches your MP3 player)

KOKC 241352Z 19017KT 10SM FEW015 BKN019 BKN180 BKN250 21/17 A2970 RMK AO2 SLP045 T02060167

KOKC Airport Info (Airnav.com)

KOKC Flight Activity (Flightaware)

Listeners: 0 out of 1298 total

Rogers Clearance Delivery: 124.350

KOKC Emergency/Guard (Archives)
Oklahoma City, Oklahoma, United States

Feed Status: UP
Listen in your browser - HTML5 player(in browser, HTML5)
Click here to listen with your own player(launches your MP3 player)

KOKC 241352Z 19017KT 10SM FEW015 BKN019 BKN180 BKN250 21/17 A2970 RMK AO2 SLP045 T02060167

KOKC Airport Info (Airnav.com)

KOKC Flight Activity (Flightaware)

Listeners: 0 out of 1298 total

Emergency/Guard: 121.500

KOKC Ground (Archives)
Oklahoma City, Oklahoma, United States

Feed Status: UP
Listen in your browser - HTML5 player(in browser, HTML5)
Click here to listen with your own player(launches your MP3 player)

KOKC 241352Z 19017KT 10SM FEW015 BKN019 BKN180 BKN250 21/17 A2970 RMK AO2 SLP045 T02060167

KOKC Airport Info (Airnav.com)

KOKC Flight Activity (Flightaware)

Listeners: 0 out of 1298 total

Rogers Ground: 121.900

KOKC Tower (Archives)
Oklahoma City, Oklahoma, United States

Feed Status: UP
Listen in your browser - HTML5 player(in browser, HTML5)
Click here to listen with your own player(launches your MP3 player)

KOKC 241352Z 19017KT 10SM FEW015 BKN019 BKN180 BKN250 21/17 A2970 RMK AO2 SLP045 T02060167

KOKC Airport Info (Airnav.com)

KOKC Flight Activity (Flightaware)

Listeners: 0 out of 1298 total

Rogers Tower: 119.350
Rogers Tower: 120.250
Rogers Tower (UHF): 269.450

KOMA Del/Gnd/Twr (Archives)
Omaha, Nebraska, United States

Feed Status: UP
Listen in your browser - HTML5 player(in browser, HTML5)
Click here to listen with your own player(launches your MP3 player)

KOMA 241424Z 10017G26KT 6SM -RA BR BKN008 BKN012 OVC070 09/07 A2969 RMK AO2 PK WND 09027/1411 WSHFT 1404 LTG DSNT E-SW TSE04 TS MOV NE P0001 T00890072 $

KOMA Airport Info (Airnav.com)

KOMA Flight Activity (Flightaware)

Listeners: 2 out of 1298 total

Omaha Clearance Delivery: 119.900
Omaha Ground: 121.900
Omaha Tower: 132.100

KONT Del/Gnd/Twr/App
Ontario, California, United States

Feed Status: DOWN
Offline since: 2021-07-25 01:43:39 UTC

KONT 241353Z 28005KT 10SM FEW018 BKN024 16/10 A2991 RMK AO2 SLP123 T01560100

KONT Airport Info (Airnav.com)

Ontario Clearance Delivery: 118.100
Ontario Ground: 121.900
Ontario Tower: 120.600
SOCAL Approach/Departure (N-NE): 127.000
SOCAL Approach/Departure (NE-S): 134.000
SOCAL Approach/Departure (S-SW): 135.400
SOCAL Approach/Departure (SW-N): 125.500

KONT Del/Gnd/Twr/App #1 (Archives)
Ontario, California, United States

Feed Status: UP
Listen in your browser - HTML5 player(in browser, HTML5)
Click here to listen with your own player(launches your MP3 player)

KONT 241353Z 28005KT 10SM FEW018 BKN024 16/10 A2991 RMK AO2 SLP123 T01560100

KONT Airport Info (Airnav.com)

KONT Flight Activity (Flightaware)

Listeners: 0 out of 1298 total

Ontario Clearance Delivery: 118.100
Ontario Ground: 121.900
Ontario Tower: 120.600
SOCAL Approach/Departure (N-NE): 127.000
SOCAL Approach/Departure (NE-S): 134.000
SOCAL Approach/Departure (S-SW): 135.400
SOCAL Approach/Departure (SW-N): 125.500

KONT Delivery (Archives)
Ontario, California, United States

Feed Status: UP
Listen in your browser - HTML5 player(in browser, HTML5)
Click here to listen with your own player(launches your MP3 player)

KONT 241353Z 28005KT 10SM FEW018 BKN024 16/10 A2991 RMK AO2 SLP123 T01560100

KONT Airport Info (Airnav.com)

KONT Flight Activity (Flightaware)

Listeners: 0 out of 1298 total

Ontario Clearance Delivery: 118.100

KONT Ground (Archives)
Ontario, California, United States

Feed Status: UP
Listen in your browser - HTML5 player(in browser, HTML5)
Click here to listen with your own player(launches your MP3 player)

KONT 241353Z 28005KT 10SM FEW018 BKN024 16/10 A2991 RMK AO2 SLP123 T01560100

KONT Airport Info (Airnav.com)

KONT Flight Activity (Flightaware)

Listeners: 0 out of 1298 total

Ontario Ground: 121.900

KONT Tower (Archives)
Ontario, California, United States

Feed Status: UP
Listen in your browser - HTML5 player(in browser, HTML5)
Click here to listen with your own player(launches your MP3 player)

KONT 241353Z 28005KT 10SM FEW018 BKN024 16/10 A2991 RMK AO2 SLP123 T01560100

KONT Airport Info (Airnav.com)

KONT Flight Activity (Flightaware)

Listeners: 0 out of 1298 total

Ontario Tower: 120.600

SOCAL App/Dep (KONT NE) (Archives)
Ontario, California, United States

Feed Status: UP
Listen in your browser - HTML5 player(in browser, HTML5)
Click here to listen with your own player(launches your MP3 player)

KONT 241353Z 28005KT 10SM FEW018 BKN024 16/10 A2991 RMK AO2 SLP123 T01560100

KONT Airport Info (Airnav.com)

KONT Flight Activity (Flightaware)

Listeners: 1 out of 1298 total

SOCAL Approach/Departure (N-NE): 127.000

SOCAL App/Dep (KONT NW) (Archives)
Ontario, California, United States

Feed Status: UP
Listen in your browser - HTML5 player(in browser, HTML5)
Click here to listen with your own player(launches your MP3 player)

KONT 241353Z 28005KT 10SM FEW018 BKN024 16/10 A2991 RMK AO2 SLP123 T01560100

KONT Airport Info (Airnav.com)

KONT Flight Activity (Flightaware)

Listeners: 0 out of 1298 total

SOCAL Approach/Departure (SW-N): 125.500

SOCAL App/Dep (KONT SE) (Archives)
Ontario, California, United States

Feed Status: UP
Listen in your browser - HTML5 player(in browser, HTML5)
Click here to listen with your own player(launches your MP3 player)

KONT 241353Z 28005KT 10SM FEW018 BKN024 16/10 A2991 RMK AO2 SLP123 T01560100

KONT Airport Info (Airnav.com)

KONT Flight Activity (Flightaware)

Listeners: 0 out of 1298 total

SOCAL Approach/Departure (NE-S): 134.000

SOCAL App/Dep (KONT SW) (Archives)
Ontario, California, United States

Feed Status: UP
Listen in your browser - HTML5 player(in browser, HTML5)
Click here to listen with your own player(launches your MP3 player)

KONT 241353Z 28005KT 10SM FEW018 BKN024 16/10 A2991 RMK AO2 SLP123 T01560100

KONT Airport Info (Airnav.com)

KONT Flight Activity (Flightaware)

Listeners: 0 out of 1298 total

SOCAL Approach/Departure (S-SW): 135.400

KORF ATIS (Archives)
Norfolk, Virginia, United States

Feed Status: UP
Listen in your browser - HTML5 player(in browser, HTML5)
Click here to listen with your own player(launches your MP3 player)

KORF 241351Z 11008KT 10SM OVC095 18/14 A3019 RMK AO2 SLP224 T01830144

KORF Airport Info (Airnav.com)

KORF Flight Activity (Flightaware)

Listeners: 0 out of 1298 total

Norfolk ATIS: 127.150

KORF Gnd/Twr/App/Radar (Archives)
Norfolk, Virginia, United States

Feed Status: UP
Listen in your browser - HTML5 player(in browser, HTML5)
Click here to listen with your own player(launches your MP3 player)

KORF 241351Z 11008KT 10SM OVC095 18/14 A3019 RMK AO2 SLP224 T01830144

KORF Airport Info (Airnav.com)

KORF Flight Activity (Flightaware)

Listeners: 1 out of 1298 total

Norfolk Approach: 119.450
Norfolk Approach: 353.700
Norfolk Approach: 118.900
Norfolk Approach: 335.625
Norfolk Approach/Departure: 127.900
Norfolk Approach/Departure: 126.050
Norfolk Approach/Departure (Discrete): 128.050
Norfolk Approach/Departure (East): 370.925
Norfolk Approach/Departure (West): 360.600
Norfolk Clearance Delivery: 118.500
Norfolk Departure: 125.200
Norfolk Departure: 379.100
Norfolk Departure: 363.125
Norfolk Ground: 121.900
Norfolk Ground (alternate): 123.950
Norfolk Radar: 266.800
Norfolk Radar: 119.600
Norfolk Radar: 124.825
Norfolk Radar: 288.300
Norfolk Tower: 120.800
Norfolk Tower: 257.800

KORF Ground (Archives)
Norfolk, Virginia, United States

Feed Status: UP
Listen in your browser - HTML5 player(in browser, HTML5)
Click here to listen with your own player(launches your MP3 player)

KORF 241351Z 11008KT 10SM OVC095 18/14 A3019 RMK AO2 SLP224 T01830144

KORF Airport Info (Airnav.com)

KORF Flight Activity (Flightaware)

Listeners: 0 out of 1298 total

Norfolk Ground: 121.900

KORF Tower (Archives)
Norfolk, Virginia, United States

Feed Status: UP
Listen in your browser - HTML5 player(in browser, HTML5)
Click here to listen with your own player(launches your MP3 player)

KORF 241351Z 11008KT 10SM OVC095 18/14 A3019 RMK AO2 SLP224 T01830144

KORF Airport Info (Airnav.com)

KORF Flight Activity (Flightaware)

Listeners: 0 out of 1298 total

Norfolk Tower: 120.800

KPBI App (Final) (Archives)
West Palm Beach, Florida, United States

Feed Status: UP
Listen in your browser - HTML5 player(in browser, HTML5)
Click here to listen with your own player(launches your MP3 player)

KPBI 241353Z 14013KT 10SM BKN020 BKN075 BKN150 26/24 A3004 RMK AO2 RAE18 SLP171 P0001 T02610244 $

KPBI Airport Info (Airnav.com)

KPBI Flight Activity (Flightaware)

Listeners: 0 out of 1298 total

Palm Beach Approach (PBI Final): 125.000

KPBI App (North) (Archives)
West Palm Beach, Florida, United States

Feed Status: UP
Listen in your browser - HTML5 player(in browser, HTML5)
Click here to listen with your own player(launches your MP3 player)

KPBI 241353Z 14013KT 10SM BKN020 BKN075 BKN150 26/24 A3004 RMK AO2 RAE18 SLP171 P0001 T02610244 $

KPBI Airport Info (Airnav.com)

KPBI Flight Activity (Flightaware)

Listeners: 0 out of 1298 total

Palm Beach Approach (North): 124.600

KPBI App (North/South) (Archives)
West Palm Beach, Florida, United States

Feed Status: UP
Listen in your browser - HTML5 player(in browser, HTML5)
Click here to listen with your own player(launches your MP3 player)

KPBI 241353Z 14013KT 10SM BKN020 BKN075 BKN150 26/24 A3004 RMK AO2 RAE18 SLP171 P0001 T02610244 $

KPBI Airport Info (Airnav.com)

KPBI Flight Activity (Flightaware)

Listeners: 1 out of 1298 total

Palm Beach Approach (North): 124.600
Palm Beach Approach (South): 125.200

KPBI App (South) (Archives)
West Palm Beach, Florida, United States

Feed Status: UP
Listen in your browser - HTML5 player(in browser, HTML5)
Click here to listen with your own player(launches your MP3 player)

KPBI 241353Z 14013KT 10SM BKN020 BKN075 BKN150 26/24 A3004 RMK AO2 RAE18 SLP171 P0001 T02610244 $

KPBI Airport Info (Airnav.com)

KPBI Flight Activity (Flightaware)

Listeners: 0 out of 1298 total

Palm Beach Approach (South): 125.200

KPBI ATIS (Archives)
West Palm Beach, Florida, United States

Feed Status: UP
Listen in your browser - HTML5 player(in browser, HTML5)
Click here to listen with your own player(launches your MP3 player)

KPBI 241353Z 14013KT 10SM BKN020 BKN075 BKN150 26/24 A3004 RMK AO2 RAE18 SLP171 P0001 T02610244 $

KPBI Airport Info (Airnav.com)

KPBI Flight Activity (Flightaware)

Listeners: 0 out of 1298 total

West Palm Beach ATIS: 123.750

KPBI Clearance Delivery (Archives)
West Palm Beach, Florida, United States

Feed Status: UP
Listen in your browser - HTML5 player(in browser, HTML5)
Click here to listen with your own player(launches your MP3 player)

KPBI 241353Z 14013KT 10SM BKN020 BKN075 BKN150 26/24 A3004 RMK AO2 RAE18 SLP171 P0001 T02610244 $

KPBI Airport Info (Airnav.com)

KPBI Flight Activity (Flightaware)

Listeners: 0 out of 1298 total

Palm Beach Clearance Delivery: 121.600

KPBI Dep (North) (Archives)
West Palm Beach, Florida, United States

Feed Status: UP
Listen in your browser - HTML5 player(in browser, HTML5)
Click here to listen with your own player(launches your MP3 player)

KPBI 241353Z 14013KT 10SM BKN020 BKN075 BKN150 26/24 A3004 RMK AO2 RAE18 SLP171 P0001 T02610244 $

KPBI Airport Info (Airnav.com)

KPBI Flight Activity (Flightaware)

Listeners: 0 out of 1298 total

Palm Beach Departure (North): 128.300

KPBI Dep (North/South) (Archives)
West Palm Beach, Florida, United States

Feed Status: UP
Listen in your browser - HTML5 player(in browser, HTML5)
Click here to listen with your own player(launches your MP3 player)

KPBI 241353Z 14013KT 10SM BKN020 BKN075 BKN150 26/24 A3004 RMK AO2 RAE18 SLP171 P0001 T02610244 $

KPBI Airport Info (Airnav.com)

KPBI Flight Activity (Flightaware)

Listeners: 0 out of 1298 total

Palm Beach Departure (North): 128.300
Palm Beach Departure (South): 127.350

KPBI Dep (South) (Archives)
West Palm Beach, Florida, United States

Feed Status: UP
Listen in your browser - HTML5 player(in browser, HTML5)
Click here to listen with your own player(launches your MP3 player)

KPBI 241353Z 14013KT 10SM BKN020 BKN075 BKN150 26/24 A3004 RMK AO2 RAE18 SLP171 P0001 T02610244 $

KPBI Airport Info (Airnav.com)

KPBI Flight Activity (Flightaware)

Listeners: 0 out of 1298 total

Palm Beach Departure (South): 127.350

KPBI Emergency/Guard (Archives)
West Palm Beach, Florida, United States

Feed Status: UP
Listen in your browser - HTML5 player(in browser, HTML5)
Click here to listen with your own player(launches your MP3 player)

KPBI 241353Z 14013KT 10SM BKN020 BKN075 BKN150 26/24 A3004 RMK AO2 RAE18 SLP171 P0001 T02610244 $

KPBI Airport Info (Airnav.com)

KPBI Flight Activity (Flightaware)

Listeners: 0 out of 1298 total

Emergency/Guard: 121.500

KPBI GA Gate Hold (Archives)
West Palm Beach, Florida, United States

Feed Status: UP
Listen in your browser - HTML5 player(in browser, HTML5)
Click here to listen with your own player(launches your MP3 player)

KPBI 241353Z 14013KT 10SM BKN020 BKN075 BKN150 26/24 A3004 RMK AO2 RAE18 SLP171 P0001 T02610244 $

KPBI Airport Info (Airnav.com)

KPBI Flight Activity (Flightaware)

Listeners: 0 out of 1298 total

KPBI Gate Hold (General Aviation): 118.750

KPBI Gnd/Twr (Archives)
West Palm Beach, Florida, United States

Feed Status: UP
Listen in your browser - HTML5 player(in browser, HTML5)
Click here to listen with your own player(launches your MP3 player)

KPBI 241353Z 14013KT 10SM BKN020 BKN075 BKN150 26/24 A3004 RMK AO2 RAE18 SLP171 P0001 T02610244 $

KPBI Airport Info (Airnav.com)

KPBI Flight Activity (Flightaware)

Listeners: 0 out of 1298 total

Palm Beach Ground: 121.900
Palm Beach Tower: 119.100

KPBI Ground (Archives)
West Palm Beach, Florida, United States

Feed Status: UP
Listen in your browser - HTML5 player(in browser, HTML5)
Click here to listen with your own player(launches your MP3 player)

KPBI 241353Z 14013KT 10SM BKN020 BKN075 BKN150 26/24 A3004 RMK AO2 RAE18 SLP171 P0001 T02610244 $

KPBI Airport Info (Airnav.com)

KPBI Flight Activity (Flightaware)

Listeners: 0 out of 1298 total

Palm Beach Ground: 121.900

KPBI Tower (Archives)
West Palm Beach, Florida, United States

Feed Status: UP
Listen in your browser - HTML5 player(in browser, HTML5)
Click here to listen with your own player(launches your MP3 player)

KPBI 241353Z 14013KT 10SM BKN020 BKN075 BKN150 26/24 A3004 RMK AO2 RAE18 SLP171 P0001 T02610244 $

KPBI Airport Info (Airnav.com)

KPBI Flight Activity (Flightaware)

Listeners: 1 out of 1298 total

Palm Beach Tower: 119.100

KPDX App/Dep (Archives)
Portland, Oregon, United States

Feed Status: UP
Listen in your browser - HTML5 player(in browser, HTML5)
Click here to listen with your own player(launches your MP3 player)

KPDX 241353Z 12017G21KT 10SM -RA SCT039 BKN050 OVC065 12/09 A2912 RMK AO2 PK WND 12027/1320 SLP862 P0001 T01220089

KPDX Airport Info (Airnav.com)

KPDX Flight Activity (Flightaware)

Listeners: 0 out of 1298 total

Portland Approach (100-279 deg): 118.100
Portland Approach (280-099 deg): 124.350

KPDX App/Dep (North) (Archives)
Portland, Oregon, United States

Feed Status: UP
Listen in your browser - HTML5 player(in browser, HTML5)
Click here to listen with your own player(launches your MP3 player)

KPDX 241353Z 12017G21KT 10SM -RA SCT039 BKN050 OVC065 12/09 A2912 RMK AO2 PK WND 12027/1320 SLP862 P0001 T01220089

KPDX Airport Info (Airnav.com)

KPDX Flight Activity (Flightaware)

Listeners: 0 out of 1298 total

Portland Approach (280-099 deg): 124.350

KPDX Approach (Final) (Archives)
Portland, Oregon, United States

Feed Status: UP
Listen in your browser - HTML5 player(in browser, HTML5)
Click here to listen with your own player(launches your MP3 player)

KPDX 241353Z 12017G21KT 10SM -RA SCT039 BKN050 OVC065 12/09 A2912 RMK AO2 PK WND 12027/1320 SLP862 P0001 T01220089

KPDX Airport Info (Airnav.com)

KPDX Flight Activity (Flightaware)

Listeners: 0 out of 1298 total

Portland Approach (Final): 126.900

KPDX ATIS (Archives)
Portland, Oregon, United States

Feed Status: UP
Listen in your browser - HTML5 player(in browser, HTML5)
Click here to listen with your own player(launches your MP3 player)

KPDX 241353Z 12017G21KT 10SM -RA SCT039 BKN050 OVC065 12/09 A2912 RMK AO2 PK WND 12027/1320 SLP862 P0001 T01220089

KPDX Airport Info (Airnav.com)

KPDX Flight Activity (Flightaware)

Listeners: 0 out of 1298 total

Portland ATIS: 128.350

KPDX Clearance Delivery (Archives)
Portland, Oregon, United States

Feed Status: UP
Listen in your browser - HTML5 player(in browser, HTML5)
Click here to listen with your own player(launches your MP3 player)

KPDX 241353Z 12017G21KT 10SM -RA SCT039 BKN050 OVC065 12/09 A2912 RMK AO2 PK WND 12027/1320 SLP862 P0001 T01220089

KPDX Airport Info (Airnav.com)

KPDX Flight Activity (Flightaware)

Listeners: 0 out of 1298 total

Portland Clearance Delivery: 120.125

KPDX Del/Gnd (Archives)
Portland, Oregon, United States

Feed Status: UP
Listen in your browser - HTML5 player(in browser, HTML5)
Click here to listen with your own player(launches your MP3 player)

KPDX 241353Z 12017G21KT 10SM -RA SCT039 BKN050 OVC065 12/09 A2912 RMK AO2 PK WND 12027/1320 SLP862 P0001 T01220089

KPDX Airport Info (Airnav.com)

KPDX Flight Activity (Flightaware)

Listeners: 0 out of 1298 total

Portland Clearance Delivery: 120.125
Portland Ground: 121.900

KPDX Ground (Archives)
Portland, Oregon, United States

Feed Status: UP
Listen in your browser - HTML5 player(in browser, HTML5)
Click here to listen with your own player(launches your MP3 player)

KPDX 241353Z 12017G21KT 10SM -RA SCT039 BKN050 OVC065 12/09 A2912 RMK AO2 PK WND 12027/1320 SLP862 P0001 T01220089

KPDX Airport Info (Airnav.com)

KPDX Flight Activity (Flightaware)

Listeners: 0 out of 1298 total

Portland Ground: 121.900

KPDX Tower (Both) (Archives)
Portland, Oregon, United States

Feed Status: UP
Listen in your browser - HTML5 player(in browser, HTML5)
Click here to listen with your own player(launches your MP3 player)

KPDX 241353Z 12017G21KT 10SM -RA SCT039 BKN050 OVC065 12/09 A2912 RMK AO2 PK WND 12027/1320 SLP862 P0001 T01220089

KPDX Airport Info (Airnav.com)

KPDX Flight Activity (Flightaware)

Listeners: 2 out of 1298 total

Portland Tower: 118.700
Portland Tower: 123.775

KPDX Tower (Primary) (Archives)
Portland, Oregon, United States

Feed Status: UP
Listen in your browser - HTML5 player(in browser, HTML5)
Click here to listen with your own player(launches your MP3 player)

KPDX 241353Z 12017G21KT 10SM -RA SCT039 BKN050 OVC065 12/09 A2912 RMK AO2 PK WND 12027/1320 SLP862 P0001 T01220089

KPDX Airport Info (Airnav.com)

KPDX Flight Activity (Flightaware)

Listeners: 0 out of 1298 total

Portland Tower: 123.775

KPDX Tower (Rwy 10L/28R) (Archives)
Portland, Oregon, United States

Feed Status: UP
Listen in your browser - HTML5 player(in browser, HTML5)
Click here to listen with your own player(launches your MP3 player)

KPDX 241353Z 12017G21KT 10SM -RA SCT039 BKN050 OVC065 12/09 A2912 RMK AO2 PK WND 12027/1320 SLP862 P0001 T01220089

KPDX Airport Info (Airnav.com)

KPDX Flight Activity (Flightaware)

Listeners: 0 out of 1298 total

Portland Tower: 118.700

KPIA Approach (North) (Archives)
Peoria, Illinois, United States

Feed Status: UP
Listen in your browser - HTML5 player(in browser, HTML5)
Click here to listen with your own player(launches your MP3 player)

KPIA 241354Z 07008KT 4SM RA BR OVC005 10/09 A2987 RMK AO2 CIG 003V007 SLP114 P0027 T01000089

KPIA Airport Info (Airnav.com)

KPIA Flight Activity (Flightaware)

Listeners: 0 out of 1298 total

Peoria Approach/Departure (North): 125.800

KPIA Approach (South) (Archives)
Peoria, Illinois, United States

Feed Status: UP
Listen in your browser - HTML5 player(in browser, HTML5)
Click here to listen with your own player(launches your MP3 player)

KPIA 241354Z 07008KT 4SM RA BR OVC005 10/09 A2987 RMK AO2 CIG 003V007 SLP114 P0027 T01000089

KPIA Airport Info (Airnav.com)

KPIA Flight Activity (Flightaware)

Listeners: 0 out of 1298 total

Peoria Approach/Departure (South): 124.675

KPIA Approach/Departure (Archives)
Peoria, Illinois, United States

Feed Status: UP
Listen in your browser - HTML5 player(in browser, HTML5)
Click here to listen with your own player(launches your MP3 player)

KPIA 241354Z 07008KT 4SM RA BR OVC005 10/09 A2987 RMK AO2 CIG 003V007 SLP114 P0027 T01000089

KPIA Airport Info (Airnav.com)

KPIA Flight Activity (Flightaware)

Listeners: 0 out of 1298 total

Peoria Approach/Departure (North): 125.800
Peoria Approach/Departure (South): 124.675

KPIA Area Guard (Archives)
Peoria, Illinois, United States

Feed Status: UP
Listen in your browser - HTML5 player(in browser, HTML5)
Click here to listen with your own player(launches your MP3 player)

KPIA 241354Z 07008KT 4SM RA BR OVC005 10/09 A2987 RMK AO2 CIG 003V007 SLP114 P0027 T01000089

KPIA Airport Info (Airnav.com)

KPIA Flight Activity (Flightaware)

Listeners: 0 out of 1298 total

Emergency/Guard: 121.500

KPIA ATIS (Archives)
Peoria, Illinois, United States

Feed Status: UP
Listen in your browser - HTML5 player(in browser, HTML5)
Click here to listen with your own player(launches your MP3 player)

KPIA 241354Z 07008KT 4SM RA BR OVC005 10/09 A2987 RMK AO2 CIG 003V007 SLP114 P0027 T01000089

KPIA Airport Info (Airnav.com)

KPIA Flight Activity (Flightaware)

Listeners: 0 out of 1298 total

Peoria ATIS/AWOS: 126.100

KPIA Ground (Archives)
Peoria, Illinois, United States

Feed Status: UP
Listen in your browser - HTML5 player(in browser, HTML5)
Click here to listen with your own player(launches your MP3 player)

KPIA 241354Z 07008KT 4SM RA BR OVC005 10/09 A2987 RMK AO2 CIG 003V007 SLP114 P0027 T01000089

KPIA Airport Info (Airnav.com)

KPIA Flight Activity (Flightaware)

Listeners: 0 out of 1298 total

Peoria Ground: 121.850

KPIA Ground/Tower (Archives)
Peoria, Illinois, United States

Feed Status: UP
Listen in your browser - HTML5 player(in browser, HTML5)
Click here to listen with your own player(launches your MP3 player)

KPIA 241354Z 07008KT 4SM RA BR OVC005 10/09 A2987 RMK AO2 CIG 003V007 SLP114 P0027 T01000089

KPIA Airport Info (Airnav.com)

KPIA Flight Activity (Flightaware)

Listeners: 0 out of 1298 total

Peoria Ground: 121.850
Peoria Tower: 124.000

KPIA Tower (Archives)
Peoria, Illinois, United States

Feed Status: UP
Listen in your browser - HTML5 player(in browser, HTML5)
Click here to listen with your own player(launches your MP3 player)

KPIA 241354Z 07008KT 4SM RA BR OVC005 10/09 A2987 RMK AO2 CIG 003V007 SLP114 P0027 T01000089

KPIA Airport Info (Airnav.com)

KPIA Flight Activity (Flightaware)

Listeners: 0 out of 1298 total

Peoria Tower: 124.000

KNDZ/KNSE Twr/App (Archives)
Pensacola, Florida, United States

Feed Status: UP
Listen in your browser - HTML5 player(in browser, HTML5)
Click here to listen with your own player(launches your MP3 player)

KPNS 241353Z 07005KT 10SM CLR 21/14 A3003 RMK AO2 SLP172 T02060144

KPNS Airport Info (Airnav.com)

KPNS Flight Activity (Flightaware)

Listeners: 0 out of 1298 total

Pensacola Approach: 235.750
Pensacola Approach: 124.850
Pensacola Approach: 127.350
Pensacola Approach: 125.350
Pensacola Approach: 298.900
Pensacola Approach: 278.800
Radar: 290.100
Radar: 278.100
Radar: 362.200
Sherman Tower: 340.200
Whiting North Tower: 306.925
Whiting South Tower: 348.675

KPNS App/Dep 118.6 (Archives)
Pensacola, Florida, United States

Feed Status: UP
Listen in your browser - HTML5 player(in browser, HTML5)
Click here to listen with your own player(launches your MP3 player)

KPNS 241353Z 07005KT 10SM CLR 21/14 A3003 RMK AO2 SLP172 T02060144

KPNS Airport Info (Airnav.com)

KPNS Flight Activity (Flightaware)

Listeners: 0 out of 1298 total

Pensacola Approach/Departure: 118.600

KPNS App/Dep 119.0 (Archives)
Pensacola, Florida, United States

Feed Status: UP
Listen in your browser - HTML5 player(in browser, HTML5)
Click here to listen with your own player(launches your MP3 player)

KPNS 241353Z 07005KT 10SM CLR 21/14 A3003 RMK AO2 SLP172 T02060144

KPNS Airport Info (Airnav.com)

KPNS Flight Activity (Flightaware)

Listeners: 0 out of 1298 total

Pensacola Approach/Departure: 119.000

KPNS App/Dep 120.65 (Archives)
Pensacola, Florida, United States

Feed Status: UP
Listen in your browser - HTML5 player(in browser, HTML5)
Click here to listen with your own player(launches your MP3 player)

KPNS 241353Z 07005KT 10SM CLR 21/14 A3003 RMK AO2 SLP172 T02060144

KPNS Airport Info (Airnav.com)

KPNS Flight Activity (Flightaware)

Listeners: 0 out of 1298 total

Pensacola Approach/Departure: 120.650

KPNS App/Dep 125.35 (Archives)
Pensacola, Florida, United States

Feed Status: UP
Listen in your browser - HTML5 player(in browser, HTML5)
Click here to listen with your own player(launches your MP3 player)

KPNS 241353Z 07005KT 10SM CLR 21/14 A3003 RMK AO2 SLP172 T02060144

KPNS Airport Info (Airnav.com)

KPNS Flight Activity (Flightaware)

Listeners: 0 out of 1298 total

Pensacola Approach/Departure: 125.350

KPNS ATIS (Archives)
Pensacola, Florida, United States

Feed Status: UP
Listen in your browser - HTML5 player(in browser, HTML5)
Click here to listen with your own player(launches your MP3 player)

KPNS 241353Z 07005KT 10SM CLR 21/14 A3003 RMK AO2 SLP172 T02060144

KPNS Airport Info (Airnav.com)

KPNS Flight Activity (Flightaware)

Listeners: 0 out of 1298 total

Pensacola ATIS: 121.250

KPNS Clearance Delivery (Archives)
Pensacola, Florida, United States

Feed Status: UP
Listen in your browser - HTML5 player(in browser, HTML5)
Click here to listen with your own player(launches your MP3 player)

KPNS 241353Z 07005KT 10SM CLR 21/14 A3003 RMK AO2 SLP172 T02060144

KPNS Airport Info (Airnav.com)

KPNS Flight Activity (Flightaware)

Listeners: 0 out of 1298 total

Pensacola Clearance Delivery: 123.725

KPNS Del/Gnd/Twr (Archives)
Pensacola, Florida, United States

Feed Status: UP
Listen in your browser - HTML5 player(in browser, HTML5)
Click here to listen with your own player(launches your MP3 player)

KPNS 241353Z 07005KT 10SM CLR 21/14 A3003 RMK AO2 SLP172 T02060144

KPNS Airport Info (Airnav.com)

KPNS Flight Activity (Flightaware)

Listeners: 0 out of 1298 total

Pensacola Clearance Delivery: 123.725
Pensacola Clearance Delivery: 256.875
Pensacola Ground: 121.900
Pensacola Ground: 348.600
Pensacola Tower: 119.900
Pensacola Tower: 257.800

KPNS Ground (Archives)
Pensacola, Florida, United States

Feed Status: UP
Listen in your browser - HTML5 player(in browser, HTML5)
Click here to listen with your own player(launches your MP3 player)

KPNS 241353Z 07005KT 10SM CLR 21/14 A3003 RMK AO2 SLP172 T02060144

KPNS Airport Info (Airnav.com)

KPNS Flight Activity (Flightaware)

Listeners: 0 out of 1298 total

Pensacola Ground: 121.900

KPNS Tower #1 (Archives)
Pensacola, Florida, United States

Feed Status: UP
Listen in your browser - HTML5 player(in browser, HTML5)
Click here to listen with your own player(launches your MP3 player)

KPNS 241353Z 07005KT 10SM CLR 21/14 A3003 RMK AO2 SLP172 T02060144

KPNS Airport Info (Airnav.com)

KPNS Flight Activity (Flightaware)

Listeners: 0 out of 1298 total

Pensacola Tower: 119.900
Pensacola Tower: 257.800

KPNS Tower #2 (Archives)
Pensacola, Florida, United States

Feed Status: UP
Listen in your browser - HTML5 player(in browser, HTML5)
Click here to listen with your own player(launches your MP3 player)

KPNS 241353Z 07005KT 10SM CLR 21/14 A3003 RMK AO2 SLP172 T02060144

KPNS Airport Info (Airnav.com)

KPNS Flight Activity (Flightaware)

Listeners: 0 out of 1298 total

Pensacola Tower: 119.900

KPNS Tower #3
Pensacola, Florida, United States

Feed Status: DOWN
Offline since: 2021-10-24 13:04:22 UTC

KPNS 241353Z 07005KT 10SM CLR 21/14 A3003 RMK AO2 SLP172 T02060144

KPNS Airport Info (Airnav.com)

Pensacola Tower: 119.900

KPVD Approach/Departure (Archives)
Providence, Rhode Island, United States

Feed Status: UP
Listen in your browser - HTML5 player(in browser, HTML5)
Click here to listen with your own player(launches your MP3 player)

KPVD 241351Z 36007KT 10SM FEW150 10/00 A3018 RMK AO2 SLP220 T01000000

KPVD Airport Info (Airnav.com)

KPVD Flight Activity (Flightaware)

Listeners: 0 out of 1298 total

Emergency/Guard: 121.500
Providence Approach: 127.900
Providence Approach (GROTON Sector): 119.450
Providence Approach (JUMPR Sector): 125.750
Providence Approach (New Bedford Sector): 128.700
Providence Approach/Departure (RHODY Sector): 123.675

KPVD ATIS (Archives)
Providence, Rhode Island, United States

Feed Status: UP
Listen in your browser - HTML5 player(in browser, HTML5)
Click here to listen with your own player(launches your MP3 player)

KPVD 241351Z 36007KT 10SM FEW150 10/00 A3018 RMK AO2 SLP220 T01000000

KPVD Airport Info (Airnav.com)

KPVD Flight Activity (Flightaware)

Listeners: 0 out of 1298 total

Providence ATIS: 124.200

KPVD Clearance Delivery (Archives)
Providence, Rhode Island, United States

Feed Status: UP
Listen in your browser - HTML5 player(in browser, HTML5)
Click here to listen with your own player(launches your MP3 player)

KPVD 241351Z 36007KT 10SM FEW150 10/00 A3018 RMK AO2 SLP220 T01000000

KPVD Airport Info (Airnav.com)

KPVD Flight Activity (Flightaware)

Listeners: 0 out of 1298 total

Providence Clearance Delivery: 126.650

KPVD Gnd/Twr (Archives)
Providence, Rhode Island, United States

Feed Status: UP
Listen in your browser - HTML5 player(in browser, HTML5)
Click here to listen with your own player(launches your MP3 player)

KPVD 241351Z 36007KT 10SM FEW150 10/00 A3018 RMK AO2 SLP220 T01000000

KPVD Airport Info (Airnav.com)

KPVD Flight Activity (Flightaware)

Listeners: 0 out of 1298 total

Providence Ground: 121.900
Providence Tower: 120.700

KPVD Gnd/Twr/App (Archives)
Providence, Rhode Island, United States

Feed Status: UP
Listen in your browser - HTML5 player(in browser, HTML5)
Click here to listen with your own player(launches your MP3 player)

KPVD 241351Z 36007KT 10SM FEW150 10/00 A3018 RMK AO2 SLP220 T01000000

KPVD Airport Info (Airnav.com)

KPVD Flight Activity (Flightaware)

Listeners: 0 out of 1298 total

Providence Approach: 127.900
Providence Approach (GROTON Sector): 119.450
Providence Approach (JUMPR Sector): 125.750
Providence Approach (New Bedford Sector): 128.700
Providence Approach/Departure (RHODY Sector): 123.675
Providence Ground: 121.900
Providence Tower: 120.700

KPWM App/Dep #1 (Archives)
Portland, Maine, United States

Feed Status: UP
Listen in your browser - HTML5 player(in browser, HTML5)
Click here to listen with your own player(launches your MP3 player)

KPWM 241351Z 29012G19KT 10SM CLR 08/M01 A3009 RMK AO2 SLP188 T00781011

KPWM Airport Info (Airnav.com)

KPWM Flight Activity (Flightaware)

Listeners: 0 out of 1298 total

Portland Approach (North): 125.500
Portland Approach (South): 119.750

KPWM App/Dep #2 (Archives)
Portland, Maine, United States

Feed Status: UP
Listen in your browser - HTML5 player(in browser, HTML5)
Click here to listen with your own player(launches your MP3 player)

KPWM 241351Z 29012G19KT 10SM CLR 08/M01 A3009 RMK AO2 SLP188 T00781011

KPWM Airport Info (Airnav.com)

KPWM Flight Activity (Flightaware)

Listeners: 0 out of 1298 total

Portland Approach (South): 119.750

KPWM Gnd/Tower (Archives)
Portland, Maine, United States

Feed Status: UP
Listen in your browser - HTML5 player(in browser, HTML5)
Click here to listen with your own player(launches your MP3 player)

KPWM 241351Z 29012G19KT 10SM CLR 08/M01 A3009 RMK AO2 SLP188 T00781011

KPWM Airport Info (Airnav.com)

KPWM Flight Activity (Flightaware)

Listeners: 0 out of 1298 total

Portland Clearance Delivery: 121.900
Portland Ground: 121.900
Portland Tower: 120.900

KPWM Gnd/Twr/App (Archives)
Portland, Maine, United States

Feed Status: UP
Listen in your browser - HTML5 player(in browser, HTML5)
Click here to listen with your own player(launches your MP3 player)

KPWM 241351Z 29012G19KT 10SM CLR 08/M01 A3009 RMK AO2 SLP188 T00781011

KPWM Airport Info (Airnav.com)

KPWM Flight Activity (Flightaware)

Listeners: 1 out of 1298 total

Portland Approach (North): 125.500
Portland Approach (South): 119.750
Portland Clearance Delivery: 121.900
Portland Ground: 121.900
Portland Tower: 120.900

KPWM Tower (Archives)
Portland, Maine, United States

Feed Status: UP
Listen in your browser - HTML5 player(in browser, HTML5)
Click here to listen with your own player(launches your MP3 player)

KPWM 241351Z 29012G19KT 10SM CLR 08/M01 A3009 RMK AO2 SLP188 T00781011

KPWM Airport Info (Airnav.com)

KPWM Flight Activity (Flightaware)

Listeners: 0 out of 1298 total

Portland Tower: 120.900

KRDU Approach (Archives)
Raleigh/Durham, North Carolina, United States

Feed Status: UP
Listen in your browser - HTML5 player(in browser, HTML5)
Click here to listen with your own player(launches your MP3 player)

KRDU 241351Z 00000KT 10SM FEW250 17/13 A3019 RMK AO2 SLP223 T01720128

KRDU Airport Info (Airnav.com)

KRDU Flight Activity (Flightaware)

Listeners: 0 out of 1298 total

Raleigh Approach: 124.950
Raleigh Approach: 128.300

KRDU Approach/Departure (Archives)
Raleigh/Durham, North Carolina, United States

Feed Status: UP
Listen in your browser - HTML5 player(in browser, HTML5)
Click here to listen with your own player(launches your MP3 player)

KRDU 241351Z 00000KT 10SM FEW250 17/13 A3019 RMK AO2 SLP223 T01720128

KRDU Airport Info (Airnav.com)

KRDU Flight Activity (Flightaware)

Listeners: 0 out of 1298 total

Raleigh Approach: 124.950
Raleigh Approach: 128.300
Raleigh Departure: 125.300
Raleigh Departure: 132.350

KRDU Departure (Archives)
Raleigh/Durham, North Carolina, United States

Feed Status: UP
Listen in your browser - HTML5 player(in browser, HTML5)
Click here to listen with your own player(launches your MP3 player)

KRDU 241351Z 00000KT 10SM FEW250 17/13 A3019 RMK AO2 SLP223 T01720128

KRDU Airport Info (Airnav.com)

KRDU Flight Activity (Flightaware)

Listeners: 0 out of 1298 total

Raleigh Departure: 132.350
Raleigh Departure: 125.300

KRDU Departure 132.35 (Archives)
Raleigh/Durham, North Carolina, United States

Feed Status: UP
Listen in your browser - HTML5 player(in browser, HTML5)
Click here to listen with your own player(launches your MP3 player)

KRDU 241351Z 00000KT 10SM FEW250 17/13 A3019 RMK AO2 SLP223 T01720128

KRDU Airport Info (Airnav.com)

KRDU Flight Activity (Flightaware)

Listeners: 0 out of 1298 total

Raleigh Departure: 132.350

KRNO Clearance Delivery (Archives)
Reno, Nevada, United States

Feed Status: UP
Listen in your browser - HTML5 player(in browser, HTML5)
Click here to listen with your own player(launches your MP3 player)

KRNO 241355Z 16019G28KT 10SM -RA FEW035 BKN045 OVC060 10/06 A2965 RMK AO2 PK WND 15028/1347 SLP019 P0000 T01000056 $

KRNO Airport Info (Airnav.com)

KRNO Flight Activity (Flightaware)

Listeners: 0 out of 1298 total

Reno Clearance Delivery: 124.900

KRNO Del/Gnd/Twr (Archives)
Reno, Nevada, United States

Feed Status: UP
Listen in your browser - HTML5 player(in browser, HTML5)
Click here to listen with your own player(launches your MP3 player)

KRNO 241355Z 16019G28KT 10SM -RA FEW035 BKN045 OVC060 10/06 A2965 RMK AO2 PK WND 15028/1347 SLP019 P0000 T01000056 $

KRNO Airport Info (Airnav.com)

KRNO Flight Activity (Flightaware)

Listeners: 0 out of 1298 total

Reno Clearance Delivery: 124.900
Reno Ground: 121.900
Reno Tower: 118.700

KRNO Del/Gnd/Twr (Archives)
Reno, Nevada, United States

Feed Status: UP
Listen in your browser - HTML5 player(in browser, HTML5)
Click here to listen with your own player(launches your MP3 player)

KRNO 241355Z 16019G28KT 10SM -RA FEW035 BKN045 OVC060 10/06 A2965 RMK AO2 PK WND 15028/1347 SLP019 P0000 T01000056 $

KRNO Airport Info (Airnav.com)

KRNO Flight Activity (Flightaware)

Listeners: 0 out of 1298 total

Reno Clearance Delivery: 124.900
Reno Ground: 121.900
Reno Tower: 118.700

KRNO Del/Gnd/Twr/App/ZOA (Archives)
Reno, Nevada, United States

Feed Status: UP
Listen in your browser - HTML5 player(in browser, HTML5)
Click here to listen with your own player(launches your MP3 player)

KRNO 241355Z 16019G28KT 10SM -RA FEW035 BKN045 OVC060 10/06 A2965 RMK AO2 PK WND 15028/1347 SLP019 P0000 T01000056 $

KRNO Airport Info (Airnav.com)

KRNO Flight Activity (Flightaware)

Listeners: 2 out of 1298 total

Emergency/Guard: 121.500
NORCAL Approach (Reno North): 126.300
NORCAL Approach (Reno South): 119.200
Oakland Center (Zone 45, Lo): 128.800
Reno Clearance Delivery: 124.900
Reno Ground: 121.900
Reno Tower: 118.700

KRNO Emergency/Guard (Archives)
Reno, Nevada, United States

Feed Status: UP
Listen in your browser - HTML5 player(in browser, HTML5)
Click here to listen with your own player(launches your MP3 player)

KRNO 241355Z 16019G28KT 10SM -RA FEW035 BKN045 OVC060 10/06 A2965 RMK AO2 PK WND 15028/1347 SLP019 P0000 T01000056 $

KRNO Airport Info (Airnav.com)

KRNO Flight Activity (Flightaware)

Listeners: 0 out of 1298 total

Emergency/Guard: 121.500

KRNO Ground (Archives)
Reno, Nevada, United States

Feed Status: UP
Listen in your browser - HTML5 player(in browser, HTML5)
Click here to listen with your own player(launches your MP3 player)

KRNO 241355Z 16019G28KT 10SM -RA FEW035 BKN045 OVC060 10/06 A2965 RMK AO2 PK WND 15028/1347 SLP019 P0000 T01000056 $

KRNO Airport Info (Airnav.com)

KRNO Flight Activity (Flightaware)

Listeners: 0 out of 1298 total

Reno Ground: 121.900

KRNO NORCAL App/Dep (Archives)
Reno, Nevada, United States

Feed Status: UP
Listen in your browser - HTML5 player(in browser, HTML5)
Click here to listen with your own player(launches your MP3 player)

KRNO 241355Z 16019G28KT 10SM -RA FEW035 BKN045 OVC060 10/06 A2965 RMK AO2 PK WND 15028/1347 SLP019 P0000 T01000056 $

KRNO Airport Info (Airnav.com)

KRNO Flight Activity (Flightaware)

Listeners: 0 out of 1298 total

NORCAL Approach (Reno North): 126.300
NORCAL Approach (Reno South): 119.200

KRNO NORCAL App/Dep (North) (Archives)
Reno, Nevada, United States

Feed Status: UP
Listen in your browser - HTML5 player(in browser, HTML5)
Click here to listen with your own player(launches your MP3 player)

KRNO 241355Z 16019G28KT 10SM -RA FEW035 BKN045 OVC060 10/06 A2965 RMK AO2 PK WND 15028/1347 SLP019 P0000 T01000056 $

KRNO Airport Info (Airnav.com)

KRNO Flight Activity (Flightaware)

Listeners: 0 out of 1298 total

NORCAL Approach (Reno North): 126.300

KRNO NORCAL App/Dep (South) (Archives)
Reno, Nevada, United States

Feed Status: UP
Listen in your browser - HTML5 player(in browser, HTML5)
Click here to listen with your own player(launches your MP3 player)

KRNO 241355Z 16019G28KT 10SM -RA FEW035 BKN045 OVC060 10/06 A2965 RMK AO2 PK WND 15028/1347 SLP019 P0000 T01000056 $

KRNO Airport Info (Airnav.com)

KRNO Flight Activity (Flightaware)

Listeners: 0 out of 1298 total

NORCAL Approach (Reno South): 119.200

KRNO Tower (Archives)
Reno, Nevada, United States

Feed Status: UP
Listen in your browser - HTML5 player(in browser, HTML5)
Click here to listen with your own player(launches your MP3 player)

KRNO 241355Z 16019G28KT 10SM -RA FEW035 BKN045 OVC060 10/06 A2965 RMK AO2 PK WND 15028/1347 SLP019 P0000 T01000056 $

KRNO Airport Info (Airnav.com)

KRNO Flight Activity (Flightaware)

Listeners: 0 out of 1298 total

Reno Tower: 118.700

KROA App/Dep #1 (Archives)
Roanoke, Virginia, United States

Feed Status: UP
Listen in your browser - HTML5 player(in browser, HTML5)
Click here to listen with your own player(launches your MP3 player)

KROA 241354Z 00000KT 10SM FEW090 15/10 A3019 RMK AO2 SLP222 T01500100

KROA Airport Info (Airnav.com)

KROA Flight Activity (Flightaware)

Listeners: 0 out of 1298 total

Roanoke Approach: 118.150
Roanoke Approach: 126.900

KROA App/Dep #2 (Archives)
Roanoke, Virginia, United States

Feed Status: UP
Listen in your browser - HTML5 player(in browser, HTML5)
Click here to listen with your own player(launches your MP3 player)

KROA 241354Z 00000KT 10SM FEW090 15/10 A3019 RMK AO2 SLP222 T01500100

KROA Airport Info (Airnav.com)

KROA Flight Activity (Flightaware)

Listeners: 0 out of 1298 total

Roanoke Approach: 118.150
Roanoke Approach: 126.900
Roanoke Approach: 135.000

KROA ATIS (Archives)
Roanoke, Virginia, United States

Feed Status: UP
Listen in your browser - HTML5 player(in browser, HTML5)
Click here to listen with your own player(launches your MP3 player)

KROA 241354Z 00000KT 10SM FEW090 15/10 A3019 RMK AO2 SLP222 T01500100

KROA Airport Info (Airnav.com)

KROA Flight Activity (Flightaware)

Listeners: 0 out of 1298 total

Roanoke ATIS: 132.375

KROA Clearance Delivery (Archives)
Roanoke, Virginia, United States

Feed Status: UP
Listen in your browser - HTML5 player(in browser, HTML5)
Click here to listen with your own player(launches your MP3 player)

KROA 241354Z 00000KT 10SM FEW090 15/10 A3019 RMK AO2 SLP222 T01500100

KROA Airport Info (Airnav.com)

KROA Flight Activity (Flightaware)

Listeners: 0 out of 1298 total

Roanoke Clearance Delivery: 119.700

KROA Del/Gnd (Archives)
Roanoke, Virginia, United States

Feed Status: UP
Listen in your browser - HTML5 player(in browser, HTML5)
Click here to listen with your own player(launches your MP3 player)

KROA 241354Z 00000KT 10SM FEW090 15/10 A3019 RMK AO2 SLP222 T01500100

KROA Airport Info (Airnav.com)

KROA Flight Activity (Flightaware)

Listeners: 0 out of 1298 total

Roanoke Clearance Delivery: 119.700
Roanoke Ground: 121.900

KROA Gnd/Twr (Archives)
Roanoke, Virginia, United States

Feed Status: UP
Listen in your browser - HTML5 player(in browser, HTML5)
Click here to listen with your own player(launches your MP3 player)

KROA 241354Z 00000KT 10SM FEW090 15/10 A3019 RMK AO2 SLP222 T01500100

KROA Airport Info (Airnav.com)

KROA Flight Activity (Flightaware)

Listeners: 0 out of 1298 total

Roanoke Ground: 121.900
Roanoke Tower: 118.300

KROA Gnd/Twr/App (Archives)
Roanoke, Virginia, United States

Feed Status: UP
Listen in your browser - HTML5 player(in browser, HTML5)
Click here to listen with your own player(launches your MP3 player)

KROA 241354Z 00000KT 10SM FEW090 15/10 A3019 RMK AO2 SLP222 T01500100

KROA Airport Info (Airnav.com)

KROA Flight Activity (Flightaware)

Listeners: 1 out of 1298 total

Roanoke Approach: 126.900
Roanoke Approach: 118.150
Roanoke Ground: 121.900
Roanoke Tower: 118.300

KROA Ground (Archives)
Roanoke, Virginia, United States

Feed Status: UP
Listen in your browser - HTML5 player(in browser, HTML5)
Click here to listen with your own player(launches your MP3 player)

KROA 241354Z 00000KT 10SM FEW090 15/10 A3019 RMK AO2 SLP222 T01500100

KROA Airport Info (Airnav.com)

KROA Flight Activity (Flightaware)

Listeners: 0 out of 1298 total

Roanoke Ground: 121.900

KROA Tower (Archives)
Roanoke, Virginia, United States

Feed Status: UP
Listen in your browser - HTML5 player(in browser, HTML5)
Click here to listen with your own player(launches your MP3 player)

KROA 241354Z 00000KT 10SM FEW090 15/10 A3019 RMK AO2 SLP222 T01500100

KROA Airport Info (Airnav.com)

KROA Flight Activity (Flightaware)

Listeners: 0 out of 1298 total

Roanoke Tower: 118.300

KROC Approach (Archives)
Rochester, New York, United States

Feed Status: UP
Listen in your browser - HTML5 player(in browser, HTML5)
Click here to listen with your own player(launches your MP3 player)

KROC 241354Z 22007KT 10SM FEW130 SCT200 09/06 A3010 RMK AO2 SLP198 T00890056

KROC Airport Info (Airnav.com)

KROC Flight Activity (Flightaware)

Listeners: 0 out of 1298 total

Rochester Approach: 119.550
Rochester Approach: 123.700

KROC Del/Gnd/Twr (Archives)
Rochester, New York, United States

Feed Status: UP
Listen in your browser - HTML5 player(in browser, HTML5)
Click here to listen with your own player(launches your MP3 player)

KROC 241354Z 22007KT 10SM FEW130 SCT200 09/06 A3010 RMK AO2 SLP198 T00890056

KROC Airport Info (Airnav.com)

KROC Flight Activity (Flightaware)

Listeners: 1 out of 1298 total

Rochester Clearance Delivery: 118.800
Rochester Ground: 121.700
Rochester Tower: 118.300

KROC Delivery/Ground (Archives)
Rochester, New York, United States

Feed Status: UP
Listen in your browser - HTML5 player(in browser, HTML5)
Click here to listen with your own player(launches your MP3 player)

KROC 241354Z 22007KT 10SM FEW130 SCT200 09/06 A3010 RMK AO2 SLP198 T00890056

KROC Airport Info (Airnav.com)

KROC Flight Activity (Flightaware)

Listeners: 0 out of 1298 total

Rochester Clearance Delivery: 118.800
Rochester Ground: 121.700

KROC Tower (Archives)
Rochester, New York, United States

Feed Status: UP
Listen in your browser - HTML5 player(in browser, HTML5)
Click here to listen with your own player(launches your MP3 player)

KROC 241354Z 22007KT 10SM FEW130 SCT200 09/06 A3010 RMK AO2 SLP198 T00890056

KROC Airport Info (Airnav.com)

KROC Flight Activity (Flightaware)

Listeners: 0 out of 1298 total

Rochester Tower: 118.300

KROG/KXNA/KVBT/Misc (Archives)
Rogers, Arkansas, United States

Feed Status: UP
Listen in your browser - HTML5 player(in browser, HTML5)
Click here to listen with your own player(launches your MP3 player)

KROG 241419Z 19022G32KT 10SM SCT020 22/17 A2979 RMK AO2 PK WND 19032/1412

KROG Airport Info (Airnav.com)

KROG Flight Activity (Flightaware)

Listeners: 1 out of 1298 total

Bentonville CTAF: 122.975
Northwest Regional Tower: 127.100
Razorback Approach/Departure (East): 126.600
Rogers Tower: 119.375

KRSW Gnd/Twr/App/Dep (Archives)
Fort Myers, Florida, United States

Feed Status: UP
Listen in your browser - HTML5 player(in browser, HTML5)
Click here to listen with your own player(launches your MP3 player)

KRSW 241353Z 08008KT 10SM CLR 24/23 A3002 RMK AO2 RAE43 SLP161 P0001 T02440228 $

KRSW Airport Info (Airnav.com)

KRSW Flight Activity (Flightaware)

Listeners: 2 out of 1298 total

Ft. Myers Approach/Departure (060-240): 119.750
Ft. Myers Approach/Departure (241-330): 125.150
Ft. Myers Approach/Departure (331-059): 126.800
Ft. Myers Ground: 121.900
Ft. Myers Tower: 128.750

KSAT Approach (Archives)
San Antonio, Texas, United States

Feed Status: UP
Listen in your browser - HTML5 player(in browser, HTML5)
Click here to listen with your own player(launches your MP3 player)

KSAT 241351Z 18005KT 10SM FEW009 BKN019 23/21 A2986 RMK AO2 SLP095 T02280211

KSAT Airport Info (Airnav.com)

KSAT Flight Activity (Flightaware)

Listeners: 0 out of 1298 total

San Antonio Approach/Departure: 127.100
San Antonio Approach/Departure: 125.700
San Antonio Approach/Departure (091-140): 128.050
San Antonio Approach/Departure (141-270): 118.050
San Antonio Approach/Departure (271-359): 125.100
San Antonio Approach/Departure (360-090): 124.450

KSAT Ground (Archives)
San Antonio, Texas, United States

Feed Status: UP
Listen in your browser - HTML5 player(in browser, HTML5)
Click here to listen with your own player(launches your MP3 player)

KSAT 241351Z 18005KT 10SM FEW009 BKN019 23/21 A2986 RMK AO2 SLP095 T02280211

KSAT Airport Info (Airnav.com)

KSAT Flight Activity (Flightaware)

Listeners: 0 out of 1298 total

San Antonio Ground: 121.900

KSAT Tower (Archives)
San Antonio, Texas, United States

Feed Status: UP
Listen in your browser - HTML5 player(in browser, HTML5)
Click here to listen with your own player(launches your MP3 player)

KSAT 241351Z 18005KT 10SM FEW009 BKN019 23/21 A2986 RMK AO2 SLP095 T02280211

KSAT Airport Info (Airnav.com)

KSAT Flight Activity (Flightaware)

Listeners: 0 out of 1298 total

San Antonio Tower: 119.800

KSAV App/Dep (Archives)
Savannah, Georgia, United States

Feed Status: UP
Listen in your browser - HTML5 player(in browser, HTML5)
Click here to listen with your own player(launches your MP3 player)

KSAV 241353Z 07004KT 10SM BKN250 20/17 A3014 RMK AO2 SLP205 T02000167

KSAV Airport Info (Airnav.com)

KSAV Flight Activity (Flightaware)

Listeners: 0 out of 1298 total

Savannah Approach (011-109): 125.300
Savannah Approach (011-109): 353.775
Savannah Approach (110-269): 120.400
Savannah Approach (110-269): 354.000
Savannah Approach (270-010): 118.400
Savannah Approach (270-010): 371.875

KSAV Del/Gnd (Archives)
Savannah, Georgia, United States

Feed Status: UP
Listen in your browser - HTML5 player(in browser, HTML5)
Click here to listen with your own player(launches your MP3 player)

KSAV 241353Z 07004KT 10SM BKN250 20/17 A3014 RMK AO2 SLP205 T02000167

KSAV Airport Info (Airnav.com)

KSAV Flight Activity (Flightaware)

Listeners: 0 out of 1298 total

Savannah Clearance: 291.775
Savannah Clearance Delivery: 119.550
Savannah Ground: 121.900
Savannah Ground: 348.600

KSAV Tower (Archives)
Savannah, Georgia, United States

Feed Status: UP
Listen in your browser - HTML5 player(in browser, HTML5)
Click here to listen with your own player(launches your MP3 player)

KSAV 241353Z 07004KT 10SM BKN250 20/17 A3014 RMK AO2 SLP205 T02000167

KSAV Airport Info (Airnav.com)

KSAV Flight Activity (Flightaware)

Listeners: 0 out of 1298 total

Savannah Tower: 119.100
Savannah Tower: 257.800

KSBA App/Dep (Archives)
Santa Barbara, California, United States

Feed Status: UP
Listen in your browser - HTML5 player(in browser, HTML5)
Click here to listen with your own player(launches your MP3 player)

KSBA 241353Z 00000KT 10SM CLR 12/09 A2989 RMK AO2 SLP122 T01170089

KSBA Airport Info (Airnav.com)

KSBA Flight Activity (Flightaware)

Listeners: 0 out of 1298 total

Santa Barbara Approach/Departure: 125.400
Santa Barbara Approach/Departure: 124.150
Santa Barbara Approach/Departure: 120.550

KSBA Del/Ground (Archives)
Santa Barbara, California, United States

Feed Status: UP
Listen in your browser - HTML5 player(in browser, HTML5)
Click here to listen with your own player(launches your MP3 player)

KSBA 241353Z 00000KT 10SM CLR 12/09 A2989 RMK AO2 SLP122 T01170089

KSBA Airport Info (Airnav.com)

KSBA Flight Activity (Flightaware)

Listeners: 0 out of 1298 total

Santa Barbara Clearance Delivery: 132.900
Santa Barbara Ground: 121.700

KSBA Tower (Archives)
Santa Barbara, California, United States

Feed Status: UP
Listen in your browser - HTML5 player(in browser, HTML5)
Click here to listen with your own player(launches your MP3 player)

KSBA 241353Z 00000KT 10SM CLR 12/09 A2989 RMK AO2 SLP122 T01170089

KSBA Airport Info (Airnav.com)

KSBA Flight Activity (Flightaware)

Listeners: 0 out of 1298 total

Santa Barbara Tower: 119.700

KSDF App/Dep #1 (Archives)
Louisville, Kentucky, United States

Feed Status: UP
Listen in your browser - HTML5 player(in browser, HTML5)
Click here to listen with your own player(launches your MP3 player)

KSDF 241417Z 15004KT 10SM -RA SCT035 SCT070 BKN090 17/14 A2997 RMK AO2 LTG DSNT E RAB08 P0000 T01670144

KSDF Airport Info (Airnav.com)

KSDF Flight Activity (Flightaware)

Listeners: 1 out of 1298 total

Louisville Approach/Departure: 132.075

KSDF App/Dep #2 (Archives)
Louisville, Kentucky, United States

Feed Status: UP
Listen in your browser - HTML5 player(in browser, HTML5)
Click here to listen with your own player(launches your MP3 player)

KSDF 241417Z 15004KT 10SM -RA SCT035 SCT070 BKN090 17/14 A2997 RMK AO2 LTG DSNT E RAB08 P0000 T01670144

KSDF Airport Info (Airnav.com)

KSDF Flight Activity (Flightaware)

Listeners: 1 out of 1298 total

Louisville Approach/Departure: 134.150

KSDF ATIS (Archives)
Louisville, Kentucky, United States

Feed Status: UP
Listen in your browser - HTML5 player(in browser, HTML5)
Click here to listen with your own player(launches your MP3 player)

KSDF 241417Z 15004KT 10SM -RA SCT035 SCT070 BKN090 17/14 A2997 RMK AO2 LTG DSNT E RAB08 P0000 T01670144

KSDF Airport Info (Airnav.com)

KSDF Flight Activity (Flightaware)

Listeners: 0 out of 1298 total

Louisville ATIS: 118.725

KSDF Ground/Tower #1 (Archives)
Louisville, Kentucky, United States

Feed Status: UP
Listen in your browser - HTML5 player(in browser, HTML5)
Click here to listen with your own player(launches your MP3 player)

KSDF 241417Z 15004KT 10SM -RA SCT035 SCT070 BKN090 17/14 A2997 RMK AO2 LTG DSNT E RAB08 P0000 T01670144

KSDF Airport Info (Airnav.com)

KSDF Flight Activity (Flightaware)

Listeners: 1 out of 1298 total

Louisville Ground: 121.700
Louisville Tower: 124.200

KSDF Thunder Over Louisville Air Show #2 (Archives)
Louisville, Kentucky, United States

Feed Status: UP
Listen in your browser - HTML5 player(in browser, HTML5)
Click here to listen with your own player(launches your MP3 player)

KSDF 241417Z 15004KT 10SM -RA SCT035 SCT070 BKN090 17/14 A2997 RMK AO2 LTG DSNT E RAB08 P0000 T01670144

KSDF Airport Info (Airnav.com)

KSDF Flight Activity (Flightaware)

Listeners: 0 out of 1298 total

Air Boss (VHF): 120.300
Air to Air: 126.850

KSFB ATIS (Archives)
Orlando, Florida, United States

Feed Status: UP
Listen in your browser - HTML5 player(in browser, HTML5)
Click here to listen with your own player(launches your MP3 player)

KSFB 241353Z 07006KT 10SM CLR 27/22 A3006 RMK AO2 SLP178 T02720217 $

KSFB Airport Info (Airnav.com)

KSFB Flight Activity (Flightaware)

Listeners: 0 out of 1298 total

Sanford ATIS: 125.975

KSFB Clearance Delivery (Archives)
Orlando, Florida, United States

Feed Status: UP
Listen in your browser - HTML5 player(in browser, HTML5)
Click here to listen with your own player(launches your MP3 player)

KSFB 241353Z 07006KT 10SM CLR 27/22 A3006 RMK AO2 SLP178 T02720217 $

KSFB Airport Info (Airnav.com)

KSFB Flight Activity (Flightaware)

Listeners: 0 out of 1298 total

Sanford Clearance Delivery: 123.975

KSFB Del/Gnd (Archives)
Orlando, Florida, United States

Feed Status: UP
Listen in your browser - HTML5 player(in browser, HTML5)
Click here to listen with your own player(launches your MP3 player)

KSFB 241353Z 07006KT 10SM CLR 27/22 A3006 RMK AO2 SLP178 T02720217 $

KSFB Airport Info (Airnav.com)

KSFB Flight Activity (Flightaware)

Listeners: 0 out of 1298 total

Sanford Clearance Delivery: 123.975
Sanford Ground: 121.350

KSFB Ground (Archives)
Orlando, Florida, United States

Feed Status: UP
Listen in your browser - HTML5 player(in browser, HTML5)
Click here to listen with your own player(launches your MP3 player)

KSFB 241353Z 07006KT 10SM CLR 27/22 A3006 RMK AO2 SLP178 T02720217 $

KSFB Airport Info (Airnav.com)

KSFB Flight Activity (Flightaware)

Listeners: 0 out of 1298 total

Sanford Ground: 121.350

KSFB Tower (Both) (Archives)
Orlando, Florida, United States

Feed Status: UP
Listen in your browser - HTML5 player(in browser, HTML5)
Click here to listen with your own player(launches your MP3 player)

KSFB 241353Z 07006KT 10SM CLR 27/22 A3006 RMK AO2 SLP178 T02720217 $

KSFB Airport Info (Airnav.com)

KSFB Flight Activity (Flightaware)

Listeners: 0 out of 1298 total

Sanford Tower (Runways 9L/27R, 18/36): 120.300
Sanford Tower (Runways 9R/27L, 9C/27C): 135.250

KSFB Tower (Main) (Archives)
Orlando, Florida, United States

Feed Status: UP
Listen in your browser - HTML5 player(in browser, HTML5)
Click here to listen with your own player(launches your MP3 player)

KSFB 241353Z 07006KT 10SM CLR 27/22 A3006 RMK AO2 SLP178 T02720217 $

KSFB Airport Info (Airnav.com)

KSFB Flight Activity (Flightaware)

Listeners: 0 out of 1298 total

Sanford Tower (Runways 9L/27R, 18/36): 120.300

KSFB Tower (South) (Archives)
Orlando, Florida, United States

Feed Status: UP
Listen in your browser - HTML5 player(in browser, HTML5)
Click here to listen with your own player(launches your MP3 player)

KSFB 241353Z 07006KT 10SM CLR 27/22 A3006 RMK AO2 SLP178 T02720217 $

KSFB Airport Info (Airnav.com)

KSFB Flight Activity (Flightaware)

Listeners: 0 out of 1298 total

Sanford Tower (Runways 9R/27L, 9C/27C): 135.250

NORCAL Departure (KSFO/KOAK) (Archives)
San Francisco, California, United States

Feed Status: UP
Listen in your browser - HTML5 player(in browser, HTML5)
Click here to listen with your own player(launches your MP3 player)

KOAK 241353Z 15022KT 2SM +RA BR BKN019 OVC028 16/14 A2967 RMK AO2 PK WND 15032/1258 SLP046 P0014 T01560139

KOAK Airport Info (Airnav.com)

KOAK Flight Activity (Flightaware)

Listeners: 5 out of 1298 total

NORCAL Departure (Northeast Departures): 120.900
NORCAL Departure (Northeast Departures): 127.000
NORCAL Departure (Southwest Departures): 127.975
NORCAL Departure (Southwest Departures): 135.100

KSGF Approach/Departure
Springfield, Missouri, United States

Feed Status: DOWN
Offline since: 2021-10-19 14:00:05 UTC

KSGF 241352Z 17012KT 10SM CLR 20/18 A2974 RMK AO2 SLP064 T02000178

KSGF Airport Info (Airnav.com)

Springfield Approach: 124.950
Springfield Approach: 121.100

KSGF ATIS
Springfield, Missouri, United States

Feed Status: DOWN
Offline since: 2021-10-19 14:00:05 UTC

KSGF 241352Z 17012KT 10SM CLR 20/18 A2974 RMK AO2 SLP064 T02000178

KSGF Airport Info (Airnav.com)

Springfield ATIS: 135.125

KSGF Clearance Delivery
Springfield, Missouri, United States

Feed Status: DOWN
Offline since: 2021-10-19 14:00:05 UTC

KSGF 241352Z 17012KT 10SM CLR 20/18 A2974 RMK AO2 SLP064 T02000178

KSGF Airport Info (Airnav.com)

Springfield Clearance Delivery: 123.675

KSGF Ground
Springfield, Missouri, United States

Feed Status: DOWN
Offline since: 2021-10-19 14:00:05 UTC

KSGF 241352Z 17012KT 10SM CLR 20/18 A2974 RMK AO2 SLP064 T02000178

KSGF Airport Info (Airnav.com)

Springfield Ground: 121.900

KSGF Ground/Tower (Archives)
Springfield, Missouri, United States

Feed Status: UP
Listen in your browser - HTML5 player(in browser, HTML5)
Click here to listen with your own player(launches your MP3 player)

KSGF 241352Z 17012KT 10SM CLR 20/18 A2974 RMK AO2 SLP064 T02000178

KSGF Airport Info (Airnav.com)

KSGF Flight Activity (Flightaware)

Listeners: 1 out of 1298 total

Springfield Ground: 121.900
Springfield Tower: 119.900

KSGF Tower
Springfield, Missouri, United States

Feed Status: DOWN
Offline since: 2021-10-19 14:00:05 UTC

KSGF 241352Z 17012KT 10SM CLR 20/18 A2974 RMK AO2 SLP064 T02000178

KSGF Airport Info (Airnav.com)

Springfield Tower: 119.900

KSJC D-ATIS (Archives)
San Jose, California, United States

Feed Status: UP
Listen in your browser - HTML5 player(in browser, HTML5)
Click here to listen with your own player(launches your MP3 player)

KSJC 241353Z 14016G23KT 10SM FEW009 BKN060 OVC100 15/12 A2971 RMK AO2 RAE1255 SLP059 P0000 T01500122

KSJC Airport Info (Airnav.com)

KSJC Flight Activity (Flightaware)

Listeners: 0 out of 1298 total

San Jose D-ATIS: 126.950

KSJC Del/Gnd/Misc (Archives)
San Jose, California, United States

Feed Status: UP
Listen in your browser - HTML5 player(in browser, HTML5)
Click here to listen with your own player(launches your MP3 player)

KSJC 241353Z 14016G23KT 10SM FEW009 BKN060 OVC100 15/12 A2971 RMK AO2 RAE1255 SLP059 P0000 T01500122

KSJC Airport Info (Airnav.com)

KSJC Flight Activity (Flightaware)

Listeners: 0 out of 1298 total

Alaska Airlines Ops: 131.200
American Airlines Ops: 129.200
Atlantic Aviation (San Jose Jet Center): 129.800
Emergency/Guard: 121.500
Horizon Air Ops: 132.000
San Jose Clearance Delivery: 118.000
San Jose Ground: 121.700
Signature Flight Support: 129.050
Southwest Airlines Ops: 464.625
Southwest Airlines Ops: 131.700

KSJC Ground (Archives)
San Jose, California, United States

Feed Status: UP
Listen in your browser - HTML5 player(in browser, HTML5)
Click here to listen with your own player(launches your MP3 player)

KSJC 241353Z 14016G23KT 10SM FEW009 BKN060 OVC100 15/12 A2971 RMK AO2 RAE1255 SLP059 P0000 T01500122

KSJC Airport Info (Airnav.com)

KSJC Flight Activity (Flightaware)

Listeners: 0 out of 1298 total

San Jose Ground: 121.700

KSJC NORCAL Approach #1 (Archives)
San Jose, California, United States

Feed Status: UP
Listen in your browser - HTML5 player(in browser, HTML5)
Click here to listen with your own player(launches your MP3 player)

KSJC 241353Z 14016G23KT 10SM FEW009 BKN060 OVC100 15/12 A2971 RMK AO2 RAE1255 SLP059 P0000 T01500122

KSJC Airport Info (Airnav.com)

KSJC Flight Activity (Flightaware)

Listeners: 0 out of 1298 total

Emergency/Guard: 121.500
NORCAL Approach: 135.200
NORCAL Approach "LICKE" SJC Final: 120.100

KSJC NORCAL Approach #2 (Archives)
San Jose, California, United States

Feed Status: UP
Listen in your browser - HTML5 player(in browser, HTML5)
Click here to listen with your own player(launches your MP3 player)

KSJC 241353Z 14016G23KT 10SM FEW009 BKN060 OVC100 15/12 A2971 RMK AO2 RAE1255 SLP059 P0000 T01500122

KSJC Airport Info (Airnav.com)

KSJC Flight Activity (Flightaware)

Listeners: 0 out of 1298 total

NORCAL Approach "LICKE" SJC Final: 120.100
NORCAL Approach "TOGA": 121.300

KSJC NORCAL Departure (Archives)
San Jose, California, United States

Feed Status: UP
Listen in your browser - HTML5 player(in browser, HTML5)
Click here to listen with your own player(launches your MP3 player)

KSJC 241353Z 14016G23KT 10SM FEW009 BKN060 OVC100 15/12 A2971 RMK AO2 RAE1255 SLP059 P0000 T01500122

KSJC Airport Info (Airnav.com)

KSJC Flight Activity (Flightaware)

Listeners: 0 out of 1298 total

NORCAL Departure: 121.300

KSJC Tower #1 (Archives)
San Jose, California, United States

Feed Status: UP
Listen in your browser - HTML5 player(in browser, HTML5)
Click here to listen with your own player(launches your MP3 player)

KSJC 241353Z 14016G23KT 10SM FEW009 BKN060 OVC100 15/12 A2971 RMK AO2 RAE1255 SLP059 P0000 T01500122

KSJC Airport Info (Airnav.com)

KSJC Flight Activity (Flightaware)

Listeners: 1 out of 1298 total

San Jose Tower: 124.000

KSJC Tower #2 (Archives)
San Jose, California, United States

Feed Status: UP
Listen in your browser - HTML5 player(in browser, HTML5)
Click here to listen with your own player(launches your MP3 player)

KSJC 241353Z 14016G23KT 10SM FEW009 BKN060 OVC100 15/12 A2971 RMK AO2 RAE1255 SLP059 P0000 T01500122

KSJC Airport Info (Airnav.com)

KSJC Flight Activity (Flightaware)

Listeners: 0 out of 1298 total

San Jose Tower: 124.000
San Jose Tower: 120.700

KSNA Del/Gnd (Archives)
Santa Ana, California, United States

Feed Status: UP
Listen in your browser - HTML5 player(in browser, HTML5)
Click here to listen with your own player(launches your MP3 player)

KSNA 241353Z 01003KT 10SM BKN023 BKN210 BKN250 14/11 A2991 RMK AO2 SLP129 T01440106 $

KSNA Airport Info (Airnav.com)

KSNA Flight Activity (Flightaware)

Listeners: 1 out of 1298 total

John Wayne Clearance (IFR): 118.000
John Wayne Clearance (VFR): 121.850
John Wayne Ground (East): 120.800
John Wayne Ground (West): 132.250

KSNA Del/Gnd/Twr/App (Archives)
Santa Ana, California, United States

Feed Status: UP
Listen in your browser - HTML5 player(in browser, HTML5)
Click here to listen with your own player(launches your MP3 player)

KSNA 241353Z 01003KT 10SM BKN023 BKN210 BKN250 14/11 A2991 RMK AO2 SLP129 T01440106 $

KSNA Airport Info (Airnav.com)

KSNA Flight Activity (Flightaware)

Listeners: 1 out of 1298 total

John Wayne Clearance Delivery: 121.850
John Wayne Ground: 120.800
John Wayne Tower: 119.900
John Wayne Tower: 126.800
SoCal Approach (NE/SW): 128.100
SoCal Approach (NW/NE): 121.300
SoCal Approach (SE): 124.100

KSNA Tower (Archives)
Santa Ana, California, United States

Feed Status: UP
Listen in your browser - HTML5 player(in browser, HTML5)
Click here to listen with your own player(launches your MP3 player)

KSNA 241353Z 01003KT 10SM BKN023 BKN210 BKN250 14/11 A2991 RMK AO2 SLP129 T01440106 $

KSNA Airport Info (Airnav.com)

KSNA Flight Activity (Flightaware)

Listeners: 0 out of 1298 total

John Wayne Tower: 119.900
John Wayne Tower: 126.800

KSRQ App/Dep (Archives)
Sarasota/Bradenton, Florida, United States

Feed Status: UP
Listen in your browser - HTML5 player(in browser, HTML5)
Click here to listen with your own player(launches your MP3 player)



KSRQ Airport Info (Airnav.com)

KSRQ Flight Activity (Flightaware)

Listeners: 0 out of 1298 total

Tampa Approach/Departure: 119.650
Tampa Approach/Departure: 124.950

KSRQ Del/Gnd (Archives)
Sarasota/Bradenton, Florida, United States

Feed Status: UP
Listen in your browser - HTML5 player(in browser, HTML5)
Click here to listen with your own player(launches your MP3 player)



KSRQ Airport Info (Airnav.com)

KSRQ Flight Activity (Flightaware)

Listeners: 0 out of 1298 total

Sarasota Clearance Delivery: 118.250
Sarasota Ground: 121.900

KSRQ Tower (Archives)
Sarasota/Bradenton, Florida, United States

Feed Status: UP
Listen in your browser - HTML5 player(in browser, HTML5)
Click here to listen with your own player(launches your MP3 player)



KSRQ Airport Info (Airnav.com)

KSRQ Flight Activity (Flightaware)

Listeners: 0 out of 1298 total

Sarasota Tower: 120.100
Sarasota Tower: 256.800

KSYR ATIS (Archives)
Syracuse, New York, United States

Feed Status: UP
Listen in your browser - HTML5 player(in browser, HTML5)
Click here to listen with your own player(launches your MP3 player)

KSYR 241354Z 10005KT 10SM FEW042 FEW085 SCT200 08/06 A3013 RMK AO2 SLP203 T00780061

KSYR Airport Info (Airnav.com)

KSYR Flight Activity (Flightaware)

Listeners: 0 out of 1298 total

Syracuse ATIS: 124.225

KSYR Del/Gnd (Archives)
Syracuse, New York, United States

Feed Status: UP
Listen in your browser - HTML5 player(in browser, HTML5)
Click here to listen with your own player(launches your MP3 player)

KSYR 241354Z 10005KT 10SM FEW042 FEW085 SCT200 08/06 A3013 RMK AO2 SLP203 T00780061

KSYR Airport Info (Airnav.com)

KSYR Flight Activity (Flightaware)

Listeners: 0 out of 1298 total

Syracuse Clearance Delivery: 125.050
Syracuse Ground: 121.700

KSYR Tower/Approach (Archives)
Syracuse, New York, United States

Feed Status: UP
Listen in your browser - HTML5 player(in browser, HTML5)
Click here to listen with your own player(launches your MP3 player)

KSYR 241354Z 10005KT 10SM FEW042 FEW085 SCT200 08/06 A3013 RMK AO2 SLP203 T00780061

KSYR Airport Info (Airnav.com)

KSYR Flight Activity (Flightaware)

Listeners: 7 out of 1298 total

Syracuse Approach: 134.275
Syracuse Approach: 126.125
Syracuse Tower: 120.300

KTLH Del/Gnd/Twr/App (Archives)
Tallahassee, Florida, United States

Feed Status: UP
Listen in your browser - HTML5 player(in browser, HTML5)
Click here to listen with your own player(launches your MP3 player)

KTLH 241353Z 11007KT 10SM BKN250 22/17 A3008 RMK AO2 SLP186 T02170167

KTLH Airport Info (Airnav.com)

KTLH Flight Activity (Flightaware)

Listeners: 1 out of 1298 total

Tallahassee Approach/Departure: 135.800
Tallahassee Approach/Departure: 128.700
Tallahassee Approach/Departure: 133.850
Tallahassee Clearance Delivery: 126.650
Tallahassee Ground: 121.900
Tallahassee Tower: 118.700

KTOL Del/Gnd/Twr/App (Archives)
Toledo, Ohio, United States

Feed Status: UP
Listen in your browser - HTML5 player(in browser, HTML5)
Click here to listen with your own player(launches your MP3 player)

KTOL 241352Z 00000KT 10SM BKN070 06/03 A3006 RMK AO2 SLP182 T00610033

KTOL Airport Info (Airnav.com)

KTOL Flight Activity (Flightaware)

Listeners: 0 out of 1298 total

Toledo Approach (East): 126.100
Toledo Approach (West): 134.350
Toledo Clearance Delivery: 121.750
Toledo Ground: 121.900
Toledo Tower: 118.100

KTUL Del/Gnd/Twr/App (Archives)
Tulsa, Oklahoma, United States

Feed Status: UP
Listen in your browser - HTML5 player(in browser, HTML5)
Click here to listen with your own player(launches your MP3 player)

KTUL 241353Z 19012G23KT 10SM FEW020 FEW150 SCT250 22/18 A2968 RMK AO2 SLP042 T02220183

KTUL Airport Info (Airnav.com)

KTUL Flight Activity (Flightaware)

Listeners: 0 out of 1298 total

Emergency/Guard: 121.500
Tulsa Approach (175-354deg): 124.000
Tulsa Approach (355-174deg): 119.100
Tulsa Approach (Final): 132.100
Tulsa Approach/Departure (KRVS): 134.700
Tulsa Clearance: 134.050
Tulsa Ground: 121.900
Tulsa Tower (Rwy 18R/36L): 118.700
Tulsa Tower (Rwys 18L/36R, 08/26): 121.200

KDMA/KTUS Twr/Ops/ZAB (Archives)
Tucson, Arizona, United States

Feed Status: UP
Listen in your browser - HTML5 player(in browser, HTML5)
Click here to listen with your own player(launches your MP3 player)

KTUS 241353Z 15008KT 10SM CLR 13/06 A2995 RMK AO2 SLP111 T01330056

KTUS Airport Info (Airnav.com)

KTUS Flight Activity (Flightaware)

Listeners: 3 out of 1298 total

357FS Ops: 139.725
358FS Ops: 138.500
Albuquerque Center (Sector 47 Silver City/Low/UHF): 327.150
Albuquerque Center (Sector 90 San Simon/High/UHF): 281.500
AWACS: 364.200
BigFoot: 234.800
BigFoot: 271.000
Davis-Monthan AFB: 253.500
Tucson 162FW SOS IOPS: 392.200
Tucson Tower (UHF): 257.800

KTUS Del/Gnd/Twr/App/KDMA (Archives)
Tucson, Arizona, United States

Feed Status: UP
Listen in your browser - HTML5 player(in browser, HTML5)
Click here to listen with your own player(launches your MP3 player)

KTUS 241353Z 15008KT 10SM CLR 13/06 A2995 RMK AO2 SLP111 T01330056

KTUS Airport Info (Airnav.com)

KTUS Flight Activity (Flightaware)

Listeners: 2 out of 1298 total

KDMA Tower: 118.850
Tucson Approach (alt): 128.500
Tucson Approach (East/South): 125.100
Tucson Approach (North): 119.400
Tucson Approach (Practice Areas): 125.900
Tucson Clearance Delivery: 126.650
Tucson Ground: 124.400
Tucson Tower: 118.300
Tucson Tower (alt): 119.000

KTYS Del/Gnd/Twr/App (Archives)
Knoxville, Tennessee, United States

Feed Status: UP
Listen in your browser - HTML5 player(in browser, HTML5)
Click here to listen with your own player(launches your MP3 player)

KTYS 241353Z 01003KT 10SM FEW250 13/10 A3011 RMK AO2 SLP194 T01280100

KTYS Airport Info (Airnav.com)

KTYS Flight Activity (Flightaware)

Listeners: 1 out of 1298 total

Knoxville Approach/Departure: 123.900
Knoxville Approach/Departure: 120.650
Knoxville Approach/Departure: 360.800
Knoxville Approach/Departure: 353.600
Knoxville Approach/Departure: 118.000
Knoxville Clearance Delivery: 121.650
Knoxville Ground: 348.600
Knoxville Ground: 121.900
Knoxville Tower: 257.800
Knoxville Tower: 121.200

KROG/KXNA/KVBT/Misc (Archives)
Bentonville, Arkansas, United States

Feed Status: UP
Listen in your browser - HTML5 player(in browser, HTML5)
Click here to listen with your own player(launches your MP3 player)

KROG 241419Z 19022G32KT 10SM SCT020 22/17 A2979 RMK AO2 PK WND 19032/1412

KROG Airport Info (Airnav.com)

KROG Flight Activity (Flightaware)

Listeners: 1 out of 1298 total

Bentonville CTAF: 122.975
Northwest Regional Tower: 127.100
Razorback Approach/Departure (East): 126.600
Rogers Tower: 119.375

KROG/KXNA/KVBT/Misc (Archives)
Fayetteville/Springdale/Rogers, Arkansas, United States

Feed Status: UP
Listen in your browser - HTML5 player(in browser, HTML5)
Click here to listen with your own player(launches your MP3 player)

KROG 241419Z 19022G32KT 10SM SCT020 22/17 A2979 RMK AO2 PK WND 19032/1412

KROG Airport Info (Airnav.com)

KROG Flight Activity (Flightaware)

Listeners: 1 out of 1298 total

Bentonville CTAF: 122.975
Northwest Regional Tower: 127.100
Razorback Approach/Departure (East): 126.600
Rogers Tower: 119.375

KBTR/KHZR/L38 Del/Gnd/Twr/App/CTAF (Archives)
Gonzales, Louisiana, United States

Feed Status: UP
Listen in your browser - HTML5 player(in browser, HTML5)
Click here to listen with your own player(launches your MP3 player)

KBTR 241353Z 10007KT 10SM CLR 23/22 A2995 RMK AO2 SLP142 T02280217

KBTR Airport Info (Airnav.com)

KBTR Flight Activity (Flightaware)

Listeners: 0 out of 1298 total

Baton Rouge Approach/Departure (East): 126.500
Baton Rouge Approach/Departure (Military): 278.300
Baton Rouge Approach/Departure (West): 120.300
Baton Rouge Clearance Delivery: 119.400
Baton Rouge Ground: 121.900
Baton Rouge Tower (Military): 257.800
Baton Rouge Tower/CTAF: 118.450
Baton Rouge UNICOM: 122.950
Houston Center (App/Dep when Approach closed): 338.250
Houston Center (App/Dep when Approach closed): 126.350
Louisiana Regional L38 CTAF: 123.000
United Airlines: 129.925

PANC Del/Gnd/App (Archives)
Anchorage, Alaska, United States

Feed Status: UP
Listen in your browser - HTML5 player(in browser, HTML5)
Click here to listen with your own player(launches your MP3 player)

PANC 241353Z 06005KT 10SM OVC060 04/01 A2939 RMK AO2 RAB30E44 SLP955 P0000 T00390006

PANC Airport Info (Airnav.com)

PANC Flight Activity (Flightaware)

Listeners: 1 out of 1298 total

Anchorage Approach/Dep (046-205 deg): 126.400
Anchorage Approach/Dep (206-249 deg): 123.800
Anchorage Approach/Dep (250-330 deg <=1500'): 119.100
Anchorage Approach/Dep (250-330 deg >1500'): 118.600
Anchorage Approach/Dep (331-045 deg <=2500'): 119.100
Anchorage Clearance: 119.400
Anchorage Ground: 121.900

PANC Del/Gnd/Twr/App (Archives)
Anchorage, Alaska, United States

Feed Status: UP
Listen in your browser - HTML5 player(in browser, HTML5)
Click here to listen with your own player(launches your MP3 player)

PANC 241353Z 06005KT 10SM OVC060 04/01 A2939 RMK AO2 RAB30E44 SLP955 P0000 T00390006

PANC Airport Info (Airnav.com)

PANC Flight Activity (Flightaware)

Listeners: 2 out of 1298 total

Anchorage Approach/Dep (046-205 deg): 126.400
Anchorage Approach/Dep (206-249 deg): 123.800
Anchorage Approach/Dep (250-330 deg <=1500'): 119.100
Anchorage Approach/Dep (250-330 deg >1500'): 118.600
Anchorage Approach/Dep (331-045 deg <=2500'): 119.100
Anchorage Clearance: 119.400
Anchorage Ground: 121.900
Anchorage Tower: 118.300

PANC Tower (Archives)
Anchorage, Alaska, United States

Feed Status: UP
Listen in your browser - HTML5 player(in browser, HTML5)
Click here to listen with your own player(launches your MP3 player)

PANC 241353Z 06005KT 10SM OVC060 04/01 A2939 RMK AO2 RAB30E44 SLP955 P0000 T00390006

PANC Airport Info (Airnav.com)

PANC Flight Activity (Flightaware)

Listeners: 0 out of 1298 total

Anchorage Tower: 118.300

PHOG ATIS (Archives)
Kahului, Hawaii, United States

Feed Status: UP
Listen in your browser - HTML5 player(in browser, HTML5)
Click here to listen with your own player(launches your MP3 player)

PHOG 241354Z AUTO 04014KT 10SM FEW046 24/20 A3006 RMK AO2 SLP183 T02440200 TSNO

PHOG Airport Info (Airnav.com)

PHOG Flight Activity (Flightaware)

Listeners: 1 out of 1298 total

Maui ATIS: 128.600

PHOG Clearance Delivery (Archives)
Kahului, Hawaii, United States

Feed Status: UP
Listen in your browser - HTML5 player(in browser, HTML5)
Click here to listen with your own player(launches your MP3 player)

PHOG 241354Z AUTO 04014KT 10SM FEW046 24/20 A3006 RMK AO2 SLP183 T02440200 TSNO

PHOG Airport Info (Airnav.com)

PHOG Flight Activity (Flightaware)

Listeners: 1 out of 1298 total

Maui Clearance Delivery: 120.600

PHOG Del/Gnd/Twr/App (Archives)
Kahului, Hawaii, United States

Feed Status: UP
Listen in your browser - HTML5 player(in browser, HTML5)
Click here to listen with your own player(launches your MP3 player)

PHOG 241354Z AUTO 04014KT 10SM FEW046 24/20 A3006 RMK AO2 SLP183 T02440200 TSNO

PHOG Airport Info (Airnav.com)

PHOG Flight Activity (Flightaware)

Listeners: 1 out of 1298 total

HCF Approach (Maui/North): 120.200
HCF Approach (Maui/South): 119.500
Maui Clearance Delivery: 120.600
Maui Ground: 121.900
Maui Tower: 118.700

PHOG Ground (Archives)
Kahului, Hawaii, United States

Feed Status: UP
Listen in your browser - HTML5 player(in browser, HTML5)
Click here to listen with your own player(launches your MP3 player)

PHOG 241354Z AUTO 04014KT 10SM FEW046 24/20 A3006 RMK AO2 SLP183 T02440200 TSNO

PHOG Airport Info (Airnav.com)

PHOG Flight Activity (Flightaware)

Listeners: 0 out of 1298 total

Maui Ground: 121.900

PHOG HCF App (N/S) (Archives)
Kahului, Hawaii, United States

Feed Status: UP
Listen in your browser - HTML5 player(in browser, HTML5)
Click here to listen with your own player(launches your MP3 player)

PHOG 241354Z AUTO 04014KT 10SM FEW046 24/20 A3006 RMK AO2 SLP183 T02440200 TSNO

PHOG Airport Info (Airnav.com)

PHOG Flight Activity (Flightaware)

Listeners: 0 out of 1298 total

HCF Approach (Maui/North): 120.200
HCF Approach (Maui/South): 119.500

PHOG HCF App (North) (Archives)
Kahului, Hawaii, United States

Feed Status: UP
Listen in your browser - HTML5 player(in browser, HTML5)
Click here to listen with your own player(launches your MP3 player)

PHOG 241354Z AUTO 04014KT 10SM FEW046 24/20 A3006 RMK AO2 SLP183 T02440200 TSNO

PHOG Airport Info (Airnav.com)

PHOG Flight Activity (Flightaware)

Listeners: 1 out of 1298 total

HCF Approach (Maui/North): 120.200

PHOG HCF App (South) (Archives)
Kahului, Hawaii, United States

Feed Status: UP
Listen in your browser - HTML5 player(in browser, HTML5)
Click here to listen with your own player(launches your MP3 player)

PHOG 241354Z AUTO 04014KT 10SM FEW046 24/20 A3006 RMK AO2 SLP183 T02440200 TSNO

PHOG Airport Info (Airnav.com)

PHOG Flight Activity (Flightaware)

Listeners: 1 out of 1298 total

HCF Approach (Maui/South): 119.500

PHOG Tower (Archives)
Kahului, Hawaii, United States

Feed Status: UP
Listen in your browser - HTML5 player(in browser, HTML5)
Click here to listen with your own player(launches your MP3 player)

PHOG 241354Z AUTO 04014KT 10SM FEW046 24/20 A3006 RMK AO2 SLP183 T02440200 TSNO

PHOG Airport Info (Airnav.com)

PHOG Flight Activity (Flightaware)

Listeners: 1 out of 1298 total

Maui Tower: 118.700

TJSJ Approach/Departure (Archives)
San Juan, Puerto Rico, United States

Feed Status: UP
Listen in your browser - HTML5 player(in browser, HTML5)
Click here to listen with your own player(launches your MP3 player)

TJSJ 241356Z VRB04KT 9SM -RA BKN024 BKN040 BKN090 29/22 A3007 RMK AO2 RAB52 SLP180 P0000 T02940222

TJSJ Flight Activity (Flightaware)

Listeners: 0 out of 1298 total

San Juan App/Dep (North/East): 120.900
San Juan Approach: 128.650
San Juan Approach/Departure (West/Southwest): 119.400

TJSJ Del/Gnd/Twr (Archives)
San Juan, Puerto Rico, United States

Feed Status: UP
Listen in your browser - HTML5 player(in browser, HTML5)
Click here to listen with your own player(launches your MP3 player)

TJSJ 241356Z VRB04KT 9SM -RA BKN024 BKN040 BKN090 29/22 A3007 RMK AO2 RAB52 SLP180 P0000 T02940222

TJSJ Flight Activity (Flightaware)

Listeners: 0 out of 1298 total

San Juan Clearance Delivery: 126.400
San Juan Ground: 121.900
San Juan Tower: 132.050